GFSMW_sfc_rhum_000.txt.gz
RH
51 48 54 70 78 86 85 92 74 52 49 46 43 41 54 51 47 41 38 38 38 40 43 46 46 51 48 50 48 52 55 58 62 62 50 61 55 40 24 42 29 42 24
55 56 71 80 82 88 91 83 63 54 52 50 59 51 50 56 50 43 36 34 35 38 38 45 48 49 50 46 50 55 57 62 64 63 69 65 58 42 28 38 36 30 37
55 64 80 85 89 89 85 76 64 60 57 53 49 57 54 59 54 48 40 36 35 38 41 42 45 49 51 51 50 53 54 59 62 56 58 64 67 45 49 36 41 29 49
57 66 78 81 82 80 74 67 60 58 52 46 47 43 49 56 61 54 44 38 35 38 39 41 42 44 48 44 46 41 52 53 55 60 49 58 62 61 54 51 34 46 31
54 66 73 71 73 73 73 69 62 57 62 59 55 59 61 62 61 51 41 37 37 38 37 38 39 41 46 43 42 44 43 52 52 60 64 58 59 59 62 50 49 35 34
63 70 73 70 72 68 66 65 61 62 62 57 58 58 58 54 51 50 48 45 43 42 36 34 37 37 39 41 44 42 40 43 48 51 54 60 59 47 50 49 47 41 38
65 72 70 67 66 65 65 62 59 62 60 58 57 54 49 41 38 42 44 39 37 38 35 35 34 36 36 38 39 40 41 43 47 47 50 55 56 52 55 51 42 42 41
63 68 67 63 60 62 62 60 55 56 51 49 46 41 39 42 38 36 37 36 35 35 33 32 31 30 31 34 35 42 45 38 48 45 48 53 54 59 57 47 52 57 47
66 69 69 64 63 64 64 57 52 49 44 41 38 37 36 35 35 33 33 34 32 26 29 29 30 31 31 33 34 42 40 42 46 48 50 52 54 54 47 49 54 60 70
70 72 66 66 65 67 65 57 49 44 41 37 33 32 32 31 30 30 28 28 28 27 28 29 30 32 34 34 36 42 42 42 46 40 45 48 50 51 53 56 58 61 66
70 70 69 67 70 68 62 56 49 42 38 33 30 30 30 29 28 27 27 27 27 28 29 30 33 34 36 36 39 40 41 41 44 46 51 56 58 56 58 62 61 62 63
65 69 71 73 67 64 61 55 48 41 36 32 30 30 29 28 28 28 28 28 29 30 31 33 36 36 38 40 42 44 44 46 47 48 59 66 50 59 62 66 65 64 63
68 73 75 70 67 65 60 52 45 40 35 33 32 31 30 30 30 30 30 31 31 33 34 35 38 40 43 45 44 46 46 46 48 55 63 67 61 64 66 66 68 66 59
64 71 73 72 69 62 57 51 42 35 34 33 33 33 32 32 32 33 33 33 34 35 36 38 40 43 44 43 44 44 48 51 53 61 67 67 65 66 66 60 59 54 62
67 70 71 71 67 65 58 46 39 36 34 35 35 36 36 35 36 36 35 36 37 37 38 39 42 44 40 30 44 45 51 56 59 63 64 62 60 58 56 50 59 61 70
64 67 67 69 67 63 52 40 38 37 36 37 38 40 38 36 38 36 36 36 37 37 39 44 46 48 34 46 46 44 43 49 55 63 65 62 64 64 59 61 60 59 65
65 68 67 66 65 58 44 42 38 37 38 40 39 37 37 37 36 34 34 36 38 42 47 48 49 48 47 46 47 50 44 50 57 66 66 61 50 65 65 68 66 65 65
71 70 68 67 61 55 46 40 35 37 38 38 36 36 36 35 36 36 37 38 40 46 50 51 51 51 40 47 50 56 55 62 64 64 65 69 68 72 62 58 68 89 80
76 71 66 60 53 46 39 36 38 39 37 35 34 34 35 35 37 38 38 38 45 52 53 51 50 50 49 48 53 56 60 61 64 62 65 67 65 65 61 84 95 67 58
62 60 54 48 43 41 37 37 39 36 36 34 34 34 36 36 36 37 40 45 53 53 52 47 47 50 46 51 55 55 58 66 64 66 67 69 62 66 89 66 60 71 66
57 50 46 44 40 40 38 39 37 36 35 36 36 35 35 35 36 42 48 51 52 51 52 51 52 49 51 59 57 58 56 62 64 71 77 72 74 78 58 58 60 64 58
58 50 44 43 45 40 36 36 36 38 38 38 37 36 36 33 38 48 50 53 55 58 60 59 58 57 58 60 57 59 60 62 72 73 65 85 67 59 58 60 62 64 64
51 46 44 49 43 40 37 40 40 38 37 36 37 36 36 44 47 53 56 55 60 65 63 57 61 59 55 64 61 61 61 57 57 67 79 65 59 59 60 64 65 64 71
47 46 47 46 44 41 40 39 39 37 36 36 37 41 48 54 54 54 52 59 66 68 59 58 61 65 60 60 58 56 60 60 72 66 78 58 58 60 63 61 60 64 66
54 52 49 46 42 42 41 39 38 37 37 38 41 46 52 60 59 56 58 59 64 61 60 63 63 65 66 59 57 56 57 59 58 62 58 57 60 70 65 63 63 66 69
62 64 57 49 43 42 42 41 40 39 40 40 44 51 59 63 58 61 61 55 53 54 54 55 56 57 58 58 59 60 60 61 61 61 61 68 75 76 71 71 75 76 80

GFSMW_sfc_rhum_003.txt.gz
RH
53 54 58 69 80 83 80 96 84 58 52 48 44 42 45 40 38 36 39 40 42 43 45 51 50 50 49 52 47 53 55 56 62 67 59 61 57 46 33 44 39 36 36
54 52 63 86 89 88 91 88 63 55 52 49 51 44 39 45 45 42 39 39 41 41 41 48 50 47 47 45 47 54 54 56 62 64 72 64 58 51 25 40 42 36 45
53 59 77 89 91 94 94 67 58 58 55 49 44 44 42 50 45 43 42 40 40 42 43 44 46 47 49 50 48 51 49 52 52 60 52 52 64 53 49 31 42 28 48
54 65 84 90 94 94 90 64 61 61 50 40 39 34 39 45 53 49 43 41 39 41 41 41 42 44 48 44 44 41 49 53 52 58 45 55 59 64 60 52 31 47 32
53 62 75 81 91 88 80 67 66 58 51 49 43 48 54 62 60 47 40 38 40 38 39 39 39 40 46 43 42 43 41 50 51 57 60 57 58 61 68 46 46 38 34
58 72 84 82 85 85 79 69 63 65 61 54 57 51 61 56 47 48 46 43 43 42 36 35 37 37 39 41 44 41 40 44 46 50 52 57 58 57 58 55 47 44 34
67 80 80 80 78 78 76 70 63 68 62 59 60 60 59 49 45 46 49 42 38 39 36 35 33 35 35 38 40 41 42 43 46 47 50 55 56 56 58 52 49 47 42
63 74 75 74 72 72 70 66 65 66 63 62 61 56 47 49 47 45 43 38 36 36 34 32 31 31 32 35 38 45 46 41 49 46 49 54 55 58 59 54 59 63 50
67 72 74 69 68 68 66 63 62 61 59 55 49 44 42 40 39 36 35 36 35 29 30 30 30 32 34 36 38 45 43 45 48 50 51 51 55 59 61 63 62 69 78
69 72 68 66 67 67 66 59 53 51 48 42 39 36 35 34 34 34 32 31 29 28 29 30 33 35 37 38 40 45 46 46 48 44 49 52 58 62 69 67 66 70 76
72 72 66 66 70 68 61 55 47 42 40 36 35 34 33 31 29 28 29 28 29 29 30 33 36 38 39 40 44 45 43 46 48 50 54 59 63 70 63 67 71 74 74
73 69 69 72 67 65 60 54 46 39 36 33 32 32 31 29 29 29 29 30 30 32 34 36 38 40 42 45 46 47 48 50 52 52 60 66 51 70 68 72 73 72 71
77 82 76 69 69 66 58 50 44 39 35 32 32 32 31 31 31 32 32 33 34 36 37 39 42 43 47 47 47 47 49 52 53 57 62 66 71 72 69 70 72 71 64
76 78 76 76 72 64 55 48 42 35 34 33 33 32 33 34 34 35 36 36 37 39 40 41 43 47 47 45 44 51 54 56 55 60 66 69 71 71 68 65 64 62 67
79 77 77 75 71 64 55 42 38 35 34 34 36 37 37 37 39 39 38 38 40 39 42 44 47 48 43 32 51 54 55 56 56 59 62 62 65 59 56 52 59 60 66
73 75 72 72 70 60 48 38 38 37 36 38 40 42 40 40 42 39 38 39 40 42 47 50 50 51 36 48 48 51 62 58 59 64 64 67 66 66 59 60 61 60 66
70 73 72 70 68 54 41 39 39 40 39 42 42 40 41 41 40 37 37 38 42 49 52 52 52 52 52 47 49 53 62 66 69 66 67 63 51 65 70 72 70 82 93
71 72 73 70 60 50 43 39 38 40 43 42 40 41 40 38 38 38 39 43 47 52 54 52 53 55 45 50 51 55 66 70 71 69 69 68 68 72 64 80 89 79 73
74 73 68 62 51 44 38 37 41 42 41 40 39 38 38 39 40 41 44 47 53 55 53 54 54 54 56 53 55 57 68 69 70 67 68 68 72 68 73 68 76 62 58
67 64 57 50 44 41 37 38 41 39 39 37 38 38 39 39 41 45 51 53 55 51 52 51 54 57 55 58 57 56 62 73 69 70 70 73 65 65 67 62 61 76 69
56 52 49 46 42 41 38 40 40 39 38 39 39 40 39 41 48 52 54 54 56 56 60 58 60 60 60 68 59 59 58 63 66 68 61 68 74 62 60 59 62 67 68
52 46 45 44 44 41 37 40 39 41 41 41 41 41 43 43 45 54 56 57 61 66 68 69 68 65 66 62 60 61 60 58 58 66 72 89 68 62 60 62 66 65 66
49 45 45 45 44 42 38 42 43 42 41 40 41 44 52 50 52 58 59 60 68 73 71 64 68 64 58 65 64 64 62 58 64 72 65 68 62 61 61 66 66 65 70
50 48 45 45 46 44 43 42 42 39 39 41 45 50 54 61 60 55 53 65 73 76 65 64 66 71 65 65 63 62 65 66 63 64 82 59 60 62 65 63 61 64 65
52 49 48 48 48 46 44 42 40 39 39 43 44 53 57 65 62 58 62 63 69 69 65 70 68 70 70 62 59 58 62 59 61 62 59 60 62 71 67 66 66 67 69
57 54 50 47 48 46 45 43 42 40 41 41 44 58 62 64 60 65 67 55 55 56 56 56 57 58 60 60 60 64 60 62 63 62 64 72 76 78 74 76 77 76 82

GFSMW_sfc_rhum_006.txt.gz
RH
45 46 54 68 82 86 96 98 97 74 62 62 58 56 58 42 38 36 36 37 43 45 48 51 48 48 48 48 46 51 52 51 61 62 55 61 58 58 48 40 44 38 40
54 52 61 78 87 87 96 98 83 65 66 58 51 45 40 41 38 40 38 42 43 44 44 48 48 45 46 45 47 51 50 51 60 57 70 59 51 47 28 42 42 36 45
54 54 62 79 90 90 97 90 70 61 56 46 46 41 35 36 38 38 45 45 43 44 44 44 45 46 49 50 50 49 48 52 50 62 49 44 54 65 54 42 44 30 48
54 54 63 86 92 94 94 74 65 58 46 45 41 38 38 33 41 45 47 45 43 43 42 42 43 45 48 44 44 41 50 52 53 56 44 53 58 56 61 50 31 45 32
52 56 62 66 93 96 83 73 67 56 46 45 38 35 34 49 52 47 43 40 41 40 40 39 40 42 48 43 41 43 43 51 52 56 58 59 60 66 64 48 48 38 36
59 58 71 93 96 96 83 75 66 53 48 44 37 36 42 44 43 47 46 44 44 44 38 37 38 38 41 41 44 43 41 46 47 52 54 58 57 60 60 64 49 48 43
67 84 92 90 95 94 83 75 61 57 51 49 53 44 45 38 39 43 46 42 40 41 37 35 34 36 37 40 41 43 44 45 48 48 51 57 58 58 61 63 59 58 49
73 81 81 84 92 91 82 73 65 60 58 58 62 61 49 46 47 49 45 40 38 39 35 34 32 33 35 38 40 48 48 45 52 48 50 55 56 59 61 65 67 68 58
76 82 88 88 88 86 81 74 71 67 64 65 60 56 53 48 47 43 38 40 38 30 32 32 33 35 37 39 41 48 46 49 50 52 53 54 56 62 66 69 74 76 78
75 86 89 85 83 80 77 73 65 63 63 57 51 46 43 41 38 37 36 34 31 31 31 33 35 37 39 41 44 48 49 48 52 49 52 54 60 64 72 78 75 76 80
73 84 80 75 74 70 67 63 57 53 49 43 39 36 36 35 33 32 32 31 31 31 34 36 38 40 42 45 47 47 45 51 53 54 57 58 61 71 75 76 76 78 80
85 79 77 73 69 65 59 55 50 45 41 37 34 33 31 30 31 32 32 32 33 36 37 39 40 43 46 48 47 47 51 55 57 57 62 65 49 69 74 76 76 78 76
85 83 75 71 66 62 54 48 43 38 36 34 32 32 32 32 33 34 35 36 36 38 39 41 44 47 49 46 45 50 55 58 59 61 64 65 70 75 75 75 75 75 67
83 78 75 72 66 58 50 44 40 35 34 32 31 33 35 36 36 38 38 39 39 40 43 46 47 48 47 44 44 56 60 61 59 61 65 67 71 74 74 72 68 61 67
81 75 76 75 67 57 50 42 37 35 32 33 35 38 40 41 42 42 42 42 42 44 48 48 49 50 44 32 55 60 64 65 65 66 64 64 68 61 57 53 60 64 70
78 75 72 71 64 54 46 39 38 38 35 36 41 45 45 45 45 42 42 41 45 48 50 51 52 52 38 50 50 52 69 66 66 72 69 70 68 67 64 65 65 66 97
80 76 73 70 63 50 41 40 39 38 39 42 44 45 46 44 43 40 39 43 48 52 54 54 54 54 54 51 52 53 65 68 73 69 68 65 55 69 70 74 71 93 69
77 77 75 69 55 46 42 40 38 41 44 45 44 45 44 42 41 40 43 48 52 55 56 55 56 57 48 55 54 56 67 72 73 70 72 74 72 72 69 75 94 76 72
76 76 70 60 49 43 39 39 43 44 43 44 44 43 43 42 42 45 50 54 56 57 58 55 57 60 62 58 58 59 70 69 71 69 72 74 75 69 67 74 79 65 63
73 69 59 50 44 40 38 40 43 41 43 43 42 41 41 42 47 52 54 56 57 53 53 54 60 63 64 63 61 59 67 75 69 69 74 68 63 64 75 66 62 77 69
63 57 51 48 43 39 38 41 42 42 44 42 42 42 44 51 53 56 58 59 61 60 66 64 68 68 68 72 62 61 62 65 63 61 69 71 70 66 61 60 63 69 69
56 50 47 45 44 40 38 42 43 46 44 44 44 48 52 44 49 57 61 62 68 72 74 76 72 67 71 65 62 62 61 60 63 72 74 70 67 63 61 63 67 67 66
52 47 45 44 45 45 40 42 48 44 43 44 48 56 53 53 55 60 62 64 74 76 75 67 72 68 60 68 66 66 65 61 68 65 65 70 64 62 63 67 68 67 71
49 45 44 45 48 46 43 44 44 42 42 47 52 54 67 61 62 55 54 69 75 78 67 69 70 75 68 67 64 65 68 80 63 66 82 63 62 64 66 65 63 66 65
51 48 47 49 49 44 44 43 42 40 43 46 48 59 61 65 64 59 65 63 74 74 69 72 70 72 71 63 60 59 72 60 62 62 62 62 66 73 69 68 68 68 69
52 51 50 48 48 45 46 44 42 42 42 44 50 66 60 66 62 67 69 60 56 56 56 55 57 57 59 61 62 65 62 63 65 65 68 75 78 80 76 77 78 76 82

GFSMW_sfc_rhum_009.txt.gz
RH
42 40 40 38 50 63 73 85 90 80 73 74 62 60 62 49 42 39 36 37 39 36 37 34 31 31 30 30 26 30 30 32 36 27 27 31 34 36 34 22 26 26 27
47 43 42 49 57 64 81 88 86 72 72 67 61 56 48 44 41 42 38 38 37 35 34 34 33 32 31 30 31 34 30 32 38 30 37 31 24 26 19 29 27 24 24
40 40 44 49 66 72 86 88 75 71 68 59 51 42 38 38 41 40 42 39 33 33 33 33 31 34 34 35 35 35 34 32 35 34 28 26 28 32 28 27 29 22 26
42 40 46 51 66 73 86 81 69 68 58 52 49 47 46 40 35 38 40 35 34 34 32 33 32 32 32 32 31 30 35 36 35 34 28 30 32 29 29 28 23 28 23
44 43 46 49 57 80 85 75 65 60 52 52 48 47 40 36 38 39 36 33 32 33 32 31 33 32 32 32 32 34 33 35 34 36 36 36 34 40 40 30 28 28 26
48 49 47 58 77 86 80 74 64 57 53 51 46 42 39 36 39 38 35 31 31 32 32 31 31 31 31 32 34 37 37 36 36 37 38 37 35 33 36 36 35 36 30
50 53 64 74 82 87 80 74 65 57 50 45 42 40 36 33 36 35 34 32 30 31 30 29 27 28 33 35 35 36 36 35 36 36 35 38 38 37 38 43 42 42 36
47 60 65 73 78 86 78 71 64 57 51 47 46 37 34 35 33 35 32 29 28 29 28 28 26 27 29 31 33 36 37 36 38 38 38 38 38 39 41 44 48 48 35
52 59 72 74 83 84 76 70 63 56 56 56 49 40 37 37 39 35 32 31 30 26 27 27 28 29 30 31 33 34 33 36 38 38 39 40 40 41 43 46 47 49 51
54 63 74 82 83 81 74 67 59 59 60 55 44 40 38 37 36 31 31 29 26 26 27 28 29 30 31 32 33 34 35 35 38 37 40 40 41 42 46 50 50 50 54
56 63 77 81 83 77 72 66 61 59 55 46 42 39 37 34 29 28 26 25 25 26 27 29 30 31 32 32 31 32 35 40 41 42 45 44 42 44 46 50 52 54 54
65 78 80 78 76 73 66 62 55 53 45 39 36 34 31 29 27 26 26 25 26 28 30 30 32 32 34 33 31 36 41 43 45 45 49 49 42 48 48 52 53 53 53
82 79 76 74 72 65 58 51 46 42 37 34 31 29 28 27 26 27 27 29 30 31 32 34 34 34 35 32 31 37 43 45 46 47 47 47 48 48 49 53 56 56 53
80 78 74 68 63 56 49 42 38 34 32 30 29 29 28 28 28 30 31 31 31 34 35 35 36 37 34 33 33 43 46 48 49 50 49 48 50 51 55 55 54 53 54
81 75 72 63 54 48 42 37 34 31 29 30 31 33 32 33 34 35 34 35 36 37 37 36 37 37 34 29 44 48 50 53 52 50 48 49 56 63 58 53 56 57 63
79 73 68 58 52 49 42 37 34 32 30 32 36 40 38 37 38 36 36 39 40 39 38 39 38 39 33 50 52 50 48 52 53 52 49 51 63 61 66 65 64 65 91
76 72 64 56 48 41 35 34 33 32 34 36 37 39 38 38 37 35 37 40 40 39 40 38 39 40 41 52 54 54 48 53 53 55 54 54 50 63 59 66 71 92 71
74 70 64 54 44 38 36 34 33 36 38 38 39 38 37 36 36 37 39 40 40 40 39 40 41 44 42 57 55 58 51 53 54 57 55 57 58 62 65 63 95 72 59
72 69 58 48 41 37 34 36 38 38 38 39 38 37 36 36 38 40 41 41 40 40 42 41 45 46 50 58 60 57 52 54 54 54 55 58 57 62 61 73 83 55 51
70 62 51 43 39 37 35 36 38 37 40 38 38 36 35 38 41 42 41 43 42 42 42 45 48 56 50 62 61 56 52 56 55 54 53 62 61 63 69 64 55 67 60
61 52 46 42 38 36 35 38 38 39 39 37 36 38 41 42 42 42 43 44 46 47 49 51 51 52 54 54 61 61 53 56 58 55 58 55 65 68 62 61 53 62 66
55 46 44 41 38 36 37 39 41 40 38 38 42 44 42 38 42 43 46 48 51 51 53 57 53 51 52 61 61 63 61 59 57 67 56 58 67 63 62 60 68 68 66
50 44 42 43 42 38 36 39 41 37 38 42 45 44 44 44 44 45 49 48 54 56 58 57 57 55 50 53 65 66 64 61 64 55 61 66 65 62 60 66 69 68 60
47 43 42 43 42 38 37 38 38 37 40 46 50 50 46 49 48 45 46 53 57 60 57 58 58 59 56 55 54 54 55 70 57 62 64 61 61 64 64 60 57 56 57
46 45 45 44 43 39 39 37 37 37 39 42 45 48 50 50 49 49 54 54 56 57 55 56 55 58 59 54 59 58 65 57 58 61 56 53 56 61 59 59 60 59 60
49 48 45 43 42 40 40 39 39 36 37 44 52 51 50 52 50 54 53 56 52 55 53 54 54 51 58 61 62 64 62 63 65 60 57 63 65 68 66 70 68 68 76

GFSMW_sfc_rhum_012.txt.gz
RH
27 28 27 27 28 27 30 34 43 51 58 74 71 78 65 58 51 44 40 37 32 29 27 25 23 22 22 21 20 22 23 24 22 20 20 22 24 30 28 16 17 20 20
24 26 27 26 27 28 35 40 48 56 60 68 67 68 64 51 44 43 39 38 34 31 27 26 25 24 24 24 24 27 24 24 24 24 26 24 20 19 20 19 18 17 17
23 24 24 25 31 32 38 46 57 58 61 67 59 54 46 43 40 42 43 39 31 26 26 26 24 26 26 28 27 27 25 25 25 24 23 23 23 22 18 20 18 18 18
22 22 24 23 27 35 42 56 64 58 62 61 53 51 54 53 40 38 42 35 29 25 24 24 24 25 25 26 24 22 25 26 27 26 20 22 23 23 24 20 19 19 18
21 24 24 25 26 34 53 67 62 61 62 58 54 57 53 49 36 39 35 32 26 25 24 24 25 24 24 25 25 27 25 26 26 28 27 25 25 25 30 29 24 22 21
24 25 28 26 27 39 59 68 63 63 60 62 55 56 49 38 40 37 36 29 25 25 24 24 24 24 24 26 28 30 30 29 28 28 29 29 30 27 30 30 28 29 26
23 25 29 33 35 51 64 67 64 63 58 56 53 47 41 37 36 33 32 26 25 25 25 24 22 23 26 28 28 29 29 28 28 28 27 28 29 28 30 32 33 32 28
29 25 28 35 40 53 59 63 62 59 58 52 47 42 39 40 31 29 26 24 24 23 24 22 20 21 22 24 26 27 28 29 29 33 32 31 30 31 32 35 38 39 30
36 34 29 38 42 51 57 58 58 56 55 49 43 39 36 37 32 30 26 24 24 22 22 22 21 22 22 23 25 25 25 27 30 30 32 32 33 33 33 34 36 40 42
33 36 32 40 45 50 54 52 52 53 49 45 39 40 36 31 32 27 26 25 21 20 22 21 22 22 23 23 25 25 26 26 28 30 33 33 32 32 34 36 36 37 41
40 42 37 39 48 54 56 54 52 52 50 45 44 38 36 32 28 25 24 22 20 20 20 21 21 22 22 23 23 24 26 30 32 34 38 39 36 35 33 35 36 38 40
47 50 45 50 56 58 57 56 53 53 50 45 42 37 33 28 25 23 21 20 20 20 20 21 22 23 24 23 22 25 28 32 35 36 42 42 30 35 34 36 37 40 40
48 54 57 58 60 59 58 56 54 51 43 40 35 30 28 26 23 22 20 21 21 22 22 24 24 24 26 24 22 25 29 33 36 38 39 38 35 34 34 36 41 43 40
53 57 58 57 58 59 55 50 46 41 40 39 30 28 26 23 22 22 22 23 22 24 25 25 26 27 25 26 26 32 35 36 38 41 41 39 39 40 42 43 44 41 46
50 60 61 58 59 57 48 46 43 37 33 30 29 27 25 24 25 25 25 25 26 27 27 27 27 27 27 23 38 39 39 39 39 38 38 38 44 59 59 52 51 50 56
51 61 59 57 58 49 44 44 38 39 31 28 30 30 29 28 29 28 28 30 31 29 29 29 28 30 24 47 52 50 41 38 39 39 37 38 51 48 58 58 60 60 80
63 61 57 55 50 43 41 45 42 34 28 29 29 29 29 31 30 28 29 32 31 30 29 28 28 29 30 50 54 55 42 40 40 45 46 43 38 53 46 58 62 70 78
64 58 54 49 41 40 39 34 28 28 29 30 30 29 29 29 28 28 30 30 28 28 28 29 29 31 30 54 56 58 42 40 41 45 43 43 45 48 55 59 81 78 56
57 54 48 38 33 31 28 28 28 29 30 31 30 29 28 29 30 31 30 29 28 28 28 30 31 31 31 48 58 56 42 39 41 40 40 44 48 58 61 73 88 51 42
58 48 40 33 30 28 27 29 30 29 31 30 29 27 26 30 31 32 29 31 29 31 30 32 31 39 33 43 59 54 43 42 40 39 40 52 56 58 70 63 50 56 48
50 41 35 33 31 28 28 30 31 32 30 28 27 28 29 29 29 29 29 30 30 31 29 31 30 33 36 39 56 60 49 45 45 44 47 45 54 63 62 61 49 53 60
48 40 37 35 31 29 30 32 33 30 28 29 31 31 29 28 28 30 31 32 31 30 30 31 30 30 32 42 50 61 60 57 50 58 46 47 62 63 62 58 62 67 66
44 38 36 35 31 30 31 35 32 29 30 32 33 32 30 31 31 31 34 32 32 32 34 35 34 33 34 35 50 57 56 55 64 48 55 61 61 60 54 57 66 64 51
42 38 36 36 34 30 30 30 29 29 30 32 32 31 31 32 32 34 33 32 33 35 36 36 37 37 37 37 40 44 45 57 50 54 57 53 55 54 54 51 48 48 50
40 38 39 38 36 31 30 28 29 30 32 33 33 33 34 33 33 35 36 36 35 42 42 39 39 42 43 43 57 57 54 54 54 59 47 42 42 48 48 49 50 51 53
41 41 39 36 33 31 31 30 28 28 29 30 32 34 35 35 35 34 33 49 49 52 51 52 51 44 52 58 63 63 63 63 64 55 46 48 52 56 56 59 61 63 72

GFSMW_sfc_rhum_015.txt.gz
RH
19 20 22 20 18 19 22 23 24 31 33 45 69 82 83 78 64 57 52 44 37 36 35 28 26 25 26 25 23 25 27 29 26 28 28 28 24 30 28 26 20 22 21
19 20 20 24 23 23 25 25 27 32 38 52 68 78 72 66 57 49 44 35 35 36 35 30 29 27 29 28 28 32 29 30 28 28 35 33 27 24 22 23 21 20 23
19 18 19 21 27 26 27 26 30 37 44 61 66 73 65 55 54 46 42 39 35 35 34 30 28 31 33 35 34 32 31 34 31 26 30 32 33 28 26 27 23 23 24
17 18 17 19 23 28 32 30 34 40 46 57 65 68 62 60 54 45 38 36 33 35 30 28 29 29 30 32 30 25 29 33 33 30 20 24 26 29 30 27 25 23 20
17 16 18 21 20 25 37 40 39 46 50 58 60 60 56 56 46 38 35 33 33 34 31 26 30 29 29 29 30 30 28 28 29 32 32 28 30 28 33 38 32 27 25
16 19 19 19 22 29 39 47 47 51 53 60 57 55 58 48 44 39 38 35 34 33 27 27 29 28 29 31 32 33 32 30 29 31 31 33 34 33 36 37 35 34 31
19 20 20 22 27 31 38 51 54 54 55 59 54 54 57 52 45 38 37 34 32 32 29 28 26 27 30 31 30 32 31 29 32 31 30 30 32 31 33 38 40 40 34
25 30 30 22 28 36 41 49 55 55 58 58 57 54 48 48 41 36 33 31 30 28 28 26 24 24 25 26 27 30 32 30 33 36 37 36 34 35 37 40 44 47 41
28 29 31 28 24 32 37 50 53 56 57 60 56 48 47 40 38 33 30 29 28 26 25 24 24 23 24 24 25 27 26 28 31 34 36 37 36 38 38 39 41 46 51
26 29 32 32 27 33 39 47 50 54 57 55 46 43 42 36 34 31 30 29 26 24 25 24 24 24 23 23 24 26 25 26 30 32 33 35 36 36 40 42 40 41 46
32 34 36 34 30 36 42 46 49 54 57 48 42 43 44 39 32 32 28 27 23 23 23 23 23 22 22 22 23 23 25 28 30 33 40 39 39 40 38 39 39 42 44
32 36 40 38 36 43 47 48 51 53 50 43 40 42 38 33 33 28 25 22 22 21 22 22 22 22 23 22 21 23 24 28 32 34 45 46 32 39 37 38 39 41 41
25 34 40 46 46 50 50 50 50 51 47 43 42 37 33 31 29 25 23 22 22 22 22 23 24 23 25 24 22 22 25 28 32 36 37 39 39 39 38 40 44 46 42
32 42 48 47 50 52 53 52 53 50 45 42 40 38 34 29 26 24 24 24 23 24 24 25 25 26 24 25 25 29 32 35 38 38 40 38 41 41 42 49 51 48 54
45 44 53 51 53 62 55 51 54 44 39 40 42 37 32 28 27 27 26 26 27 26 26 26 26 26 26 23 38 40 40 39 37 37 35 37 44 49 52 53 58 58 61
53 46 54 54 64 54 49 48 45 40 39 41 41 35 30 30 31 29 30 31 30 29 28 28 27 28 23 46 51 52 46 40 38 38 36 38 50 45 50 54 55 56 70
56 54 56 56 52 48 45 43 43 44 49 48 41 36 31 32 33 32 31 33 31 29 29 27 27 27 28 46 52 55 47 43 41 47 49 46 36 51 47 51 55 64 66
62 58 54 51 45 45 49 46 54 45 46 45 37 33 33 34 33 32 32 30 28 28 27 27 27 30 30 46 52 57 47 39 40 47 43 43 45 50 51 58 76 75 70
56 51 44 47 53 59 65 74 81 73 51 42 35 34 32 32 33 33 30 28 27 27 27 29 30 29 28 40 51 56 46 41 41 39 39 41 45 51 55 61 83 69 53
52 44 43 45 50 50 43 44 51 47 44 43 30 28 29 32 33 32 29 29 28 30 31 32 29 31 32 34 48 53 47 47 43 42 41 47 48 53 56 64 60 67 58
69 68 62 65 54 38 39 33 31 31 29 28 29 30 30 30 28 28 28 27 30 34 29 31 27 28 30 35 44 53 52 50 51 50 50 50 52 57 60 60 58 60 57
40 34 33 31 28 28 30 32 32 29 29 31 32 31 29 26 26 29 29 31 30 30 28 27 28 29 28 34 40 51 56 54 51 56 57 52 58 59 59 59 58 62 63
38 34 34 33 31 30 31 33 31 31 32 32 32 31 29 29 30 31 34 35 31 30 31 34 34 32 33 34 40 47 52 53 54 53 54 59 59 58 54 54 59 58 56
39 36 35 35 35 31 30 32 33 32 31 32 32 31 30 30 32 37 34 32 32 33 35 35 36 37 36 36 40 47 53 54 58 57 62 57 54 48 49 49 50 52 53
39 37 38 39 36 32 32 31 31 30 33 32 33 34 34 31 33 34 34 36 32 41 42 41 41 43 45 44 56 58 56 60 58 60 58 51 44 52 50 53 55 57 59
40 41 41 37 34 32 32 31 31 31 31 32 33 35 36 36 36 34 34 49 46 47 51 51 51 47 52 55 61 62 63 63 64 60 55 50 57 60 58 62 65 68 76

GFSMW_sfc_rhum_018.txt.gz
RH
25 26 28 28 30 24 28 32 37 40 52 78 83 85 85 87 85 77 63 55 45 45 45 39 40 42 41 37 34 39 40 44 43 45 42 44 38 44 43 43 30 29 28
27 26 26 31 31 33 29 34 36 38 40 60 71 85 89 82 72 66 58 54 47 47 36 36 43 41 44 42 41 43 46 45 42 42 49 47 42 37 31 37 30 29 30
26 24 25 27 36 31 37 39 37 41 42 56 87 80 77 63 63 54 57 53 44 41 35 36 42 47 52 52 46 44 42 49 44 35 43 45 49 43 39 35 33 30 36
24 24 23 24 29 34 32 40 40 43 49 80 85 80 81 77 65 60 71 51 42 42 34 36 39 47 51 46 42 38 42 47 46 46 30 35 38 46 48 43 39 37 32
26 25 25 23 23 27 40 37 42 48 60 79 83 83 79 68 58 57 57 46 37 36 34 35 38 45 48 39 41 42 40 42 46 47 47 43 45 42 49 55 49 43 40
25 28 29 30 32 30 40 55 44 56 67 77 79 78 73 65 56 56 53 42 37 37 40 35 39 44 45 44 46 44 42 42 42 44 46 48 50 50 52 56 52 51 45
28 32 42 43 37 36 41 61 50 62 71 75 76 70 68 57 58 55 49 37 36 38 37 39 42 46 47 46 46 46 44 42 45 43 46 46 47 47 49 54 59 61 51
26 41 44 45 46 41 46 60 62 73 72 76 75 66 58 56 57 55 47 37 34 34 33 34 41 40 39 40 42 46 46 41 46 44 48 52 51 51 53 56 63 60 61
33 41 46 45 47 46 50 63 68 71 72 77 66 64 57 57 55 59 37 33 33 31 30 32 37 36 36 36 36 43 40 39 42 45 48 52 53 54 56 57 58 65 63
35 39 44 47 47 45 48 63 68 69 73 69 62 54 53 53 48 38 33 32 30 30 30 33 36 35 33 32 34 38 34 35 43 44 44 49 53 55 58 60 59 60 66
43 46 47 51 50 46 51 62 70 78 69 53 52 50 49 40 34 32 30 29 27 28 29 34 34 33 32 30 32 32 32 36 40 44 49 51 52 58 57 57 57 60 63
37 43 49 54 54 52 57 66 59 73 53 48 47 43 41 36 34 31 29 27 27 27 28 33 32 31 30 29 28 30 32 35 41 45 51 57 42 55 55 58 56 59 59
35 39 56 55 53 62 57 61 76 65 49 47 47 43 37 33 33 30 27 28 27 28 31 32 32 32 33 30 29 30 33 37 43 47 51 52 53 57 58 56 65 69 55
48 49 62 60 58 71 80 83 67 53 49 47 43 40 38 35 30 29 27 30 27 29 35 35 35 34 31 30 32 39 44 50 50 52 53 53 53 56 58 61 68 63 75
62 58 60 63 70 80 80 74 57 52 48 42 39 36 34 33 31 29 29 30 31 35 35 34 34 33 31 33 52 56 56 56 53 50 47 48 54 50 52 53 72 74 78
68 63 56 71 69 64 59 61 56 51 50 43 38 36 34 36 35 34 35 35 38 39 35 34 35 35 26 47 50 54 60 59 56 55 52 53 58 57 50 52 54 54 73
70 67 60 67 54 50 49 52 50 47 46 46 47 49 56 62 53 40 40 40 38 36 35 34 33 32 48 51 47 52 61 64 63 62 62 57 42 58 62 59 55 62 64
65 62 56 52 51 46 51 54 54 57 65 67 70 74 80 70 48 38 36 35 36 36 36 34 33 39 42 46 48 53 64 61 58 59 56 58 58 62 56 65 84 85 86
54 51 51 54 54 60 57 58 66 73 72 79 86 80 65 58 45 40 38 35 34 34 34 36 36 36 45 43 44 56 65 62 62 54 54 55 59 55 53 66 89 80 71
48 58 59 69 74 79 79 81 79 84 82 79 69 60 52 38 39 36 38 36 34 36 38 39 39 43 42 35 41 51 63 72 66 64 59 55 54 56 55 62 66 76 70
74 71 70 78 79 86 85 89 90 93 93 82 47 39 37 34 33 33 33 39 44 42 41 38 37 38 40 43 38 45 61 69 70 70 67 68 59 57 59 59 66 67 60
88 85 89 90 88 87 74 47 36 36 36 36 35 34 31 28 32 40 42 41 42 40 39 40 44 44 40 37 41 42 49 55 65 70 71 72 60 60 60 58 56 58 60
40 38 41 43 42 39 37 40 39 36 34 33 34 37 37 38 41 45 46 46 42 45 46 46 51 50 46 48 44 50 54 59 61 66 62 62 62 61 58 54 55 57 69
43 40 39 38 38 37 38 37 35 33 34 38 40 41 43 45 45 48 48 49 49 52 50 51 56 58 56 56 65 64 73 66 64 69 82 65 60 54 53 56 60 67 64
44 40 40 42 40 36 38 34 34 34 37 42 47 48 47 47 49 50 55 51 61 59 65 67 64 67 69 58 58 62 63 70 63 63 73 68 63 67 63 64 67 68 68
44 43 42 39 38 37 38 40 39 38 38 44 51 56 56 53 52 52 52 44 44 41 46 48 53 59 54 56 59 62 62 62 62 65 69 72 76 74 70 69 72 76 81

GFSMW_sfc_rhum_021.txt.gz
RH
34 32 31 32 30 30 32 37 58 67 78 86 90 86 84 92 89 76 65 62 53 48 43 44 42 44 43 41 37 43 41 45 46 42 44 50 44 45 42 45 37 31 32
34 31 30 33 34 35 34 35 47 62 72 83 84 85 93 96 82 74 61 53 46 47 41 40 43 42 44 44 43 46 49 48 46 42 56 45 42 38 36 40 32 31 34
32 31 31 30 32 38 39 38 42 46 74 82 90 97 91 87 82 68 62 57 48 44 42 42 40 39 51 52 45 46 46 50 47 40 44 41 46 47 42 40 38 37 37
27 26 28 31 30 34 43 42 44 48 47 83 89 91 89 91 88 76 77 54 44 42 41 41 42 42 52 48 46 42 47 52 47 49 36 40 41 41 38 44 44 44 37
32 30 30 30 27 30 37 44 46 49 53 87 87 90 89 88 82 80 64 44 40 40 41 42 45 41 44 44 43 43 43 46 50 51 49 46 50 47 49 52 51 48 43
29 30 32 38 39 39 37 49 48 51 80 89 87 89 90 74 78 76 63 44 41 41 40 38 42 40 38 45 50 47 43 46 46 50 50 51 50 52 53 58 58 55 51
26 32 49 45 49 50 48 46 58 53 88 92 89 87 82 69 78 73 64 46 45 50 40 38 39 44 43 51 51 50 45 45 48 45 50 51 50 51 53 58 63 66 61
26 37 42 48 53 53 51 52 56 61 89 91 90 83 72 79 77 68 52 47 41 40 42 39 38 40 41 48 48 52 52 46 51 47 51 54 53 55 57 58 64 71 67
28 42 47 50 52 53 54 54 60 69 89 90 89 82 68 75 71 66 49 40 39 42 37 35 38 36 38 44 45 48 40 42 48 48 51 55 58 59 60 62 63 66 73
37 48 50 52 55 57 58 56 58 73 87 92 83 72 70 70 63 51 42 43 40 34 37 35 34 35 35 40 43 42 40 39 46 49 48 51 57 58 62 63 62 64 70
42 51 51 56 56 57 62 60 80 82 94 84 69 74 66 57 48 45 43 44 36 35 35 36 37 36 35 37 40 40 39 38 41 46 50 52 54 60 63 62 61 62 68
45 45 49 58 61 60 63 66 73 94 82 69 64 64 54 48 45 40 37 34 36 36 35 35 33 31 36 33 34 33 36 38 41 44 53 56 46 57 59 62 60 65 68
50 55 59 63 64 66 71 77 90 73 67 65 65 53 48 46 37 35 34 35 34 32 34 30 32 32 36 33 32 33 36 39 45 50 53 54 57 61 64 62 66 73 59
62 60 71 69 69 86 94 92 76 67 64 65 58 53 47 39 36 36 33 35 34 33 30 31 34 38 35 34 42 46 50 53 54 54 55 56 58 60 63 61 68 66 79
77 75 75 75 92 95 86 77 80 79 71 59 54 50 43 42 40 42 40 39 41 36 33 32 34 38 39 38 53 56 58 58 57 54 51 52 57 52 54 56 73 78 84
72 74 73 82 80 85 84 80 77 68 73 52 50 43 44 45 50 50 49 50 36 34 34 35 39 35 37 54 55 58 61 59 61 62 60 58 60 57 52 50 51 54 78
68 71 78 64 66 75 87 94 85 62 44 44 44 49 55 63 67 59 53 48 44 37 36 36 36 45 54 54 54 55 60 66 68 65 64 60 46 62 64 63 56 60 60
67 64 59 55 59 63 76 72 77 68 68 70 70 72 76 79 77 80 83 76 63 57 52 37 39 49 52 54 52 57 68 67 63 64 62 62 64 67 63 69 82 81 85
56 58 58 62 62 65 70 75 79 80 83 85 89 89 88 90 90 90 87 80 72 48 38 42 39 47 57 47 49 59 66 66 69 62 64 65 67 60 57 68 88 82 79
67 70 72 74 72 72 75 81 88 92 94 91 92 91 87 83 76 66 48 39 40 39 40 42 43 44 44 40 40 51 65 73 72 69 67 65 59 58 58 66 76 84 75
74 76 82 90 91 88 86 91 90 94 92 91 89 84 67 52 47 40 38 38 40 42 43 42 44 44 45 44 36 40 61 66 71 74 70 69 63 60 60 60 68 67 58
86 86 92 96 95 91 88 93 96 94 89 84 66 46 36 30 32 37 43 45 45 45 46 47 50 50 47 45 43 42 47 56 69 71 73 76 65 62 61 60 56 57 61
85 87 89 89 83 72 58 55 42 37 35 35 36 36 36 41 45 48 48 51 48 54 51 51 56 56 53 56 56 56 55 61 66 69 66 65 65 61 62 59 58 59 70
46 46 44 45 42 39 37 37 35 34 34 36 42 48 49 50 50 53 52 54 56 60 55 57 63 68 63 63 62 66 77 69 66 68 83 66 59 58 59 62 63 67 67
42 40 42 43 41 38 37 35 35 34 41 48 53 55 54 52 55 56 56 59 63 54 59 70 66 72 75 62 60 64 64 73 66 65 74 69 66 71 66 66 68 69 70
43 44 44 42 41 39 40 39 40 43 45 52 55 60 59 58 56 55 54 47 46 43 45 46 51 55 48 50 54 58 60 60 61 62 65 72 78 78 71 73 74 76 83

GFSMW_sfc_rhum_024.txt.gz
RH
34 39 37 37 35 35 37 45 65 67 84 94 95 94 84 87 94 72 70 63 60 55 47 45 42 43 41 44 41 47 41 46 47 43 47 52 49 48 48 46 42 36 36
37 36 36 36 36 35 36 39 56 64 82 84 83 89 88 93 90 93 72 64 58 53 42 38 42 42 45 43 44 46 51 48 48 46 57 45 42 42 38 43 36 35 38
31 32 34 33 36 37 38 40 43 63 78 82 91 99 96 97 94 89 71 62 54 47 41 38 42 44 49 50 48 49 48 51 47 43 46 49 45 46 42 43 43 40 44
36 31 33 34 34 34 36 40 44 54 76 88 93 89 87 94 96 86 93 81 51 43 40 39 37 43 54 44 48 47 52 53 48 50 39 43 43 38 34 43 46 48 39
39 37 36 33 32 34 37 42 45 53 64 92 90 90 81 84 96 96 90 82 72 46 40 38 39 45 52 43 40 46 50 50 54 53 52 49 55 50 48 45 49 49 47
33 34 32 35 37 46 46 44 46 51 62 91 93 90 88 93 93 91 86 80 68 58 49 40 41 44 42 40 43 44 44 49 50 53 52 52 51 53 55 57 59 56 53
28 29 37 47 50 52 54 52 51 52 64 91 94 91 94 86 88 85 79 70 64 60 55 46 46 48 48 51 50 46 44 47 50 48 53 54 52 53 56 58 62 64 62
29 30 40 49 52 50 49 47 51 56 64 94 94 94 90 86 87 82 76 66 57 65 62 51 45 46 45 43 45 49 50 49 54 49 54 57 57 58 59 60 64 70 69
44 36 34 54 55 54 50 53 55 56 66 93 95 96 85 90 88 83 73 66 62 56 50 45 48 50 49 45 42 47 44 48 53 52 54 57 61 63 64 65 66 67 71
43 44 52 56 57 56 57 62 62 63 67 92 95 93 86 88 87 81 72 64 54 48 43 47 49 49 47 42 42 41 40 45 52 54 53 54 59 60 64 66 66 71 70
54 45 50 54 61 57 56 56 65 72 85 97 96 90 91 86 84 76 67 56 47 41 44 45 48 48 44 40 38 39 38 42 46 52 51 51 55 61 66 67 64 65 72
58 53 45 56 61 63 62 64 70 79 95 94 87 87 86 82 78 69 59 46 42 42 44 43 44 48 44 41 40 38 36 42 45 47 55 56 48 62 62 66 65 67 69
63 63 58 65 70 73 79 87 91 89 93 86 86 83 81 76 71 63 52 42 44 45 45 42 43 34 36 32 32 34 39 43 46 49 49 51 56 60 66 68 70 72 60
73 66 69 70 73 94 92 89 90 86 86 86 79 77 76 72 57 52 46 44 46 49 52 55 52 43 39 34 38 50 56 56 54 51 52 54 58 62 64 64 66 66 78
73 81 78 73 91 94 90 87 92 90 85 83 82 70 59 51 46 47 48 48 49 49 49 59 54 54 54 51 56 60 59 54 52 52 51 54 56 59 56 59 75 77 81
69 64 76 88 94 94 91 85 89 87 73 64 63 57 51 52 59 60 58 60 64 66 64 55 48 54 51 61 60 57 57 55 57 57 60 61 63 62 54 53 51 54 79
74 71 70 79 92 95 90 92 85 81 72 73 62 64 65 65 66 63 66 67 74 72 64 60 47 57 59 57 58 60 57 58 62 64 65 58 48 68 66 64 60 62 62
63 58 63 69 82 88 92 93 90 87 84 82 89 84 77 75 78 84 89 89 82 78 83 79 74 77 65 59 56 58 63 67 69 67 68 70 70 69 64 71 83 82 80
72 72 67 70 82 86 90 92 95 97 95 92 86 83 85 90 91 94 97 94 95 98 93 76 64 64 55 51 53 62 68 67 71 68 70 73 73 64 58 72 90 81 78
74 79 74 74 78 80 78 84 89 91 96 93 93 89 88 91 94 94 94 95 90 70 47 41 39 49 54 48 42 63 68 69 69 73 70 65 63 60 59 70 77 86 80
83 84 88 93 91 86 86 92 96 99 98 91 92 90 89 87 85 78 68 54 44 41 41 45 47 48 48 50 36 39 62 63 70 72 71 70 65 63 62 60 72 70 62
88 88 92 93 91 92 89 94 97 95 88 87 87 77 57 38 36 39 40 41 45 48 50 53 56 52 53 51 49 54 54 58 70 73 73 75 70 64 61 62 60 60 62
89 86 88 82 66 70 78 90 83 62 48 40 38 38 38 39 42 47 51 54 55 56 55 52 57 57 55 59 55 56 56 62 68 71 70 67 65 60 63 61 60 62 73
65 60 60 56 44 40 37 40 40 35 36 40 45 50 50 53 54 53 52 57 59 60 54 55 60 67 64 64 64 66 77 70 66 69 85 65 57 58 60 62 64 68 69
44 44 46 47 43 39 38 36 37 39 46 52 59 61 57 57 58 56 58 56 56 48 54 67 63 69 71 60 58 62 64 74 69 69 66 65 66 75 69 66 68 71 71
46 48 49 44 42 40 41 45 46 45 50 54 56 61 60 59 58 60 64 51 47 46 47 53 57 53 51 47 52 58 59 64 60 61 67 76 83 80 75 75 77 79 86

GFSMW_sfc_rhum_027.txt.gz
RH
31 36 39 40 40 40 44 46 79 74 87 95 98 97 96 91 92 83 76 72 70 66 60 50 39 38 37 43 40 44 39 45 49 48 51 52 53 50 51 50 48 40 40
36 36 36 39 40 38 39 43 56 73 84 88 88 92 90 91 90 91 86 73 70 62 52 45 38 37 42 44 45 48 51 48 48 48 58 49 44 45 42 46 38 40 41
33 32 38 36 37 40 39 38 43 61 82 84 93 99 98 98 99 98 93 77 67 60 51 43 40 37 41 45 47 50 48 50 48 47 50 52 47 49 44 45 44 42 46
38 37 35 38 37 36 38 38 40 46 73 88 94 94 85 92 92 95 92 88 77 67 51 44 40 37 42 45 45 48 55 52 48 52 38 45 47 39 35 44 48 50 41
42 42 41 39 36 36 38 38 40 49 57 91 91 95 83 73 90 98 95 90 91 76 59 52 44 39 42 44 44 51 54 52 55 54 53 50 56 50 44 40 47 51 50
30 33 36 38 38 41 44 44 42 44 58 90 95 96 93 96 98 98 97 93 84 78 70 62 58 47 51 51 51 47 46 48 54 55 54 53 51 53 54 54 56 57 54
41 38 37 34 50 53 54 52 51 50 57 73 96 96 95 95 93 94 94 91 79 74 67 65 68 64 60 57 50 47 44 44 50 46 54 55 53 55 56 56 60 60 64
50 48 46 46 45 53 59 54 52 52 60 81 90 96 96 96 93 93 91 85 77 71 70 69 66 66 60 53 49 52 53 45 49 45 49 59 58 58 59 60 63 66 70
49 51 50 54 60 62 60 57 55 54 57 73 94 96 98 97 95 92 89 84 80 73 70 68 62 59 55 54 53 54 50 44 51 50 51 61 64 65 66 66 66 64 67
56 56 57 51 53 56 62 62 61 63 64 72 93 96 99 95 95 95 89 77 75 69 65 62 61 56 56 52 50 48 42 46 50 52 50 55 62 65 68 70 69 70 68
62 58 63 57 55 58 63 66 67 71 77 84 92 99 97 96 95 89 81 73 72 68 64 60 57 51 51 45 48 54 49 50 48 50 53 51 58 66 69 71 67 69 73
64 60 71 70 74 78 73 84 86 91 89 90 97 98 97 96 95 91 79 71 68 63 60 54 48 48 49 52 51 49 51 52 51 56 61 56 50 63 65 65 66 68 71
62 72 79 77 79 85 93 85 83 86 90 95 97 97 97 96 95 90 79 69 66 63 58 49 50 52 52 54 58 63 55 47 47 46 49 52 58 61 66 69 72 72 60
71 67 82 83 75 83 83 84 90 90 90 92 93 95 95 94 86 72 65 61 60 57 54 49 53 55 59 65 71 69 63 62 53 54 53 52 56 62 62 64 68 66 76
66 72 69 74 78 93 88 90 93 91 89 88 87 87 80 72 69 62 62 60 65 67 66 70 74 74 73 66 71 66 62 56 52 52 50 54 57 59 63 64 75 79 83
64 69 70 81 96 96 95 90 91 80 75 75 75 65 63 62 64 63 63 66 65 70 75 80 78 82 79 85 80 65 56 54 56 58 56 60 59 62 57 57 56 58 84
64 61 71 89 95 94 88 91 86 81 80 72 66 69 71 71 70 69 73 78 82 82 85 86 88 86 78 72 70 63 60 57 58 59 61 56 51 69 68 66 60 65 62
74 69 70 81 89 90 92 93 89 84 88 88 84 79 80 86 88 88 89 89 90 90 93 99 99 99 97 93 96 78 62 61 65 64 69 72 74 73 70 73 85 83 82
74 76 75 82 87 90 91 94 97 94 91 93 94 92 91 92 92 96 97 92 94 96 98 98 99 99 99 83 77 62 62 62 65 66 72 75 77 68 60 73 90 83 79
79 83 81 82 85 85 89 96 99 99 99 99 99 97 93 96 98 94 96 97 97 100 95 96 94 91 70 56 52 63 64 68 66 73 68 65 63 60 61 76 81 87 81
87 86 89 93 90 87 93 98 99 100 99 94 92 94 93 93 93 95 96 93 88 80 59 48 52 47 48 51 38 42 64 63 69 70 69 68 64 66 64 61 75 73 66
88 86 85 89 92 89 93 99 99 98 90 92 92 83 82 80 70 64 52 46 43 45 50 53 56 56 57 56 53 55 52 57 70 72 72 74 71 67 63 63 62 61 65
86 82 76 69 74 84 87 91 85 70 59 48 44 42 40 40 45 45 50 52 54 59 56 52 58 57 54 58 54 58 57 61 67 71 70 68 65 62 63 63 61 64 77
82 69 55 49 45 42 42 43 38 37 40 44 51 53 52 54 55 51 54 60 62 61 54 54 58 65 63 64 65 66 76 69 65 69 90 63 58 59 62 63 64 69 71
51 50 49 52 46 40 39 40 41 47 54 62 61 58 57 59 60 59 56 48 50 48 54 62 58 62 64 56 55 60 65 75 70 78 64 65 69 78 72 69 69 73 73
49 50 49 45 44 41 44 49 50 53 56 56 56 61 60 64 64 70 72 53 52 50 52 59 56 52 51 48 53 59 61 62 61 64 69 78 85 83 77 77 78 80 88

GFSMW_sfc_rhum_030.txt.gz
RH
37 39 38 42 44 44 46 46 62 79 94 96 96 96 94 96 98 92 87 88 79 83 84 86 66 48 42 40 35 42 40 46 52 55 54 53 56 51 52 53 52 44 42
38 38 38 39 43 40 44 47 48 64 89 94 91 93 92 94 92 92 90 86 82 85 78 66 58 45 42 38 37 45 50 48 53 50 59 50 48 49 45 52 44 44 43
39 36 39 39 40 42 41 43 46 55 86 90 94 99 98 99 99 98 96 90 84 81 69 64 54 45 41 42 38 46 46 50 49 51 53 54 51 55 48 48 46 44 49
37 41 42 43 43 40 41 41 43 48 68 93 94 95 92 95 96 92 92 94 87 85 69 66 65 45 43 43 41 42 53 50 49 52 40 47 52 46 40 46 49 49 42
38 39 40 39 42 43 45 43 41 43 49 76 93 97 94 87 94 94 94 93 90 83 78 72 71 57 60 46 46 52 49 53 55 57 55 51 55 48 43 41 48 52 53
51 50 50 47 47 52 57 53 46 44 50 69 92 95 95 93 97 99 98 97 95 91 83 75 68 68 65 66 57 53 52 51 53 57 55 55 53 52 51 49 53 52 51
53 55 55 54 52 55 55 60 58 57 55 64 92 95 95 94 94 95 96 97 97 93 81 78 76 74 73 74 72 68 62 56 52 46 50 54 52 56 55 54 59 55 61
50 56 59 59 59 57 62 63 62 56 57 66 79 94 95 98 96 95 95 95 91 87 82 74 74 72 72 72 64 69 66 55 62 47 48 55 53 55 56 57 62 62 68
48 56 62 63 59 58 57 64 64 64 64 66 76 91 97 99 98 96 94 94 92 87 82 79 76 77 71 66 62 60 58 60 65 59 51 54 58 62 59 61 62 57 57
60 74 68 69 63 60 61 66 66 64 69 79 84 87 94 96 98 97 97 96 94 85 84 78 76 78 69 61 54 50 49 50 62 61 53 53 60 60 63 65 66 65 65
77 74 70 73 68 75 82 86 87 88 89 90 91 92 97 96 98 98 97 94 87 83 79 74 74 71 66 55 50 49 48 50 53 56 55 54 56 64 68 68 70 71 72
68 73 78 81 85 82 83 89 88 89 89 89 94 96 90 98 98 93 86 88 84 76 74 71 69 62 54 47 48 49 60 66 66 67 72 66 47 59 63 68 69 69 74
70 76 79 72 82 83 89 90 88 90 88 91 95 97 95 96 95 89 78 73 72 72 69 63 57 55 55 54 55 59 66 69 76 75 75 60 55 59 63 63 67 73 60
76 71 76 79 85 91 94 92 92 90 91 92 94 96 93 93 89 79 71 68 66 65 61 57 57 60 62 67 74 76 78 79 77 78 73 66 61 63 61 60 63 65 72
74 67 68 89 95 96 94 92 86 78 83 83 86 89 86 80 74 68 65 62 62 63 63 68 71 74 76 77 84 84 83 84 79 73 65 63 61 60 61 61 72 75 82
73 66 67 84 87 90 89 86 84 79 75 77 78 71 72 70 72 72 73 73 72 75 78 79 81 84 82 83 80 76 78 78 82 90 84 69 62 63 57 56 55 65 89
78 78 73 80 90 93 91 94 91 84 80 76 78 70 73 75 76 75 78 83 86 87 89 90 89 91 90 86 88 89 92 95 94 85 67 57 53 72 68 65 62 64 62
75 77 82 84 88 88 90 90 90 86 86 84 83 82 82 86 87 89 90 91 91 92 95 99 97 98 95 94 96 98 97 94 92 75 72 73 71 72 72 76 85 82 82
79 79 78 83 86 91 96 96 98 97 96 96 94 89 89 92 92 96 98 98 100 99 100 99 99 99 100 97 89 88 70 62 62 64 68 71 74 69 61 74 92 83 80
87 90 85 85 89 94 96 96 99 99 99 99 99 97 95 96 98 99 100 100 99 100 100 100 99 98 99 91 89 64 59 63 65 73 66 65 63 59 60 76 78 84 79
88 84 86 94 92 95 96 97 99 99 99 97 99 99 97 97 98 99 98 98 98 97 97 94 74 72 54 53 45 60 63 64 71 72 71 69 63 64 65 64 74 74 67
92 82 83 89 91 88 89 99 98 99 98 92 95 97 99 98 97 96 98 87 62 50 52 54 56 56 62 63 59 55 54 62 70 71 72 75 72 67 64 64 62 61 66
85 73 73 75 77 83 83 87 75 59 52 48 47 47 46 48 48 50 54 55 57 59 56 52 60 60 55 59 56 57 57 60 68 71 71 72 64 60 65 62 60 62 81
90 67 56 53 51 43 40 40 41 42 43 47 56 56 55 57 58 54 55 60 62 60 53 52 57 65 63 63 66 65 77 68 68 75 87 62 59 61 63 63 64 70 73
66 59 60 53 46 42 41 45 49 53 59 61 57 58 57 61 62 53 49 45 53 51 54 60 56 61 65 57 57 62 68 78 67 75 65 67 72 83 73 71 72 75 75
54 52 54 51 45 42 44 53 55 56 55 54 55 61 64 69 70 74 76 56 56 54 55 56 58 53 50 49 54 59 60 62 57 65 72 84 92 87 80 80 81 83 90

GFSMW_sfc_rhum_033.txt.gz
RH
32 35 36 35 37 37 40 40 41 56 82 91 94 95 95 92 94 87 77 76 73 74 78 81 74 67 61 50 36 35 36 35 36 40 40 40 37 42 44 41 34 37 31
34 34 33 36 34 36 39 40 40 41 64 80 77 81 82 87 85 90 84 75 74 74 74 75 75 64 58 46 38 44 46 36 39 37 40 40 38 36 35 38 35 33 31
31 33 34 36 41 39 39 38 40 42 50 70 83 92 92 94 95 95 88 82 75 74 71 75 73 74 58 49 43 41 42 42 41 40 38 43 39 40 36 38 35 34 32
37 39 40 40 42 43 46 42 41 40 44 72 83 83 79 85 83 83 88 88 82 78 75 72 73 74 64 53 45 39 40 44 44 42 36 37 38 38 36 35 35 32 30
43 44 47 47 44 50 56 51 42 40 43 54 81 86 84 77 79 88 88 89 88 82 80 71 72 73 71 61 58 46 45 41 45 48 44 40 38 32 32 36 37 37 33
45 48 51 52 51 56 58 58 50 42 41 45 57 85 89 83 88 91 92 91 90 88 83 76 74 73 71 69 68 62 54 55 50 50 45 52 40 36 37 37 36 34 37
43 48 56 57 57 59 59 54 53 50 47 50 53 62 84 87 88 87 88 90 90 90 85 80 76 76 71 71 73 69 65 60 57 50 51 46 48 43 47 44 42 37 36
43 50 59 62 61 59 58 54 52 53 52 51 53 61 66 87 88 88 85 86 85 84 80 81 78 74 70 71 70 71 69 62 62 60 57 59 53 53 47 48 48 44 39
47 58 64 65 63 58 55 59 56 53 54 56 60 59 65 76 85 87 86 84 82 82 80 80 78 75 73 70 70 70 66 62 63 66 65 56 58 55 58 54 48 45 40
56 68 64 64 62 60 62 67 70 69 71 74 73 70 72 73 82 90 90 87 84 82 80 77 75 75 73 70 70 74 65 59 64 64 58 59 60 59 62 60 59 54 49
69 69 65 65 66 65 65 67 70 72 72 72 71 79 82 87 85 89 90 89 85 80 77 74 73 72 69 68 70 69 66 62 54 56 57 58 61 65 68 67 65 63 58
70 65 65 69 70 73 76 78 75 78 76 73 75 81 86 83 91 92 88 84 82 77 77 76 73 68 66 67 64 60 57 58 62 70 78 80 69 83 81 77 73 72 66
67 64 61 76 85 84 81 80 79 74 76 78 81 82 87 88 89 87 80 77 74 73 70 68 67 63 58 54 50 54 64 69 75 81 81 78 76 81 84 84 80 82 75
70 64 63 74 84 83 83 83 77 70 72 75 81 85 86 87 83 75 73 73 72 72 66 60 57 59 56 58 64 72 76 80 81 83 84 83 82 79 84 94 96 91 82
70 70 67 75 82 86 85 81 77 73 70 71 71 75 77 74 71 74 73 70 69 66 64 64 70 74 75 75 80 81 82 88 91 90 91 92 90 88 92 84 84 79 82
74 73 72 79 87 89 88 86 85 80 74 74 71 69 69 70 77 74 77 79 77 77 77 78 80 86 86 87 86 83 84 83 89 94 96 97 99 96 90 83 74 78 89
74 74 80 82 86 86 87 92 87 81 78 79 75 72 75 79 82 80 84 87 90 91 92 92 91 91 89 88 88 89 93 97 98 98 97 92 86 92 88 86 74 64 61
78 80 81 83 87 90 92 96 94 85 88 87 86 83 85 87 87 89 91 93 93 95 98 100 98 98 95 92 93 96 98 98 97 95 92 90 90 84 69 60 72 68 66
84 83 81 82 88 93 93 96 96 96 96 96 95 90 88 91 94 96 98 96 99 98 100 100 100 100 100 98 97 91 89 90 89 86 70 64 60 60 58 62 81 69 64
83 86 81 81 93 94 86 95 97 99 99 99 99 98 96 97 98 99 99 99 98 100 98 100 100 100 99 84 86 80 53 59 56 58 56 61 55 57 59 64 77 70 61
87 80 86 93 92 88 95 96 98 100 100 99 99 99 99 99 99 100 99 100 99 98 98 97 95 92 84 84 68 59 52 52 59 59 57 55 62 66 67 63 60 61 54
86 81 87 91 87 85 92 97 98 95 89 91 97 98 98 98 98 96 95 89 78 60 53 52 53 52 53 63 59 57 62 64 58 60 57 60 72 67 62 58 60 59 61
79 71 83 85 80 80 79 78 63 53 53 51 49 46 44 43 42 42 44 44 45 47 45 44 47 44 42 49 57 55 57 57 60 61 66 68 62 60 59 60 58 59 55
83 59 61 64 56 46 44 44 44 42 43 45 47 46 45 46 46 44 44 46 49 48 43 42 43 48 49 52 56 57 60 64 63 71 62 59 56 61 57 55 53 55 56
73 63 61 59 50 44 46 46 46 47 49 48 45 46 47 44 44 40 37 37 41 40 40 44 44 47 51 52 54 57 58 63 60 68 53 50 53 58 56 57 58 60 62
59 61 56 54 46 44 46 49 50 47 45 45 46 52 55 58 60 61 64 56 56 56 56 55 50 46 50 50 53 58 59 60 55 53 53 58 63 65 65 68 69 69 77

GFSMW_sfc_rhum_036.txt.gz
RH
22 23 22 22 23 24 25 26 26 27 32 48 84 91 88 87 88 83 66 60 59 57 59 53 53 55 60 58 49 43 38 34 28 30 30 30 28 31 33 30 28 30 28
21 22 23 25 23 23 25 26 26 27 27 34 48 59 70 76 76 85 85 65 64 62 62 60 60 56 59 58 54 46 42 36 34 34 34 37 33 29 32 33 29 28 27
25 28 28 30 32 31 30 27 26 26 28 30 42 56 64 71 73 81 83 80 65 64 62 65 64 59 59 60 59 50 46 43 38 32 34 39 38 34 32 36 34 30 29
31 35 36 36 37 40 41 36 32 28 27 31 36 49 61 66 61 58 67 82 77 68 65 65 65 67 63 60 58 57 46 45 45 39 32 34 34 37 40 33 33 30 28
36 38 41 43 39 44 50 44 37 31 29 30 38 47 55 51 49 54 63 69 81 80 72 69 70 69 68 62 63 56 48 44 46 46 40 37 37 33 35 37 37 32 29
35 38 42 42 40 45 46 46 38 34 36 32 32 42 54 54 54 60 70 68 74 83 77 74 72 69 69 68 67 64 61 52 48 54 52 48 42 40 39 35 35 35 33
35 40 45 45 45 48 47 43 39 37 34 35 37 34 38 50 58 59 62 66 70 83 84 80 76 71 70 72 71 71 68 72 65 57 51 44 43 36 38 34 39 35 34
36 45 48 48 47 48 46 45 44 42 38 37 38 36 40 40 46 62 63 60 55 63 71 76 76 72 68 68 70 72 74 68 69 61 57 54 50 42 52 45 56 51 43
43 48 47 46 47 48 46 49 48 46 48 50 50 46 43 46 47 50 59 68 58 62 63 70 73 77 75 72 70 75 74 74 71 67 63 58 58 51 52 51 45 60 62
48 48 46 49 50 50 49 48 49 50 50 51 48 49 53 53 55 55 63 74 65 65 72 70 72 76 78 78 77 78 73 72 80 71 65 63 57 59 58 65 62 63 58
51 49 48 48 52 54 55 53 52 57 58 55 50 52 56 59 63 72 78 78 76 76 75 73 73 73 76 76 80 80 74 71 72 76 81 81 75 70 71 71 72 76 80
52 49 48 52 58 61 59 58 57 58 56 55 54 56 58 61 70 79 77 76 77 74 76 74 74 71 72 71 74 77 73 69 68 69 68 60 63 81 85 90 88 91 87
53 50 48 52 68 74 70 65 62 55 54 56 59 61 62 64 68 74 70 68 70 71 72 72 73 71 69 69 70 68 67 64 68 76 74 81 87 91 91 92 94 96 93
56 55 53 54 66 72 71 67 63 56 57 56 59 63 67 68 66 63 64 64 66 67 66 64 64 61 60 57 58 68 78 82 84 86 87 87 86 90 94 98 100 100 98
58 58 59 60 71 71 71 70 68 64 60 60 61 63 61 62 61 62 64 62 62 60 61 66 69 70 68 68 74 79 84 87 91 90 90 94 92 93 98 97 99 98 95
60 61 62 68 71 72 76 78 75 68 61 61 66 64 62 64 69 66 68 70 69 69 80 81 81 85 82 83 82 82 88 88 90 96 98 100 100 100 97 97 94 86 89
63 64 66 71 77 83 86 91 80 69 70 71 75 72 70 74 80 79 82 87 91 91 92 92 91 92 91 88 89 91 94 98 99 99 98 100 98 97 88 88 88 87 82
66 67 71 77 82 83 89 89 86 78 82 82 80 77 77 84 86 89 93 95 96 97 97 100 98 97 94 90 92 94 99 99 99 97 91 87 87 85 82 70 70 65 59
65 72 73 76 76 77 89 92 95 96 96 94 90 83 83 91 93 96 98 98 99 98 100 100 99 100 100 98 99 99 96 87 83 76 73 63 56 54 57 57 72 58 54
67 74 73 78 79 84 81 94 97 96 98 98 97 96 95 97 99 99 100 99 98 100 98 100 100 99 100 92 81 63 66 64 55 50 50 57 50 54 57 58 60 65 57
69 74 76 77 83 85 86 95 98 100 98 96 96 96 95 97 97 100 99 100 100 100 100 100 95 89 87 76 62 53 44 45 47 46 42 43 60 64 66 64 58 57 51
72 72 76 79 79 83 84 94 95 89 87 90 89 86 86 86 86 90 96 92 71 58 49 47 47 48 52 58 58 60 59 56 45 49 46 50 67 67 63 61 57 58 58
67 67 72 76 77 80 74 77 70 65 61 59 55 46 39 36 33 32 33 34 32 35 34 37 38 36 34 47 57 56 57 56 52 53 60 66 62 59 55 52 58 61 46
64 64 65 66 68 60 57 60 55 48 37 34 33 31 31 31 30 32 31 32 32 32 30 30 30 32 35 42 46 48 48 54 54 63 58 57 57 58 55 50 43 43 44
67 58 61 62 56 49 48 46 42 31 33 33 32 33 30 27 26 29 28 27 28 30 26 31 31 33 38 47 52 53 51 51 53 63 49 39 38 42 41 43 46 49 51
67 63 60 57 51 48 47 40 34 33 30 30 33 34 36 40 43 45 46 56 55 56 55 52 45 39 48 51 53 57 59 60 55 48 37 40 45 49 48 54 57 59 67

GFSMW_sfc_rhum_039.txt.gz
RH
14 18 21 20 21 21 22 22 23 22 23 32 42 71 82 83 84 81 65 52 53 52 56 55 49 50 53 58 55 52 50 47 41 38 37 37 32 31 37 35 33 35 34
18 20 20 23 22 21 22 23 23 24 24 26 30 46 64 73 77 84 78 73 60 57 57 60 58 53 56 57 59 57 53 48 41 44 48 50 40 33 32 37 33 32 35
19 23 25 28 31 32 32 28 25 24 25 26 27 34 47 61 70 82 82 77 71 61 59 63 62 59 58 62 63 59 56 55 46 43 50 57 56 44 36 40 39 34 36
26 29 31 33 34 38 42 36 33 30 26 26 28 33 42 55 58 56 61 64 65 69 64 68 69 68 63 64 62 60 58 57 59 52 38 44 48 52 53 44 42 38 32
32 33 37 39 35 40 48 45 37 30 30 28 29 33 37 41 50 51 51 50 60 72 72 69 70 78 72 70 67 64 62 63 65 60 56 47 47 46 52 52 48 41 37
32 34 36 38 36 43 45 45 39 34 32 34 32 33 41 43 47 51 50 49 53 66 72 74 76 77 80 78 73 73 70 71 65 63 53 51 53 48 51 52 49 46 41
32 36 40 41 41 45 45 42 38 38 34 33 34 34 34 36 42 48 50 52 53 63 79 84 84 82 78 78 76 78 75 76 73 63 60 53 52 53 45 53 51 50 44
33 41 44 43 43 45 45 43 43 42 41 41 40 37 37 37 37 36 40 50 50 48 54 75 82 83 82 81 80 81 80 77 79 75 74 71 66 74 72 66 60 55 49
38 43 43 42 44 45 45 45 44 43 43 44 44 41 40 43 45 44 42 44 48 52 52 57 71 82 82 83 85 87 86 84 82 83 80 76 75 70 66 65 67 70 77
43 44 43 43 45 47 47 47 45 46 48 49 46 44 46 47 49 50 51 53 58 58 58 70 78 84 86 87 87 90 89 87 87 88 85 81 74 76 76 76 70 76 79
46 46 44 43 47 49 50 50 49 52 51 49 47 47 48 49 54 59 64 70 72 72 76 79 82 81 87 86 90 92 92 92 92 89 86 84 86 95 96 96 96 96 94
48 46 45 44 50 56 56 54 54 54 51 50 50 51 52 53 55 63 68 69 71 72 74 74 75 76 80 81 86 90 89 92 88 87 89 89 82 88 90 92 94 91 92
48 47 45 46 53 62 62 62 58 54 52 53 54 55 57 59 60 60 59 60 64 66 66 69 72 73 75 77 79 79 83 85 84 84 82 82 87 94 93 93 95 97 95
50 50 50 49 56 64 66 68 66 59 57 56 56 58 60 61 59 58 58 57 58 60 60 59 60 61 59 62 70 76 82 84 85 87 87 87 88 93 95 98 100 100 98
52 53 55 54 59 63 68 72 71 63 57 57 60 62 60 62 61 61 62 63 64 62 61 63 64 65 69 71 79 83 86 90 93 92 92 93 91 90 92 94 99 99 97
55 55 55 61 67 72 75 78 76 67 64 62 66 64 64 67 70 69 69 74 76 75 76 74 72 77 78 80 81 85 90 91 93 98 99 100 98 98 91 92 95 97 99
57 58 61 68 75 79 80 83 79 70 71 70 71 69 70 76 80 80 87 92 93 92 93 92 89 92 89 86 88 90 95 99 100 99 99 100 99 99 99 96 95 92 82
59 60 65 70 72 71 83 86 85 80 75 73 73 72 75 79 83 87 92 95 96 97 97 98 98 97 95 93 93 97 99 98 99 99 99 98 98 93 79 72 78 74 71
58 63 66 68 74 77 80 90 95 96 95 93 86 82 82 88 94 96 99 98 98 98 99 99 98 99 100 96 97 98 99 98 96 91 83 71 60 63 62 63 83 70 64
62 66 67 72 74 76 80 94 96 96 97 96 96 95 89 96 99 99 100 99 98 100 98 99 99 92 99 88 83 77 72 69 55 51 54 54 54 53 55 64 64 72 66
65 67 67 75 78 76 87 95 96 100 97 95 92 89 85 89 97 99 95 99 98 97 98 99 93 95 82 66 60 52 48 48 48 48 46 50 59 64 64 66 67 66 61
68 67 71 76 79 78 82 91 94 88 84 81 82 82 82 80 84 90 96 92 69 50 44 44 48 52 52 58 56 62 60 56 50 54 52 57 66 67 65 65 58 59 58
64 63 70 72 73 74 71 78 75 65 63 62 57 49 40 35 32 32 32 34 32 35 35 39 38 36 37 46 56 58 58 56 59 59 66 64 62 59 55 45 54 58 58
62 62 65 68 73 66 64 61 62 55 44 35 32 30 29 29 29 34 35 34 34 34 33 33 34 35 37 44 49 51 53 50 55 56 67 60 60 50 52 51 44 48 48
60 61 63 64 65 57 56 53 48 32 32 32 33 32 31 25 28 37 34 33 37 39 31 38 37 39 41 52 56 58 58 60 59 63 57 47 39 45 44 46 50 54 56
65 62 64 62 58 52 51 49 36 31 31 30 36 36 37 40 43 44 48 58 57 56 55 53 53 43 49 53 55 56 61 61 60 57 45 41 48 52 49 53 59 66 71

GFSMW_sfc_rhum_042.txt.gz
RH
21 27 28 27 27 28 31 32 33 34 38 45 65 95 97 95 94 85 82 86 65 68 74 68 68 71 76 76 72 76 71 72 63 54 52 52 42 43 55 52 52 50 48
25 28 28 35 36 36 38 37 35 35 37 41 44 60 88 89 86 90 81 81 87 80 76 77 77 72 72 76 74 73 78 73 65 58 64 64 57 48 43 56 48 49 50
26 31 35 44 46 51 52 44 42 40 38 38 42 47 53 91 94 94 92 84 80 87 86 72 86 86 79 77 78 80 73 73 71 56 68 78 72 59 51 46 57 47 52
37 38 41 47 51 57 61 57 48 42 38 37 41 45 53 61 82 88 87 89 84 84 82 84 80 80 92 86 87 87 81 77 64 69 54 67 62 61 57 52 54 50 44
41 43 49 52 50 58 63 62 56 49 43 45 43 48 50 53 55 71 80 87 86 86 86 84 86 86 85 89 95 93 85 72 72 68 86 82 65 64 68 65 55 53 50
44 45 47 52 52 60 62 62 56 50 50 48 48 48 51 55 58 68 78 77 74 89 90 86 81 86 92 88 86 91 91 84 79 76 90 82 78 75 75 78 66 55 55
44 49 58 58 59 64 62 57 56 56 53 56 54 53 56 56 56 55 60 60 69 84 93 92 89 84 86 94 93 94 92 85 84 88 80 81 82 80 70 74 69 64 60
48 54 58 59 59 59 61 60 59 58 57 59 61 60 58 63 62 62 64 62 65 68 69 94 95 94 93 91 95 93 92 91 88 85 89 86 90 89 90 86 90 89 77
52 58 57 57 60 63 63 64 62 60 61 62 65 62 61 65 69 67 68 69 72 71 77 85 92 93 93 94 95 96 96 95 92 90 92 91 91 91 89 88 90 87 93
55 58 57 56 59 64 66 64 62 65 65 64 64 60 64 66 72 78 87 89 88 84 89 91 92 91 93 95 96 97 96 98 98 98 97 96 92 91 90 87 86 92 93
60 60 58 57 61 67 68 68 67 68 67 66 66 69 71 70 77 87 88 84 74 73 78 86 89 84 88 92 96 97 96 97 98 98 98 94 89 93 94 96 96 98 98
58 58 57 56 66 73 73 74 73 71 68 66 68 72 74 77 68 78 82 78 68 76 76 77 78 78 81 86 89 94 93 96 96 95 94 94 87 96 95 95 95 96 97
59 59 59 60 72 77 78 77 77 75 70 69 71 72 76 78 74 79 74 73 79 80 76 74 70 71 74 79 82 86 90 89 91 91 91 92 91 96 96 95 97 98 97
57 61 65 66 73 74 73 75 78 74 74 71 73 77 80 80 79 77 76 76 74 75 75 74 74 75 76 78 84 84 85 88 89 89 90 91 91 94 95 98 100 100 98
60 62 66 74 76 72 74 76 74 70 68 75 78 79 78 80 80 81 84 82 80 80 81 81 84 83 80 81 87 89 89 91 94 93 93 95 93 88 90 94 99 99 98
61 62 65 73 71 78 77 74 78 73 71 71 76 70 77 75 81 80 82 92 90 89 84 84 84 87 82 81 83 92 94 93 97 98 99 100 98 92 89 94 95 92 98
64 66 76 81 74 78 81 88 84 76 74 74 75 74 75 79 83 87 89 93 97 97 97 96 93 92 90 87 89 92 96 98 99 100 100 100 98 99 99 97 96 94 85
64 71 79 82 73 78 85 88 90 88 85 83 78 78 79 85 89 93 96 97 97 97 97 98 98 96 93 90 89 90 96 97 99 99 99 99 98 98 92 92 93 86 81
73 78 79 80 75 75 86 89 96 97 94 93 88 86 86 96 97 99 98 98 98 98 99 98 98 100 99 87 86 94 97 98 98 96 94 91 91 81 66 72 90 81 79
74 80 80 74 74 78 92 95 97 97 97 94 94 93 97 98 99 99 100 98 96 99 97 99 97 86 96 70 63 76 90 93 88 72 66 52 57 54 56 76 82 86 77
77 78 82 78 80 83 91 95 98 100 96 90 90 88 89 96 97 99 92 98 93 94 98 98 97 93 87 75 62 54 69 63 60 58 60 71 61 65 66 66 84 75 74
80 79 85 82 81 85 87 93 95 90 85 85 86 88 88 85 90 98 98 99 94 74 65 65 67 69 75 60 60 60 58 63 69 68 76 84 68 65 64 67 61 59 61
80 79 79 82 79 82 81 89 86 80 73 76 81 76 68 68 70 60 52 54 49 52 51 52 56 51 46 63 51 54 56 59 72 78 67 62 61 59 61 52 51 56 71
78 78 83 90 92 88 83 84 78 73 74 50 43 42 41 42 43 46 47 49 50 48 43 42 47 51 50 65 75 71 79 69 71 72 85 62 53 42 46 49 50 56 60
76 74 80 84 88 83 79 77 76 62 45 44 47 46 43 38 57 75 78 57 65 61 49 60 55 58 68 69 60 63 71 78 69 70 73 65 50 61 56 57 59 65 67
76 72 76 75 73 67 66 70 55 43 44 44 48 51 52 57 64 73 75 57 58 54 54 52 59 62 50 53 57 57 60 62 62 69 68 62 77 77 65 68 75 85 75

GFSMW_sfc_rhum_045.txt.gz
RH
25 31 31 32 30 34 36 39 37 37 42 56 91 97 96 96 98 96 90 95 94 83 75 72 78 85 87 83 84 87 77 73 68 60 57 57 51 50 59 60 61 65 66
32 33 39 42 46 49 50 47 44 42 41 46 50 79 96 97 91 95 93 87 93 95 93 78 82 87 84 88 90 88 89 79 71 71 63 57 56 53 46 60 55 57 58
30 41 49 51 55 58 61 58 53 47 45 42 44 49 60 92 97 97 97 95 93 92 94 96 94 93 92 88 86 91 88 85 91 74 73 81 70 65 57 46 62 58 58
41 47 51 52 58 64 64 63 60 57 45 44 45 49 53 59 86 96 95 95 94 91 90 93 95 92 90 88 91 90 88 93 87 91 57 82 71 66 65 67 61 67 53
49 52 54 49 59 62 66 65 60 54 54 51 51 53 54 58 63 67 81 96 95 94 91 90 93 97 95 92 90 96 96 89 90 81 91 90 81 70 73 75 82 78 68
50 56 54 55 62 63 62 62 58 56 57 60 60 61 62 63 62 62 66 71 88 94 95 92 94 95 97 96 96 94 95 91 87 88 93 90 84 77 85 89 91 87 78
54 60 64 63 63 64 63 58 62 61 62 64 63 65 68 70 71 69 70 67 70 83 90 95 96 96 94 94 97 97 96 95 93 86 83 80 83 87 83 80 79 82 80
58 66 64 66 66 67 69 68 67 66 66 69 70 70 68 74 75 76 77 81 86 92 91 94 94 95 94 94 96 98 98 98 97 92 90 86 85 90 84 84 85 93 86
61 65 64 65 68 72 72 71 69 69 69 69 70 71 72 73 81 90 93 95 93 80 92 94 93 91 96 97 96 97 98 98 98 96 94 94 92 93 92 94 94 82 91
65 64 63 64 74 74 75 74 72 71 71 71 73 71 78 80 89 92 92 92 91 89 92 93 93 93 93 95 97 98 98 99 99 98 98 98 97 96 97 96 95 97 92
67 67 65 70 75 77 78 79 79 74 74 72 74 81 84 84 78 85 92 90 86 88 89 90 91 92 93 94 95 96 96 97 98 98 98 98 96 97 97 97 98 98 98
64 63 62 76 82 83 83 85 82 81 75 72 74 79 81 78 68 71 81 83 83 77 78 75 74 71 76 79 88 92 92 96 97 95 95 95 89 94 94 96 97 98 98
63 64 64 78 83 85 85 84 84 80 76 76 77 81 83 83 86 86 82 78 80 80 77 76 78 78 76 76 78 80 85 89 91 92 93 93 92 96 97 97 98 99 99
63 67 73 81 85 86 84 80 75 77 79 79 82 87 88 88 89 88 86 85 84 83 84 85 85 86 86 88 89 89 89 89 90 91 92 91 92 95 97 99 100 100 99
65 68 75 83 86 86 82 76 75 74 72 81 81 80 80 88 90 91 94 93 92 81 78 84 84 84 83 86 96 96 96 97 96 96 94 95 90 88 90 94 100 99 98
65 68 74 79 86 84 77 79 82 74 72 74 78 74 76 79 84 85 84 89 89 92 94 93 88 93 80 83 88 94 95 95 97 98 99 99 99 94 91 93 90 93 99
67 72 80 84 82 86 84 89 86 80 80 77 78 77 80 86 88 90 93 96 97 97 95 93 92 92 87 84 88 94 97 98 99 100 100 99 98 99 99 98 97 96 93
69 77 86 86 85 83 88 90 87 84 83 83 83 81 87 91 94 96 97 98 98 97 97 98 98 97 89 86 86 89 96 98 98 99 98 98 99 96 95 94 94 91 82
75 81 84 85 77 84 89 92 94 92 92 92 90 89 93 96 97 98 99 98 98 96 98 98 98 99 98 77 81 93 97 98 98 98 93 90 91 74 58 76 88 82 78
77 84 86 84 77 91 89 94 96 94 95 96 95 96 97 97 99 98 100 97 97 98 93 94 98 80 96 58 58 83 91 89 89 85 70 54 64 60 61 88 86 89 82
82 82 85 88 88 96 90 96 98 100 94 89 90 92 93 95 95 98 96 95 97 98 98 97 96 94 82 77 62 59 72 65 64 65 68 77 63 65 66 65 84 80 76
84 85 90 85 87 90 88 94 95 91 87 87 90 90 94 92 92 95 96 99 93 77 76 76 74 71 76 59 59 56 58 65 72 73 84 86 65 62 61 62 58 54 62
82 84 90 84 82 86 85 90 87 82 78 90 92 93 93 95 95 93 89 70 63 58 55 55 58 51 48 62 57 56 55 61 70 77 71 62 59 58 60 54 50 51 66
84 84 86 90 85 81 79 81 84 90 85 87 72 49 47 48 49 48 51 53 54 52 45 44 50 56 59 78 79 74 81 68 69 69 82 64 59 45 46 51 52 57 62
79 79 82 86 87 89 90 89 84 84 86 51 48 49 50 49 74 79 57 59 67 57 50 61 57 57 70 68 60 63 70 80 69 70 69 66 54 65 59 60 65 74 75
80 81 80 80 82 81 82 81 79 78 53 50 54 54 52 53 71 81 79 58 59 53 53 56 60 61 54 54 56 58 60 62 61 71 69 71 82 82 67 71 76 84 87

GFSMW_sfc_rhum_048.txt.gz
RH
36 36 36 36 42 44 42 41 39 42 67 92 96 97 94 96 97 97 92 95 94 91 85 86 89 94 92 86 90 90 92 84 75 56 54 55 54 55 64 66 79 83 77
36 41 47 51 50 53 52 51 48 46 42 48 55 86 96 97 96 95 96 95 96 96 95 92 89 91 84 94 95 94 94 93 88 82 63 59 58 55 48 63 61 70 76
36 47 56 57 59 62 65 62 62 57 50 44 46 50 55 87 98 98 98 96 95 94 96 96 96 94 91 89 93 95 95 91 96 91 86 76 73 71 62 53 59 63 70
39 53 56 58 62 69 72 66 63 58 53 53 52 49 52 56 72 93 96 96 95 96 95 95 97 95 95 93 94 93 93 97 96 96 82 91 77 71 77 68 64 71 64
54 58 56 56 65 69 72 69 62 60 62 61 62 64 62 61 64 66 67 74 84 95 96 95 95 97 97 96 94 96 97 96 91 95 94 96 94 88 82 79 82 89 79
61 62 62 66 67 66 67 66 64 67 68 70 71 73 76 77 74 71 70 72 74 84 91 96 97 96 98 98 97 96 97 96 95 95 93 84 88 80 84 88 92 86 81
65 69 70 70 70 71 69 64 68 70 71 72 73 74 75 80 82 79 80 80 86 94 96 95 97 99 98 97 97 98 98 98 98 96 92 87 81 90 86 88 92 92 86
66 72 71 73 73 73 76 74 74 74 72 73 73 75 75 78 82 87 92 96 96 96 94 95 95 96 96 96 96 98 98 98 98 97 94 91 89 90 87 85 90 97 94
67 73 71 74 81 81 80 78 76 75 74 75 77 80 84 84 91 93 94 95 94 84 93 94 93 94 94 97 98 98 98 99 99 99 97 94 92 95 94 90 93 92 98
70 71 72 82 82 80 83 82 77 77 76 76 79 81 88 94 93 94 94 93 94 93 94 94 94 94 95 96 97 97 96 98 99 99 99 98 98 97 98 97 97 98 96
73 72 74 82 82 84 85 84 81 77 76 75 78 86 84 82 82 88 91 93 84 82 81 86 89 91 93 95 96 96 96 98 97 95 99 98 96 98 98 97 97 98 99
68 69 76 84 87 91 89 88 84 81 78 78 81 85 84 85 83 86 84 83 81 79 80 79 79 82 86 88 92 94 94 92 94 94 95 95 90 95 94 96 96 97 98
68 69 80 84 89 92 90 88 86 84 81 80 86 88 89 91 92 91 87 83 84 85 84 84 86 87 88 90 92 86 86 87 89 90 92 93 92 95 96 96 98 99 98
68 71 83 87 90 90 89 87 83 80 83 84 90 93 93 94 95 94 94 92 89 89 92 93 94 94 93 93 94 95 96 95 91 91 92 92 93 95 97 99 100 99 99
69 71 82 91 92 91 89 85 81 74 74 84 86 85 84 92 93 95 93 96 97 96 95 94 92 90 81 85 97 97 98 96 97 97 97 97 91 86 90 94 100 99 99
69 71 77 83 89 91 87 83 82 76 74 77 80 77 79 81 86 85 88 89 90 88 89 87 81 86 80 83 89 93 94 95 97 98 98 99 98 97 90 91 93 94 99
70 75 80 87 91 92 88 89 85 80 80 79 79 80 83 88 91 93 95 96 96 94 95 95 94 92 88 84 89 95 97 98 99 99 98 97 93 96 98 94 94 96 93
71 78 86 90 91 92 93 93 86 84 83 84 83 85 87 92 96 97 97 97 97 96 97 98 96 96 87 83 85 90 97 98 100 99 99 99 98 91 90 96 92 89 86
75 83 87 87 92 92 90 91 92 92 91 90 89 89 94 96 97 97 98 98 96 96 98 98 96 96 92 69 74 91 98 98 98 95 91 85 85 59 60 84 91 88 80
79 84 85 85 86 89 89 92 94 93 95 94 94 96 97 97 98 98 99 96 93 98 95 98 99 81 94 59 64 75 82 84 80 72 65 65 69 64 66 87 89 88 85
82 83 85 87 93 96 91 95 97 100 94 90 92 93 94 94 94 96 93 94 96 94 94 94 94 91 80 80 59 59 72 65 66 69 72 78 66 66 63 62 82 82 77
86 85 90 91 96 95 88 94 98 93 90 89 91 92 86 85 86 92 96 99 94 91 93 88 77 67 73 58 56 55 57 65 71 74 82 85 64 61 59 61 54 51 60
85 85 90 90 94 94 93 88 89 85 84 84 88 96 97 98 98 99 98 96 87 68 65 60 59 51 48 64 64 61 62 66 74 76 72 65 62 60 59 54 49 54 63
85 84 88 88 89 90 91 88 82 77 87 94 94 94 93 87 82 67 59 60 60 57 49 45 49 57 57 76 77 72 80 68 69 69 81 60 58 47 49 54 56 59 63
82 82 84 86 84 82 90 89 88 92 94 92 81 56 52 57 56 57 51 51 59 50 48 53 54 57 67 65 62 64 70 80 72 70 69 62 56 71 62 65 69 78 82
85 86 85 82 82 80 83 88 87 89 92 74 54 58 60 57 73 86 85 59 63 52 53 59 59 59 57 54 55 57 59 62 62 73 70 71 85 85 71 73 76 83 88

GFSMW_sfc_rhum_051.txt.gz
RH
37 44 42 41 45 46 46 47 53 46 88 97 97 97 96 97 98 97 93 94 94 88 86 83 89 95 92 88 91 94 93 95 86 74 69 62 54 58 58 66 80 93 90
41 47 49 51 49 53 53 51 50 49 47 57 67 94 97 97 97 96 96 95 95 96 97 94 92 92 90 96 96 96 96 97 95 94 84 76 71 61 54 62 60 70 91
39 49 58 59 63 65 65 64 62 57 53 48 50 52 54 78 97 97 98 97 96 96 97 97 98 96 95 94 95 96 96 94 98 94 93 79 80 81 68 60 61 63 85
43 53 58 66 68 73 75 69 63 61 59 57 55 50 52 54 63 77 86 77 91 96 97 97 98 98 98 97 95 94 95 98 97 98 92 91 75 79 77 72 63 66 70
44 56 61 62 72 76 74 69 67 68 70 69 65 67 66 65 65 66 63 64 68 74 90 97 98 98 99 98 97 97 98 98 95 97 96 92 95 87 93 93 88 86 91
58 65 66 74 75 75 74 73 71 73 74 74 75 75 77 79 77 76 75 78 78 92 94 94 98 99 99 99 98 97 97 98 98 97 96 92 93 95 93 91 84 83 83
70 74 79 78 76 76 75 72 74 77 76 76 75 77 79 83 84 85 87 88 94 96 95 95 96 98 98 99 99 99 99 98 98 98 98 95 92 93 93 91 91 96 92
79 78 79 81 80 79 80 79 77 77 76 78 79 82 84 85 92 93 96 96 96 96 94 95 94 95 96 98 98 99 99 99 99 99 99 98 95 95 92 93 97 98 95
75 79 80 82 87 85 84 82 79 78 78 78 84 90 93 91 94 93 94 96 96 86 94 95 95 95 96 97 98 98 98 99 99 99 99 99 97 97 96 96 94 94 99
78 80 81 88 88 87 89 83 80 79 79 80 88 88 92 93 94 95 95 94 91 87 90 94 94 95 95 96 97 97 97 96 98 97 99 99 98 98 98 98 98 98 99
77 78 85 88 88 91 90 88 84 80 80 80 88 90 89 85 83 89 91 84 80 80 81 82 87 90 91 94 96 96 96 96 93 94 96 95 94 97 97 97 97 98 99
73 74 85 88 90 92 91 90 88 85 83 82 89 88 88 88 88 88 87 84 84 84 85 85 86 88 90 94 95 95 95 96 96 92 93 93 89 94 94 95 96 96 98
70 72 84 87 92 93 93 91 88 87 86 87 92 91 94 94 95 96 92 87 88 92 92 93 93 92 92 94 95 96 95 88 89 92 93 93 92 94 96 96 98 99 96
70 72 80 85 91 92 91 89 86 86 86 90 93 95 96 96 97 98 97 96 95 96 96 96 95 94 95 95 96 97 98 97 94 95 96 96 93 94 96 99 100 99 99
76 74 84 92 94 92 90 87 86 80 76 87 93 93 91 92 93 88 86 92 97 96 95 89 80 80 80 88 92 90 89 91 97 97 97 97 93 84 89 94 100 99 99
71 74 81 88 91 91 89 88 85 76 76 79 82 79 81 83 85 86 86 88 88 87 87 87 80 86 78 86 90 92 96 97 97 98 98 96 95 94 86 86 83 91 97
71 74 77 82 89 92 90 94 86 81 81 81 81 82 84 89 92 91 91 92 94 93 95 94 92 92 83 85 92 93 95 98 98 98 98 94 92 91 94 82 79 78 74
74 77 82 88 89 90 94 94 89 84 84 85 85 86 88 93 95 97 97 94 94 95 96 96 95 94 81 80 85 90 97 99 99 100 99 98 96 90 93 89 89 89 80
78 82 85 88 92 96 96 95 91 90 90 90 89 90 92 97 97 97 98 94 96 96 98 96 90 91 92 68 72 89 97 96 96 89 82 77 81 64 74 84 90 88 81
78 85 87 92 95 97 96 95 93 93 94 93 94 93 96 97 98 98 100 95 94 97 96 98 100 80 94 62 61 70 73 73 67 67 67 69 72 64 64 86 88 89 87
84 84 84 89 93 96 95 94 95 100 93 91 94 96 95 95 95 96 94 93 92 92 95 96 96 88 84 81 58 64 71 65 68 70 77 78 67 63 61 61 79 78 77
87 86 89 90 94 95 94 96 97 93 89 91 93 93 91 85 87 92 96 99 99 99 98 92 81 65 69 63 60 55 57 65 68 73 77 83 70 61 58 56 54 54 64
87 84 88 93 97 94 91 93 95 96 92 92 94 97 86 86 86 96 99 96 89 76 73 66 64 52 46 62 66 61 62 64 74 77 72 64 59 64 63 52 51 56 64
86 85 89 92 97 94 91 87 92 90 87 88 96 98 99 99 99 96 89 85 77 65 55 50 50 55 53 68 76 72 78 69 68 68 82 61 53 50 52 55 58 64 68
88 84 84 86 85 88 92 92 90 91 95 94 96 96 93 92 75 64 61 57 57 53 49 50 48 55 58 62 65 69 72 80 72 73 72 62 57 72 63 66 71 78 81
88 89 90 91 87 83 88 87 88 91 94 96 93 79 63 65 61 70 80 57 55 62 56 50 55 52 54 55 54 56 57 60 62 76 77 73 82 85 66 71 75 82 86

GFSMW_sfc_rhum_054.txt.gz
RH
39 38 41 44 48 48 61 81 94 88 96 98 98 98 98 98 98 97 95 95 92 87 91 91 96 96 94 89 94 96 95 97 95 84 91 78 69 64 59 62 71 83 95
41 42 47 52 48 51 52 51 52 49 66 89 94 97 97 97 97 97 96 95 96 96 96 94 93 95 96 97 97 97 98 98 97 96 90 91 85 71 61 64 62 67 93
43 46 54 55 62 62 62 60 60 56 53 50 52 55 56 70 94 97 98 97 96 97 97 98 98 97 97 96 96 97 97 96 99 94 95 89 88 80 78 64 66 65 82
44 49 56 66 67 74 76 68 63 62 60 59 55 51 53 54 61 67 69 63 69 82 95 98 99 99 99 98 97 96 96 98 98 99 93 92 80 92 94 73 59 60 66
43 48 57 63 76 81 76 73 72 72 73 70 68 69 69 71 73 71 69 70 74 81 89 93 96 98 99 98 99 99 99 98 97 98 98 96 95 90 93 95 92 80 80
44 49 65 76 84 82 79 77 76 78 77 77 77 76 77 81 79 79 78 81 83 95 93 93 96 93 91 94 95 99 98 98 98 98 98 94 95 96 97 98 95 93 90
50 69 78 85 83 81 81 78 78 79 77 77 78 78 80 83 84 86 88 90 95 96 96 95 96 97 97 97 99 99 99 99 99 99 99 97 96 94 93 94 96 97 92
70 71 82 85 83 81 82 82 81 81 79 79 81 87 87 87 93 94 96 96 97 97 96 96 95 95 96 97 98 99 99 99 99 98 99 98 98 97 96 96 97 99 98
82 87 88 88 89 88 87 85 82 83 82 84 89 91 96 94 95 94 95 97 95 84 94 95 95 96 96 97 94 97 98 98 99 99 99 99 98 98 98 97 97 99 99
84 87 89 91 91 90 90 86 82 81 82 85 91 89 93 94 95 96 95 89 86 84 86 90 93 92 94 96 96 95 95 93 95 96 94 95 97 97 98 98 98 99 99
85 86 91 92 92 93 91 88 85 82 83 86 91 92 93 89 89 92 91 88 85 85 86 88 91 93 95 95 96 97 96 91 92 94 94 93 92 96 96 96 96 97 98
82 85 93 93 94 94 93 91 90 87 86 87 91 93 93 93 94 93 93 89 90 90 91 90 90 92 94 96 96 96 96 96 96 95 91 92 87 94 94 95 95 95 98
82 86 92 92 94 94 93 92 90 88 88 90 92 94 95 96 97 97 94 92 94 96 96 95 95 95 95 96 97 97 97 97 97 97 97 97 95 98 98 96 98 98 95
79 87 92 92 93 93 93 92 90 87 90 93 94 95 96 97 98 98 97 97 96 96 96 94 87 92 97 96 94 92 91 91 92 94 96 96 96 97 98 98 100 98 98
83 82 89 93 94 95 93 88 87 86 86 91 93 95 95 94 94 86 88 94 96 94 84 81 82 82 86 87 89 89 93 95 94 94 93 93 90 84 88 94 100 100 99
73 80 85 92 94 94 94 90 88 82 82 82 85 82 83 84 86 85 86 88 87 88 87 86 83 86 82 85 84 92 94 92 94 97 98 93 87 85 79 81 82 86 96
72 75 81 89 93 93 92 95 90 84 83 82 83 83 85 90 92 89 89 91 94 93 94 94 89 85 85 86 90 91 93 96 96 96 97 95 90 91 91 78 77 76 71
76 79 82 87 89 90 93 94 91 90 85 86 87 87 89 94 94 93 93 94 94 95 94 94 92 90 80 79 84 88 97 99 99 99 98 95 94 91 90 90 89 88 79
77 80 84 90 92 94 95 94 95 92 90 90 91 90 91 97 96 96 96 94 96 96 97 92 93 92 93 68 72 88 96 94 92 80 84 82 85 66 73 83 90 84 81
81 85 89 93 95 97 96 96 96 92 93 92 93 93 94 97 98 98 100 95 94 98 94 98 100 81 93 60 60 68 68 70 65 71 73 68 73 63 62 86 84 83 84
87 88 89 93 95 97 96 97 97 100 92 90 93 95 95 96 96 96 95 96 94 97 98 98 96 88 84 83 57 66 69 65 67 71 76 76 66 60 59 65 72 74 78
92 90 92 94 96 95 96 98 98 95 90 92 95 96 93 87 88 94 96 97 92 93 96 97 85 70 67 62 65 55 60 68 70 73 76 83 64 61 60 58 50 54 58
90 88 91 94 96 94 93 98 96 96 89 92 93 93 89 87 87 94 95 98 98 92 85 70 68 56 44 56 65 63 58 62 73 76 72 65 56 58 60 52 51 56 65
88 86 90 93 97 97 96 92 95 95 92 94 96 95 92 91 92 93 88 90 92 78 62 57 56 55 51 55 73 70 78 68 67 68 88 66 53 50 54 56 60 68 76
84 82 83 85 86 90 90 88 94 95 96 96 96 99 97 92 98 94 89 80 71 65 54 54 48 52 53 52 63 70 72 80 71 76 78 70 57 68 58 63 68 75 78
90 90 91 92 89 88 88 88 89 91 94 97 96 97 97 96 85 73 62 61 57 55 55 53 50 48 47 51 56 55 56 56 61 79 83 83 79 77 62 64 68 77 84

GFSMW_sfc_rhum_057.txt.gz
RH
39 34 33 33 34 47 66 79 80 80 82 86 85 85 82 83 85 81 76 75 71 72 76 75 77 79 76 72 73 75 80 79 82 81 73 70 65 62 58 55 58 55 52
38 36 34 36 37 39 49 57 74 74 82 85 84 84 84 83 80 84 80 77 79 80 82 80 78 77 77 78 78 82 82 86 88 85 82 86 65 61 57 53 51 50 48
39 35 35 40 48 48 49 49 48 47 48 57 54 55 55 61 80 86 86 82 75 87 88 88 88 88 87 86 84 86 87 89 90 86 87 90 77 70 62 54 52 48 48
40 38 40 45 53 56 62 58 56 52 51 48 45 44 48 49 52 54 55 52 53 54 65 84 92 95 96 96 93 88 89 91 94 94 90 87 80 93 94 74 54 50 46
42 38 41 48 56 69 68 65 63 62 62 58 54 54 54 56 60 58 58 60 63 77 78 78 82 86 89 88 90 90 96 95 95 95 92 90 91 88 95 96 81 78 70
39 38 42 57 65 72 71 71 67 68 67 65 63 63 64 63 63 64 63 64 68 80 78 79 80 83 83 81 85 84 93 97 97 93 93 92 94 89 96 98 94 91 82
46 43 56 65 72 73 73 70 66 68 65 64 64 64 66 66 68 70 72 73 75 78 84 82 82 83 84 86 89 94 95 94 98 96 96 93 91 88 86 87 90 95 85
44 50 56 67 70 73 72 69 67 69 66 65 67 70 72 71 74 81 82 80 80 81 80 82 81 82 82 85 85 94 97 98 99 98 96 95 95 96 94 86 91 97 95
48 56 72 73 72 73 72 69 67 68 67 68 70 74 80 80 83 84 83 80 76 69 76 78 80 79 82 85 84 87 93 95 96 98 98 98 97 95 97 94 92 97 96
69 78 77 76 76 74 74 70 67 66 68 70 72 75 79 81 83 82 77 72 70 70 73 76 77 78 81 83 85 88 85 86 90 89 85 87 88 91 94 94 94 96 96
78 79 80 79 78 78 74 72 69 69 69 71 74 75 75 74 75 74 74 71 70 72 74 76 77 78 79 80 83 85 85 86 85 84 83 85 86 90 89 89 88 89 92
78 78 81 82 82 80 77 74 73 71 70 73 75 77 77 77 76 75 75 73 74 76 76 75 76 77 79 78 79 81 80 80 81 80 82 84 79 83 83 84 85 88 91
78 81 83 82 81 81 80 78 77 73 73 77 77 80 80 80 81 80 77 77 79 80 79 77 78 80 82 82 82 84 84 85 83 81 79 81 80 84 85 85 88 89 88
75 79 83 81 81 83 81 80 78 74 77 81 81 82 83 84 85 84 83 82 80 81 80 78 79 84 88 86 87 87 89 88 90 91 88 82 81 84 87 90 94 95 92
77 77 80 80 82 84 84 81 78 77 78 83 84 84 85 86 83 83 84 82 81 78 76 78 80 81 82 81 86 87 87 87 88 86 84 85 87 84 83 85 91 91 93
69 71 76 81 83 84 84 82 80 78 78 80 80 80 82 81 82 83 84 84 84 82 82 80 81 83 80 80 86 84 84 86 91 91 89 80 79 78 74 78 76 78 85
63 73 73 76 79 81 82 84 82 77 80 80 79 79 82 85 88 87 87 89 91 90 90 86 83 86 84 85 86 86 80 86 93 96 97 86 78 79 80 72 72 72 71
65 70 72 78 80 81 84 86 84 82 82 82 81 83 86 91 91 91 92 93 92 92 90 89 86 84 79 82 81 83 93 94 91 86 86 88 87 84 75 73 73 69 70
55 63 70 74 79 81 84 86 88 87 86 85 85 86 88 94 93 93 95 93 96 93 92 86 85 90 89 69 71 82 84 81 72 69 68 66 66 64 68 66 72 58 64
73 75 78 81 82 85 86 89 89 89 89 86 88 88 90 94 96 95 99 93 92 100 88 94 93 82 87 62 62 64 49 50 49 55 56 65 63 60 68 66 56 60 62
81 84 83 84 85 89 88 92 92 98 88 85 89 92 93 95 96 97 93 97 95 94 94 93 88 81 73 68 66 63 51 51 53 55 57 61 65 59 56 67 51 58 61
89 87 88 90 92 91 89 93 94 89 86 89 92 95 94 90 89 93 96 93 88 86 82 78 70 60 52 59 63 58 68 66 58 58 59 64 59 56 60 54 48 60 50
86 85 87 92 93 91 87 93 88 88 86 88 93 93 89 86 85 87 88 93 89 83 78 67 58 46 38 42 59 60 60 61 63 60 64 62 56 52 51 50 51 54 49
86 84 87 89 93 92 89 85 89 87 87 90 92 90 89 88 86 86 89 85 82 71 57 54 52 49 40 41 50 56 59 62 59 62 68 63 54 49 49 47 50 53 57
84 82 82 82 84 89 88 85 88 88 91 90 90 89 87 87 90 90 80 74 71 63 53 50 44 44 44 40 47 58 60 62 63 68 69 63 56 49 44 46 50 54 55
84 86 86 86 87 89 89 90 88 87 88 92 93 94 94 93 94 90 81 77 72 66 64 54 46 40 40 45 54 62 60 57 57 70 70 69 61 58 49 48 48 51 58

GFSMW_sfc_rhum_060.txt.gz
RH
29 32 28 24 23 25 56 60 67 68 67 71 68 67 65 61 61 56 60 58 55 55 58 58 57 59 61 59 57 57 61 61 58 66 62 58 55 54 51 46 46 48 48
31 34 30 28 24 24 35 56 61 60 62 61 61 60 61 59 57 62 62 59 60 60 62 64 64 64 65 63 63 66 70 70 67 76 78 78 51 45 48 47 47 45 43
30 30 30 30 34 34 34 39 49 64 64 63 64 66 63 65 70 72 70 70 66 74 76 78 80 81 83 81 78 79 82 89 80 75 81 86 60 56 50 51 46 44 42
35 33 31 30 35 40 43 41 44 44 46 53 60 63 63 64 53 49 47 45 42 43 46 60 76 87 91 94 92 90 91 92 95 91 86 85 81 88 82 60 53 45 44
35 32 31 32 34 47 54 49 43 42 42 40 37 39 38 36 39 40 43 44 47 56 58 56 60 62 66 72 79 80 84 90 91 92 93 92 89 84 95 91 79 68 73
30 29 28 31 36 53 56 54 46 46 48 45 43 42 44 42 43 46 44 44 47 56 61 63 62 66 69 70 70 73 80 82 81 87 91 92 90 85 90 95 86 86 61
26 28 29 34 39 56 57 56 49 49 46 46 46 47 49 48 49 49 48 50 49 57 64 66 65 65 67 70 72 76 81 82 89 81 88 94 93 90 90 94 92 86 70
22 30 33 33 41 55 55 51 48 49 48 47 48 48 51 48 49 55 54 54 56 59 62 65 64 64 65 66 69 73 81 90 95 97 95 95 93 94 92 92 93 93 80
25 27 38 37 41 50 52 50 48 48 49 48 49 49 52 55 56 63 63 61 59 55 57 61 63 64 66 68 72 73 79 87 92 95 96 97 97 95 96 89 89 93 93
30 33 36 48 50 49 50 47 46 48 50 50 48 52 56 61 63 64 64 61 56 57 59 61 62 64 66 68 74 80 79 78 82 81 86 88 89 88 89 88 85 93 94
37 47 50 53 56 57 54 51 49 51 51 51 52 54 56 59 61 60 59 57 56 57 59 62 62 63 64 65 70 79 78 79 79 78 78 77 74 77 78 80 84 86 86
48 53 55 55 57 57 55 56 52 51 51 52 53 54 57 59 59 58 58 56 56 58 60 60 61 61 64 62 63 67 67 68 69 68 72 72 68 72 71 73 74 76 76
54 55 56 55 54 55 55 55 57 55 53 55 55 57 58 60 59 60 59 59 60 61 61 60 61 63 66 65 65 65 67 67 68 67 67 69 68 72 73 74 78 78 77
50 52 54 53 52 55 55 57 58 54 57 61 59 59 60 61 61 62 62 63 62 63 63 65 66 71 73 76 79 78 78 79 80 79 75 70 71 75 79 82 85 86 85
45 51 53 51 52 56 59 57 56 57 57 61 64 66 64 66 69 71 69 66 66 66 68 72 75 75 77 78 84 82 81 81 81 80 77 83 82 80 78 77 81 81 84
38 45 50 52 53 54 58 60 60 58 58 60 63 64 67 68 72 73 75 76 76 75 75 77 73 74 75 86 85 79 79 77 76 79 78 71 75 74 75 74 72 68 75
36 37 43 49 52 52 57 62 62 59 61 60 61 64 67 73 78 81 82 84 87 85 83 82 78 80 80 82 84 80 79 93 98 99 96 77 62 72 70 66 66 69 69
37 36 38 44 48 50 60 64 65 62 63 64 65 67 73 79 84 88 89 92 91 90 88 87 83 81 78 81 77 78 94 97 96 95 96 92 89 75 61 59 58 57 56
34 33 36 40 48 56 64 67 71 69 70 70 69 71 76 86 91 93 94 93 95 92 91 85 83 94 84 72 69 80 89 83 75 68 58 53 57 68 64 55 62 44 53
38 44 47 46 53 57 60 67 71 73 75 72 73 72 78 87 93 94 100 93 92 100 85 100 100 79 88 67 66 57 41 45 38 42 49 64 57 60 68 54 43 45 47
58 59 57 57 58 62 66 71 73 87 74 71 74 78 83 90 94 97 93 98 97 97 97 97 94 84 68 55 60 55 38 36 39 40 42 48 65 59 57 67 41 51 50
68 65 64 69 69 69 69 75 77 72 72 73 79 84 88 89 90 93 98 96 90 82 71 62 58 55 51 63 62 68 60 54 44 44 44 49 64 55 59 59 49 58 53
66 64 65 69 68 70 66 71 68 71 71 78 83 87 89 87 86 86 85 83 79 77 64 60 53 45 40 40 63 60 64 70 52 46 49 62 58 51 52 51 50 59 39
65 65 66 66 69 68 67 64 68 70 76 76 82 87 89 87 83 80 79 82 75 68 54 53 46 38 33 31 35 55 56 58 57 62 61 58 58 51 45 46 44 39 38
67 66 66 66 66 68 70 68 72 74 78 77 83 88 87 86 83 82 83 75 56 51 47 43 38 40 37 34 36 42 46 46 53 58 61 60 54 48 39 37 36 38 40
74 74 73 74 79 84 80 82 77 80 82 85 86 85 84 84 81 86 84 76 62 66 64 57 44 37 39 40 49 54 56 65 65 64 62 57 55 46 38 36 35 36 45

GFSMW_sfc_rhum_063.txt.gz
RH
21 27 29 25 23 38 50 55 62 64 63 67 68 67 66 60 56 50 51 52 50 51 55 57 57 60 60 59 57 60 68 71 66 73 68 65 58 56 54 52 49 50 51
21 30 30 28 24 23 40 52 56 61 62 65 67 65 64 62 54 57 56 55 55 57 59 61 63 66 71 63 63 65 72 74 72 84 81 86 65 51 52 53 52 52 51
24 26 29 30 31 28 27 40 52 56 58 62 63 69 67 69 70 64 65 64 62 65 71 78 84 86 90 89 86 91 92 94 90 88 94 89 73 64 61 60 56 52 53
26 30 29 29 33 33 36 32 38 50 59 61 65 71 71 69 60 56 61 62 50 50 51 60 73 86 91 96 94 92 95 96 96 95 92 91 92 93 87 63 62 57 51
28 31 32 30 29 38 50 45 39 40 44 50 59 63 65 57 47 44 43 40 42 49 52 51 56 62 64 67 72 76 79 84 90 90 90 88 89 88 98 89 82 71 67
28 29 30 29 30 47 56 55 43 42 43 42 42 44 46 42 47 49 48 43 44 52 56 58 58 61 65 67 70 72 76 77 79 82 84 81 89 91 97 98 89 84 80
23 25 27 29 33 49 56 57 48 49 44 44 41 39 42 42 44 47 49 46 45 52 58 63 62 62 64 66 69 74 76 75 82 82 85 86 86 85 93 96 97 90 85
19 22 25 34 35 48 53 50 46 46 43 42 40 42 44 45 44 48 48 49 50 51 58 61 60 60 60 62 65 72 75 80 87 90 88 92 95 97 94 94 95 99 95
20 22 25 30 30 38 48 48 44 45 47 45 44 43 44 48 48 52 54 55 56 55 55 57 60 60 61 62 65 72 73 85 88 95 95 97 96 97 98 98 95 94 97
26 25 25 28 32 37 44 43 42 43 45 46 44 46 50 53 55 55 56 56 54 55 56 58 58 60 61 64 68 75 78 80 83 86 89 90 93 92 94 96 97 97 96
31 33 34 34 40 43 47 45 43 45 48 46 47 49 51 53 54 55 56 56 55 55 56 58 59 59 60 61 67 75 76 78 80 80 82 79 76 84 82 86 85 87 90
36 39 41 42 46 49 49 50 48 48 48 46 46 48 51 53 54 54 56 54 55 55 56 57 58 58 60 61 62 66 67 69 71 70 74 72 68 75 75 79 79 82 84
32 40 44 46 48 50 50 50 50 50 49 49 49 51 52 54 53 53 55 56 57 58 58 58 59 60 64 63 63 62 64 66 66 66 68 68 69 77 78 82 85 86 82
28 38 44 44 46 48 48 49 51 49 52 56 53 54 54 54 54 55 58 58 58 60 60 61 62 65 66 71 74 72 73 75 77 76 72 71 74 78 83 84 86 84 86
31 32 44 44 44 48 50 50 51 51 52 56 58 59 57 59 61 62 62 62 63 62 64 68 71 71 72 73 81 80 80 80 80 77 78 84 84 80 78 81 82 82 89
30 31 35 43 44 46 51 53 52 52 52 54 57 58 60 63 67 68 69 71 71 71 72 74 72 74 71 85 82 78 81 77 78 79 78 75 79 73 71 72 74 72 81
35 31 32 36 42 43 48 54 56 53 55 54 54 56 60 64 69 70 74 78 82 83 83 81 76 77 75 83 81 77 84 94 100 100 99 77 64 77 75 65 60 69 67
38 36 30 32 35 40 46 55 59 55 57 59 57 61 64 68 73 79 85 89 92 92 92 90 83 83 79 79 79 84 99 100 100 99 100 98 94 79 67 66 67 64 64
40 37 30 30 34 40 49 57 64 63 62 64 62 64 67 72 79 87 93 94 96 96 97 92 89 98 87 75 68 80 93 90 85 79 63 58 64 70 62 64 71 52 60
46 44 41 38 35 40 49 61 66 68 69 66 66 65 69 75 87 93 100 95 96 100 96 100 100 82 94 66 63 65 55 62 49 51 58 62 62 60 66 67 54 54 55
52 56 50 47 46 47 56 65 67 79 69 66 67 70 72 79 90 98 96 98 98 98 100 99 97 90 77 62 62 55 44 42 43 46 49 54 63 58 57 64 58 62 61
56 56 58 60 58 60 62 68 70 67 66 66 72 77 80 83 89 96 99 99 95 92 84 70 64 61 55 61 64 61 57 48 51 51 50 53 63 57 58 64 58 52 62
54 56 60 64 63 64 62 66 63 63 65 69 73 76 78 83 86 90 92 92 86 83 76 66 61 58 56 53 65 63 66 68 63 51 48 54 61 54 55 57 55 57 59
56 56 60 62 63 61 60 57 58 62 65 70 73 81 91 90 87 86 84 84 85 84 75 63 60 54 47 42 46 65 66 66 66 60 73 66 63 56 52 50 55 58 46
61 63 61 61 60 60 61 57 61 64 70 74 81 88 86 88 88 85 82 83 76 72 68 57 54 50 48 43 39 44 56 60 59 60 66 70 69 64 54 50 45 46 47
66 71 76 73 70 65 71 76 72 79 84 85 83 89 92 92 89 87 87 81 77 65 62 55 49 46 43 37 44 46 49 51 53 69 70 70 67 64 52 45 43 45 52

GFSMW_sfc_rhum_066.txt.gz
RH
27 33 36 30 32 59 65 69 77 77 77 83 86 86 85 78 76 70 62 63 64 65 71 76 68 64 69 68 67 69 73 77 78 86 93 90 83 78 77 75 72 68 67
26 41 39 36 31 35 68 70 75 78 78 82 84 84 85 82 77 76 69 69 70 70 73 77 77 73 79 76 75 81 85 83 83 90 95 94 83 78 74 78 68 70 67
28 42 42 40 39 35 40 70 72 76 77 80 84 87 85 86 88 83 83 75 69 76 81 87 90 93 96 97 95 95 95 96 94 89 93 98 93 91 77 73 73 69 71
37 39 41 44 44 42 40 40 57 76 79 80 84 90 94 94 89 89 88 77 59 61 60 65 80 93 96 98 98 97 97 98 98 96 98 95 94 96 91 82 80 76 66
40 41 42 40 42 50 53 48 46 52 68 84 86 89 89 86 66 61 61 54 56 58 63 64 70 74 78 82 86 88 92 95 95 95 92 96 96 97 98 93 93 89 78
41 40 42 40 43 60 67 63 54 54 55 60 68 78 81 60 60 60 60 61 63 73 70 69 73 76 79 82 86 88 89 92 92 88 87 86 92 97 97 98 94 94 89
36 39 43 46 48 67 71 69 59 57 54 53 54 52 54 51 56 62 65 62 64 72 78 77 78 79 78 78 80 85 90 92 91 87 89 86 85 92 95 97 97 98 95
29 33 34 44 53 62 71 65 59 60 57 56 52 54 56 62 60 60 63 68 71 78 76 77 75 74 74 76 78 85 90 91 95 97 98 98 98 98 96 95 96 98 98
32 30 40 40 44 66 67 64 60 57 56 55 55 55 56 59 62 66 73 77 77 64 69 72 74 75 76 77 79 87 90 94 96 96 96 97 97 97 98 98 98 97 99
40 38 37 42 44 57 65 60 57 59 60 60 56 59 60 64 66 69 74 74 74 70 72 74 74 74 75 78 82 90 89 86 90 90 93 94 95 95 96 97 98 98 98
48 50 50 48 50 63 65 64 57 59 62 60 64 67 69 69 68 68 74 73 70 70 70 71 73 73 75 76 82 80 81 85 86 86 87 86 84 90 91 93 93 96 96
48 52 55 57 63 68 69 68 65 66 64 60 62 66 67 69 71 71 70 68 71 68 70 70 71 71 74 77 80 84 82 76 81 81 82 80 77 85 87 92 94 94 96
40 52 60 62 68 72 72 70 70 68 66 65 67 68 70 69 68 69 70 68 70 73 71 71 72 74 79 82 84 82 83 85 85 83 84 87 90 94 95 95 94 96 92
39 43 59 63 65 68 70 70 69 70 69 70 71 73 72 69 70 69 69 69 69 73 74 76 77 78 81 85 87 86 90 90 88 89 91 90 92 88 89 91 91 88 95
40 40 50 63 65 70 70 68 69 69 70 74 75 76 74 75 74 75 76 73 74 76 77 80 79 76 76 75 85 84 87 88 88 86 86 90 87 81 80 86 90 90 96
46 45 41 55 61 67 72 69 71 71 70 74 76 73 74 78 83 84 84 85 84 83 82 79 77 79 71 83 83 83 87 85 85 88 91 87 84 77 72 75 69 78 89
47 48 48 48 59 64 66 74 76 71 73 72 72 74 76 81 85 77 76 90 90 87 86 85 82 83 87 84 82 82 92 98 100 100 94 82 75 80 80 61 66 66 61
52 53 51 49 49 60 70 76 76 75 76 75 74 75 79 84 84 82 86 94 94 94 93 92 88 89 84 82 81 92 100 100 99 99 99 99 94 80 72 75 74 74 83
59 61 61 57 53 58 73 78 82 80 80 80 78 80 83 87 89 89 95 97 98 97 98 95 95 99 93 78 77 87 94 94 93 90 84 80 87 66 60 73 72 61 77
64 67 69 66 62 59 76 80 86 84 85 82 81 82 85 88 89 89 99 97 97 100 99 100 100 88 94 73 66 76 88 86 78 69 72 60 70 62 66 81 62 60 68
65 70 73 74 74 73 82 86 88 89 85 81 82 84 87 87 93 99 99 100 100 100 100 100 99 96 87 79 63 58 50 51 51 57 59 69 59 58 57 61 77 71 71
67 70 77 79 79 79 83 86 88 86 82 82 86 89 89 85 93 98 99 100 98 96 95 90 90 87 79 68 63 59 52 48 54 56 57 62 61 59 58 66 65 51 63
65 68 76 79 80 80 81 86 86 84 83 87 91 90 85 89 93 98 98 98 93 93 90 84 81 80 73 74 64 68 65 61 70 58 54 52 62 57 56 56 61 54 73
52 71 74 79 83 83 81 80 80 79 82 90 92 86 89 92 92 94 93 94 95 92 89 80 78 75 70 65 66 76 76 67 75 65 77 67 71 66 61 54 55 68 66
59 75 76 71 75 78 79 76 77 79 85 89 92 93 93 92 94 92 90 89 82 80 86 79 71 72 66 56 53 61 76 82 76 74 76 80 80 81 72 65 60 60 56
65 71 80 80 77 72 77 78 78 81 82 89 93 94 95 94 93 94 92 81 80 80 78 71 67 61 52 52 50 49 51 58 59 69 75 80 82 79 69 60 52 54 57

GFSMW_sfc_rhum_069.txt.gz
RH
36 39 39 38 61 71 82 85 88 80 79 87 89 84 89 85 80 78 69 70 70 70 75 80 79 71 67 66 68 73 75 79 81 84 93 93 89 88 88 83 86 76 71
38 42 42 36 43 68 83 89 81 89 83 87 89 88 90 88 82 79 72 69 72 72 76 82 81 78 77 74 76 82 85 84 85 85 91 94 87 78 78 86 80 71 70
38 45 42 38 38 50 82 80 82 85 86 85 90 93 92 93 92 90 85 79 77 82 82 85 88 91 93 94 94 94 93 95 94 88 92 96 96 93 77 74 76 70 71
44 44 41 46 42 40 50 80 89 86 83 90 93 95 95 96 96 96 94 76 76 64 62 71 81 93 96 96 97 97 97 98 97 97 97 95 95 96 94 86 85 80 72
44 48 48 44 44 44 47 48 70 88 88 90 92 96 97 96 94 89 79 78 66 66 68 70 73 74 79 81 87 90 92 97 98 98 95 93 95 94 96 96 94 92 92
46 46 49 46 46 53 57 60 56 63 85 94 93 96 96 88 72 69 68 71 74 76 74 73 77 80 81 85 90 91 92 94 95 95 94 94 94 96 97 97 93 92 89
52 49 50 50 53 62 64 65 62 60 65 77 86 88 92 73 75 75 69 72 72 82 83 80 83 85 83 82 83 87 91 94 96 93 95 94 88 89 94 96 97 97 95
35 38 50 56 58 64 69 70 66 63 61 59 62 63 61 64 69 68 67 68 69 82 80 79 77 79 78 79 82 89 92 94 96 96 98 98 98 97 98 96 98 99 99
44 42 42 45 54 71 76 72 67 65 60 58 59 61 62 63 68 66 68 77 78 69 73 76 75 79 79 80 84 90 93 94 97 96 96 97 98 98 98 99 98 96 97
49 50 50 49 50 61 77 74 67 65 63 63 62 62 62 63 69 76 76 74 71 69 74 76 77 80 80 83 86 92 92 92 96 95 95 96 96 95 96 98 98 99 98
51 54 56 56 60 72 81 79 72 68 68 63 67 70 73 75 75 78 75 76 71 70 72 75 77 78 79 81 86 91 88 90 92 91 92 89 89 93 92 92 93 95 96
51 57 60 64 70 73 77 79 76 74 74 72 74 78 75 75 78 78 73 70 74 71 71 72 74 75 78 83 84 89 87 90 89 87 87 83 81 87 89 91 92 92 96
46 58 67 66 72 74 79 79 80 77 75 74 77 78 77 77 75 78 71 70 75 77 74 72 73 77 81 85 87 88 89 88 87 82 83 84 87 92 94 95 94 94 93
47 49 68 72 72 75 77 78 78 78 76 77 79 80 83 81 82 80 76 77 77 79 80 78 80 81 83 86 89 91 93 93 94 93 93 93 93 94 94 92 92 90 95
52 54 56 62 75 78 77 77 77 77 76 78 80 82 82 82 83 83 82 82 81 83 85 86 85 84 82 80 90 86 88 88 90 89 88 90 89 82 82 88 92 91 96
53 53 54 56 63 78 78 77 77 79 77 79 80 80 81 84 87 89 90 89 90 90 89 89 81 81 72 79 81 85 90 87 87 91 89 86 85 78 76 72 74 80 90
57 57 60 62 62 65 73 77 76 77 78 80 80 81 83 87 91 91 92 92 92 91 91 90 83 85 88 84 84 84 92 97 99 96 91 84 80 82 80 66 67 62 69
62 65 67 68 68 66 78 76 79 75 78 81 82 83 85 90 92 91 92 89 95 95 95 93 89 89 87 85 85 91 100 100 100 99 94 94 90 82 78 78 80 85 84
67 69 72 75 75 72 70 85 84 81 81 81 82 84 86 91 92 93 94 94 98 98 98 95 95 97 97 82 85 95 98 97 97 96 92 90 80 60 58 72 73 71 80
49 59 74 77 81 78 79 89 86 84 82 82 85 86 88 90 93 94 97 97 98 100 99 100 100 92 97 79 74 81 85 84 82 84 77 68 82 70 64 76 64 62 71
55 54 76 81 85 87 88 90 92 90 89 86 86 89 91 93 93 95 99 99 100 100 100 100 99 97 89 87 67 69 73 69 64 65 70 72 63 62 61 71 66 67 70
59 55 72 81 85 84 87 89 90 88 88 88 90 92 93 91 94 98 99 100 99 98 98 96 92 90 92 74 66 60 54 52 54 58 61 65 61 63 62 67 67 54 64
71 65 66 80 84 86 86 89 88 91 90 91 93 94 94 95 92 97 98 98 96 96 95 93 88 85 86 83 69 64 58 55 62 59 58 63 62 60 58 55 61 61 78
75 72 70 78 84 86 88 88 89 90 91 93 95 95 96 95 95 98 97 98 98 97 94 92 85 82 82 80 78 79 78 70 73 63 69 61 70 70 68 59 55 69 75
72 75 76 76 74 74 79 84 87 90 92 93 95 96 94 91 96 95 95 96 88 86 91 88 80 78 80 72 66 70 80 82 83 83 78 79 81 82 77 71 64 64 65
68 72 82 83 79 78 77 76 79 83 84 88 92 92 95 93 96 98 97 88 84 84 82 80 75 72 66 60 62 61 60 66 71 80 76 78 80 82 76 70 63 59 58

GFSMW_sfc_rhum_072.txt.gz
RH
41 44 50 71 84 92 87 90 90 85 78 85 90 91 93 81 82 74 72 76 75 75 79 82 83 84 77 73 71 73 76 80 82 86 85 93 92 92 92 93 94 88 77
46 42 48 47 79 81 86 90 82 90 81 87 86 88 92 92 83 78 79 76 71 74 79 83 84 83 78 73 74 80 86 90 89 85 88 95 90 87 88 86 88 86 72
46 46 50 47 45 82 88 83 80 83 81 83 92 96 95 95 94 92 90 77 74 77 79 82 84 88 90 90 91 92 91 93 93 92 94 93 97 95 85 80 80 76 76
47 44 48 45 45 55 89 90 89 90 85 92 93 92 94 93 95 97 97 88 84 88 91 91 92 93 96 95 96 97 97 98 98 96 97 98 96 98 93 89 87 84 74
51 49 52 42 39 46 60 86 95 90 86 88 93 94 96 96 98 98 94 90 94 86 80 78 76 78 78 78 85 91 94 98 99 98 97 94 95 96 99 91 94 92 94
53 50 54 50 49 55 58 56 73 90 94 98 97 96 96 98 96 94 96 92 88 90 89 84 86 85 86 87 91 92 92 95 96 97 97 96 95 95 98 99 97 95 93
62 54 57 55 52 54 56 59 57 66 88 96 97 98 97 96 92 93 93 87 88 91 90 85 82 86 85 86 86 88 91 93 96 96 97 96 96 95 95 96 96 97 96
42 51 60 59 58 60 66 66 62 61 67 78 92 92 95 92 87 85 85 83 80 81 83 82 82 83 81 80 82 88 92 94 96 96 97 98 98 98 98 96 95 99 99
51 48 48 48 49 67 67 72 70 66 66 66 68 71 75 80 86 85 79 81 84 77 78 79 76 81 80 82 85 90 92 95 97 98 97 97 97 98 98 99 98 96 98
50 54 57 54 51 54 70 84 77 70 67 68 68 67 71 69 67 65 68 73 73 71 76 80 82 80 80 82 85 92 94 95 97 98 97 97 98 97 98 98 99 99 99
53 55 59 63 65 72 81 85 84 76 74 74 76 78 76 73 76 79 80 78 76 77 78 80 80 80 79 81 87 89 94 93 94 94 94 96 94 95 95 94 94 96 96
53 59 62 66 67 71 78 80 83 79 79 79 82 82 81 79 85 82 79 75 74 74 73 78 77 78 78 83 82 87 91 91 94 93 93 93 87 88 89 92 92 93 92
52 54 65 70 73 77 78 81 82 84 84 82 86 87 88 88 89 88 83 80 78 76 75 74 77 80 83 85 87 88 89 89 89 88 84 84 88 90 92 93 93 93 90
56 59 61 62 70 77 83 83 81 85 84 85 87 88 88 88 89 88 83 82 83 84 83 82 83 82 86 89 90 92 93 93 93 93 92 91 89 90 92 92 93 92 96
58 60 63 67 67 75 81 84 83 82 82 84 88 88 88 88 88 88 87 86 88 88 88 90 90 89 87 84 90 92 93 90 91 89 88 91 89 83 83 89 92 92 97
64 63 64 67 67 70 76 83 84 84 82 83 84 84 86 87 90 90 90 90 91 92 92 92 91 91 78 77 80 83 92 89 90 93 90 89 86 82 77 76 76 81 92
61 65 68 73 74 74 70 78 83 85 84 83 84 85 86 89 92 92 93 93 93 92 92 92 91 91 85 81 82 84 92 95 98 99 95 87 85 83 80 70 71 69 73
57 57 59 65 72 79 79 79 87 88 84 85 85 86 88 91 92 94 94 94 95 95 95 95 93 93 89 85 84 89 100 100 100 98 93 94 91 82 77 81 84 85 83
60 59 59 66 78 79 81 85 90 90 88 85 85 87 89 92 94 95 95 95 96 97 97 96 95 96 96 86 85 95 100 100 99 92 86 82 77 69 62 76 80 77 79
66 65 62 63 77 76 91 92 92 93 88 83 84 89 90 90 93 94 96 95 96 100 99 100 100 92 99 86 83 93 94 93 89 92 86 79 80 67 62 74 64 68 74
75 72 70 71 75 82 91 91 93 95 88 89 90 91 92 92 93 95 97 97 99 100 100 100 100 99 93 89 77 77 82 73 79 78 78 75 73 69 66 67 61 61 70
77 76 81 80 74 83 92 91 93 90 90 89 90 92 94 92 92 97 100 99 99 99 98 98 98 93 88 85 77 68 68 64 65 63 64 70 67 64 62 67 67 59 65
70 77 82 81 77 82 90 92 89 90 91 91 92 94 95 96 96 98 99 99 98 98 98 98 98 92 89 94 75 66 62 55 59 58 59 61 63 63 63 61 66 65 78
68 64 80 85 85 78 86 90 90 90 93 93 94 96 97 98 98 98 97 98 98 98 98 98 95 88 83 87 86 84 75 62 67 61 72 64 68 67 69 64 61 73 78
74 76 71 87 90 86 78 78 83 88 94 94 95 97 96 95 98 95 96 98 91 90 95 94 90 88 85 80 75 76 87 90 81 78 77 80 81 86 82 77 69 67 70
73 83 80 80 84 81 77 80 78 86 88 91 93 93 94 93 95 98 98 90 89 88 87 84 85 81 76 71 70 69 70 74 77 87 83 80 85 86 81 76 71 65 64

GFSMW_sfc_rhum_075.txt.gz
RH
48 56 60 88 94 96 95 91 92 90 86 95 97 98 93 90 89 89 78 76 74 76 81 85 86 87 87 85 84 78 77 82 84 87 83 90 91 92 91 95 96 94 91
50 43 44 58 90 94 96 96 94 93 88 85 77 82 92 96 84 80 73 72 76 78 77 84 88 89 91 83 76 80 87 87 88 89 94 95 89 89 88 90 89 90 84
52 48 46 50 51 88 94 92 88 85 84 92 95 97 97 97 93 88 82 79 76 81 80 81 86 89 89 88 86 89 89 91 95 93 88 92 96 96 87 83 84 82 82
59 53 47 52 51 51 91 93 92 91 92 95 94 91 87 91 96 96 96 96 92 89 83 87 91 92 95 95 95 96 96 97 98 97 97 98 98 98 96 91 92 90 78
58 54 50 47 50 47 71 93 94 95 93 96 95 96 96 96 98 99 98 97 98 95 96 95 96 95 96 96 95 96 97 98 98 98 97 96 97 98 100 96 94 93 95
60 56 55 58 55 57 62 75 90 95 96 96 96 96 95 97 98 99 98 98 97 98 96 93 91 90 90 92 93 93 93 94 96 97 98 97 95 94 98 100 98 97 96
61 57 59 60 63 60 58 60 66 80 91 98 98 98 94 96 94 96 98 97 96 96 94 91 89 83 83 86 88 91 91 93 96 97 98 98 97 95 96 97 97 98 96
54 58 59 62 61 66 66 66 63 61 66 87 96 97 98 99 96 94 96 95 92 91 88 84 81 83 83 83 85 87 92 92 96 95 97 98 97 98 99 98 96 95 98
54 50 50 52 51 55 68 73 73 68 65 68 76 88 94 97 94 94 94 90 89 88 86 80 78 79 80 82 84 89 90 93 95 97 98 99 98 97 98 94 96 99 96
58 58 59 59 61 62 74 78 84 80 73 72 75 73 77 82 91 89 87 82 81 80 80 78 78 79 80 83 87 91 92 95 96 98 98 97 97 98 98 99 98 99 99
61 64 66 69 72 74 77 84 86 84 80 76 77 81 83 84 83 78 77 79 78 80 76 77 78 80 82 84 88 90 91 96 95 95 96 95 96 98 98 96 95 98 98
60 65 73 76 76 77 80 85 86 86 84 83 83 85 85 85 86 83 79 81 76 78 78 78 82 82 83 86 87 88 91 95 94 94 95 95 91 94 93 94 93 93 92
61 64 65 67 70 74 81 84 86 86 86 85 88 90 90 90 90 89 84 77 77 78 82 81 82 83 84 87 89 90 91 91 91 91 93 90 92 92 91 93 93 94 90
64 68 72 74 74 74 78 84 87 86 87 87 89 90 90 90 91 91 89 88 87 87 88 86 86 88 89 89 90 92 93 93 92 92 92 88 89 90 91 93 93 93 96
70 72 75 79 79 78 77 78 84 88 87 88 89 89 90 90 91 90 90 90 90 89 89 90 90 90 88 86 91 92 94 94 90 89 87 89 88 84 85 90 92 92 97
64 64 66 69 78 82 80 77 80 84 88 89 89 89 91 90 91 91 91 91 91 92 92 92 92 93 85 79 80 83 89 91 91 93 92 92 90 85 80 78 78 83 93
61 61 63 65 70 78 79 83 82 84 90 89 88 89 90 91 92 92 93 93 93 93 93 93 93 93 92 78 80 81 94 97 98 99 98 90 86 82 86 74 77 76 75
65 66 66 63 63 72 80 82 86 89 92 91 89 89 91 91 93 94 94 94 95 95 95 95 94 94 92 81 83 83 98 100 100 100 98 96 88 84 81 82 84 84 81
69 71 70 68 66 73 78 86 89 92 94 92 89 90 91 92 94 95 95 95 96 97 96 95 95 96 94 83 84 96 100 100 99 91 83 76 79 67 64 78 84 81 83
79 78 77 77 79 76 86 94 91 93 95 93 91 91 91 91 93 94 96 96 96 99 99 100 100 94 98 87 85 93 97 99 95 88 82 73 76 68 60 73 72 78 80
80 81 83 85 84 82 86 92 92 92 91 93 91 92 92 92 92 95 97 97 97 99 100 100 100 99 95 91 85 86 96 96 84 84 87 85 75 73 65 67 68 61 67
78 78 87 82 80 82 88 90 93 88 92 93 93 93 94 94 94 96 99 98 99 99 98 99 99 97 94 89 83 79 77 74 74 75 78 82 72 73 70 71 65 57 65
74 76 77 79 80 87 91 94 88 91 92 93 93 93 94 96 96 98 99 99 99 98 98 99 98 98 94 92 87 82 72 66 71 64 62 62 62 67 67 64 70 63 76
69 67 73 77 75 88 88 77 81 91 94 95 94 95 96 98 98 98 98 98 98 98 99 98 98 97 93 92 90 88 85 69 68 63 75 65 67 70 71 68 65 78 81
77 75 79 83 81 83 87 78 71 81 92 95 95 96 97 97 98 97 97 98 93 92 97 97 96 97 95 86 82 82 88 92 78 76 78 81 81 88 86 79 72 68 73
68 78 78 76 74 76 81 86 78 77 88 94 94 94 96 95 96 98 98 89 88 89 88 86 89 90 83 80 81 79 73 77 74 87 84 84 86 87 83 79 78 75 70

GFSMW_sfc_rhum_078.txt.gz
RH
66 72 80 94 96 96 97 86 83 87 89 97 94 98 97 94 93 93 85 80 79 73 74 82 88 89 90 86 87 89 83 84 85 89 85 89 87 90 92 95 95 94 94
56 62 73 82 96 96 97 97 85 83 93 94 87 81 84 93 94 96 91 87 83 78 80 78 83 89 90 89 89 85 87 86 89 88 94 95 86 91 88 90 89 90 89
60 56 53 60 76 92 98 96 94 84 82 81 88 99 98 99 99 97 95 92 83 82 81 85 94 96 94 92 92 88 89 90 94 93 91 94 95 97 92 87 91 88 88
62 58 53 50 50 56 92 95 95 95 95 96 96 97 94 92 98 96 98 99 98 98 97 96 96 96 95 96 97 97 96 96 94 97 97 97 97 99 98 91 93 93 83
60 55 54 49 47 52 66 94 94 95 95 97 94 94 95 97 98 99 98 98 99 98 98 99 99 99 99 98 97 97 98 98 97 98 98 97 98 99 99 98 95 93 96
61 55 55 58 57 57 62 89 94 94 95 97 98 97 96 97 98 99 98 98 98 99 98 99 99 99 97 95 92 93 93 95 96 97 98 97 94 94 98 98 97 97 95
56 58 57 58 60 61 61 63 74 82 90 97 98 98 98 96 95 96 96 98 99 99 98 98 98 97 90 88 88 90 92 94 96 96 97 98 98 97 96 97 98 98 96
61 57 62 62 65 65 67 66 64 60 62 80 92 97 98 99 98 96 98 97 94 96 97 97 91 85 83 84 83 86 90 90 94 92 95 97 97 98 98 95 95 92 96
55 55 58 58 58 62 70 76 75 72 69 67 71 80 93 97 98 96 97 98 97 94 93 86 82 82 82 83 82 87 88 90 93 95 97 98 98 98 98 99 97 97 94
65 68 70 73 74 76 80 80 86 85 82 75 74 72 76 84 95 95 95 95 92 92 90 87 84 82 81 82 85 90 91 93 96 97 98 98 98 97 98 97 98 96 96
74 77 79 78 77 78 81 82 85 88 87 83 80 80 80 83 89 91 90 86 86 89 83 80 81 81 81 81 84 87 88 92 95 94 96 96 95 98 98 98 98 98 98
70 71 72 74 75 78 80 84 86 86 89 88 87 86 86 88 89 90 88 83 83 84 82 80 81 82 80 85 87 88 90 93 95 94 95 96 95 96 96 97 96 96 93
74 77 78 81 82 81 81 84 88 89 88 87 88 88 88 90 90 90 90 86 86 87 84 84 84 87 86 90 91 91 92 92 92 92 93 94 93 95 95 94 94 94 91
76 76 78 84 86 83 83 81 81 88 89 88 88 90 90 90 91 91 90 89 88 89 89 88 89 90 90 91 91 92 93 93 93 92 92 90 88 90 90 92 94 94 98
64 66 69 73 77 80 81 81 81 84 88 90 90 90 90 90 91 92 91 91 91 90 90 91 91 92 89 87 91 91 93 94 92 88 86 88 88 86 86 90 93 94 97
61 61 65 66 68 75 81 85 85 87 89 91 91 90 91 91 92 92 92 92 92 93 92 92 92 93 87 80 82 87 93 93 92 94 93 94 92 88 83 81 80 84 94
66 69 71 72 70 70 73 86 87 88 92 92 92 91 92 93 93 93 94 94 94 94 94 94 94 94 92 80 78 81 95 96 97 98 99 93 88 84 87 81 82 80 77
75 76 78 75 74 71 74 80 87 91 92 92 93 92 92 93 93 94 94 94 95 95 96 95 94 94 92 82 81 77 99 100 100 100 100 99 93 85 84 82 83 83 84
82 82 83 81 82 82 79 82 85 90 92 90 93 93 92 93 94 95 96 95 96 96 96 95 96 96 94 84 80 97 100 100 99 95 90 85 82 77 68 79 84 87 88
84 85 84 83 83 77 82 87 86 88 90 86 90 94 93 92 93 94 96 96 95 97 98 100 100 93 96 86 81 96 98 99 99 94 84 84 68 61 63 80 84 85 85
84 83 85 88 84 83 89 93 92 94 88 89 93 95 94 94 91 95 96 97 96 99 100 100 100 100 96 95 84 88 95 95 97 92 88 81 77 66 65 71 74 69 75
84 83 90 88 86 84 92 94 94 86 91 92 94 95 95 96 96 95 99 97 98 98 98 98 99 98 95 90 86 84 89 87 95 90 85 84 73 74 73 76 65 56 70
83 81 85 90 82 80 94 96 88 78 82 94 95 95 94 96 96 97 98 99 98 98 98 99 99 99 98 97 88 84 82 76 79 72 68 70 69 73 75 69 72 63 77
77 85 84 86 87 82 80 89 88 84 78 87 91 95 96 96 97 98 98 97 98 98 98 99 98 98 98 97 94 95 91 80 75 71 75 65 69 69 80 76 73 86 82
77 78 87 85 84 78 74 70 72 86 90 89 92 95 95 96 98 98 97 98 93 92 97 98 97 98 98 95 88 89 90 88 85 78 76 81 84 90 90 81 75 73 82
75 77 77 76 80 82 79 75 71 74 84 88 88 93 95 95 97 98 98 91 89 89 88 86 90 94 86 83 83 85 85 82 78 83 77 79 84 86 88 86 82 76 73

GFSMW_sfc_rhum_081.txt.gz
RH
76 96 92 93 85 80 82 79 81 80 82 89 96 92 92 94 92 90 84 80 72 64 65 64 69 73 71 64 63 66 67 69 76 84 65 63 60 59 60 61 60 61 63
57 75 88 97 96 86 85 78 81 72 80 90 96 96 91 91 85 91 90 88 82 84 79 78 78 78 73 72 72 73 77 82 84 77 85 70 58 58 59 59 60 60 61
59 55 56 87 92 95 94 79 74 77 78 81 91 95 94 96 97 96 91 94 95 96 92 90 87 90 90 88 81 82 85 89 91 85 81 78 72 74 62 65 63 62 59
59 60 59 50 70 86 91 91 87 86 87 92 89 92 92 94 95 97 98 94 93 98 98 94 91 91 97 98 96 92 89 88 80 86 84 81 82 76 75 66 67 66 63
62 56 57 58 56 59 68 85 94 96 94 88 87 92 93 90 95 98 98 98 99 98 98 97 98 97 99 99 98 89 94 93 91 87 87 85 85 87 89 73 70 67 68
61 54 56 60 58 62 64 77 87 91 95 98 97 96 91 91 96 97 98 98 98 98 96 97 95 96 98 98 98 94 95 94 92 90 91 84 74 75 85 88 78 82 72
66 54 56 58 62 66 66 61 65 76 84 90 97 96 97 95 92 92 94 98 96 96 96 96 97 97 96 96 96 94 89 88 89 89 90 84 84 82 82 84 84 89 73
77 62 54 53 57 64 66 64 61 60 58 63 80 89 93 96 94 93 94 92 91 92 90 92 97 97 93 91 87 87 86 85 87 84 85 84 84 87 87 83 83 85 84
63 60 63 64 64 66 70 71 67 66 67 63 60 64 76 86 93 91 90 94 93 94 94 96 96 89 81 84 82 83 80 82 84 83 83 83 85 88 89 93 88 80 84
67 67 65 64 64 67 68 68 69 73 71 70 67 68 65 68 84 88 89 90 88 88 89 84 79 78 77 75 80 78 77 76 84 85 85 88 86 88 89 90 87 90 88
64 64 64 64 64 64 66 68 70 71 70 72 70 68 68 73 76 84 84 85 82 83 82 79 77 75 76 73 73 76 82 81 82 84 87 86 84 86 87 89 91 95 94
70 70 71 68 68 68 67 69 68 70 75 75 73 72 74 72 73 76 77 75 78 79 77 75 74 72 71 71 70 74 76 76 80 83 86 84 83 84 84 86 88 89 87
66 65 65 68 69 69 70 70 69 70 70 75 77 76 77 77 78 79 76 75 76 75 75 73 73 75 76 78 77 78 81 80 81 81 82 85 84 84 84 83 85 84 84
60 58 58 60 61 62 65 71 72 73 74 75 77 79 80 79 79 81 80 80 79 78 77 76 78 79 80 79 80 79 79 80 80 81 80 79 78 80 83 86 88 90 93
58 61 63 62 62 63 64 65 69 74 78 78 77 78 80 81 81 82 80 79 78 76 76 77 79 79 78 77 80 80 79 79 80 79 76 79 83 85 83 86 89 90 94
64 66 67 68 68 69 67 70 72 72 78 80 80 79 80 82 83 84 83 84 82 80 79 78 76 78 74 83 84 80 78 79 78 81 83 87 90 87 84 83 82 83 91
70 72 73 74 73 71 70 74 75 76 78 81 79 80 82 85 85 84 84 84 85 85 83 82 81 80 78 82 82 86 83 87 91 97 98 93 86 86 89 84 83 79 77
75 76 74 75 74 72 74 76 77 78 80 81 81 81 85 86 86 87 87 86 87 86 87 88 86 84 82 82 81 84 95 100 100 100 100 98 96 87 83 78 70 66 67
78 78 77 77 78 77 77 81 83 84 85 84 83 83 87 90 89 90 91 88 90 90 92 89 90 92 90 84 83 89 100 100 98 93 89 86 85 81 77 67 72 66 72
78 78 79 78 79 77 79 85 84 86 84 84 86 85 88 92 92 89 95 91 90 96 92 100 100 90 94 86 85 92 92 96 94 84 81 84 76 80 73 63 61 64 63
79 78 80 82 82 82 84 90 89 90 82 84 87 87 88 92 92 93 92 94 94 98 99 100 100 97 89 84 83 90 88 87 92 90 86 81 84 67 64 72 60 59 60
82 81 83 84 84 79 88 86 88 84 84 81 87 88 88 89 93 93 95 96 93 95 95 95 95 91 86 89 87 85 88 88 85 85 80 80 84 75 69 75 67 60 65
83 82 83 86 78 82 82 83 78 72 77 85 84 85 87 89 90 92 93 91 92 96 96 97 96 96 94 90 87 85 88 86 82 77 78 80 74 74 74 77 74 61 67
78 77 81 83 82 80 77 75 74 72 69 80 80 82 90 89 90 93 95 93 97 97 98 98 97 96 95 94 92 91 87 88 81 69 67 65 67 72 78 78 73 73 65
76 74 80 80 78 77 78 74 72 72 67 76 78 79 82 90 91 94 94 95 87 89 96 96 95 97 98 93 88 89 96 94 82 77 66 65 66 69 77 76 71 74 75
79 82 80 80 77 76 77 75 73 74 71 76 73 76 86 84 94 97 96 92 92 90 89 88 89 92 84 85 87 88 88 88 86 76 67 65 67 71 74 76 70 65 70

GFSMW_sfc_rhum_084.txt.gz
RH
88 96 91 89 80 73 59 54 58 75 87 88 87 82 82 75 76 77 70 64 62 58 58 52 51 54 54 53 50 49 51 52 53 62 66 47 45 44 42 42 41 43 44
82 96 97 96 90 84 78 64 77 84 77 90 86 86 85 81 78 77 76 70 70 64 66 63 58 56 61 57 55 55 57 55 59 65 62 55 47 43 43 42 44 45 45
70 90 94 94 95 96 95 93 82 91 91 91 89 89 93 85 78 75 80 79 77 88 80 78 86 86 85 78 69 62 62 74 77 77 59 59 54 50 42 49 47 46 46
57 67 80 94 91 95 93 93 94 94 90 91 91 86 92 94 90 86 84 84 82 85 95 95 96 98 97 96 97 96 94 82 75 82 69 59 55 58 52 48 49 48 43
75 65 64 77 84 90 91 88 90 85 85 86 90 94 90 94 94 94 96 87 94 92 98 98 99 99 98 99 99 97 99 99 97 88 88 69 70 74 75 50 47 49 46
73 78 64 59 66 66 66 67 78 80 85 88 86 94 95 96 98 97 97 97 97 98 99 99 98 97 97 96 96 97 99 97 97 96 96 88 70 61 71 66 50 53 50
72 66 68 68 68 70 62 61 70 72 83 86 78 83 82 90 90 89 90 94 95 95 95 96 98 97 94 88 92 94 94 93 94 87 83 78 68 60 70 71 60 65 53
75 80 61 61 58 60 58 54 51 54 50 60 82 89 87 87 84 82 85 87 87 88 86 94 95 89 85 86 86 89 90 89 89 84 81 76 73 73 70 66 66 70 66
80 83 63 57 53 52 55 55 51 53 57 55 51 52 67 79 86 85 83 86 82 86 88 93 92 92 87 89 86 85 87 86 86 80 78 76 75 78 76 75 71 72 72
60 71 63 53 48 49 49 50 48 51 55 55 55 55 55 57 66 76 81 79 77 80 80 86 86 87 83 78 75 76 75 74 72 74 72 72 72 72 76 79 77 78 73
66 56 56 51 49 46 47 47 46 48 51 52 53 55 57 58 59 63 69 76 78 79 81 82 80 74 70 66 66 67 70 68 68 73 70 70 71 71 72 78 80 86 80
60 55 50 44 44 47 48 50 50 50 50 50 51 54 57 59 59 60 66 66 69 73 75 75 72 67 63 61 64 68 67 65 69 69 74 70 68 69 67 71 76 76 77
44 41 39 40 40 40 41 44 49 52 50 51 49 52 54 58 58 61 61 64 68 71 71 69 67 65 65 61 59 62 65 66 64 67 69 68 70 71 72 74 77 82 83
43 43 41 41 41 43 43 43 42 44 52 55 52 51 54 59 60 61 62 62 63 66 67 65 66 65 62 61 61 61 63 64 64 68 67 66 70 68 71 75 75 77 84
45 47 48 46 45 45 46 46 48 48 48 52 56 57 56 58 61 63 63 63 63 63 62 63 63 66 66 64 65 66 64 65 66 69 65 68 74 84 77 73 76 81 86
49 50 48 48 48 49 51 52 54 54 54 52 55 59 57 59 64 65 64 65 66 64 63 64 63 65 63 79 80 70 64 62 61 65 67 68 85 82 84 85 82 76 82
54 52 51 51 51 51 54 58 60 58 59 59 59 62 61 65 66 66 68 70 70 69 68 66 63 67 62 84 83 80 67 71 73 80 82 81 75 84 81 82 82 82 81
55 54 52 53 53 53 56 60 62 59 62 64 64 66 67 68 70 71 72 72 74 75 75 73 69 68 67 85 85 87 79 90 100 100 100 91 92 86 84 77 78 68 61
55 54 54 55 55 57 57 60 64 64 64 62 64 67 70 72 72 76 76 74 78 79 80 75 75 78 76 87 87 88 97 99 98 95 83 75 75 80 80 71 69 53 57
56 57 56 53 53 56 52 62 64 65 66 66 67 67 70 73 77 80 82 80 78 88 84 91 90 82 81 86 87 85 82 94 87 72 72 86 77 82 81 67 61 55 48
59 57 56 56 60 55 57 61 60 66 66 71 68 67 69 73 74 80 83 87 84 86 90 95 97 83 78 72 86 86 78 81 86 80 75 72 84 81 83 74 49 47 46
53 52 53 53 56 53 59 57 58 56 57 60 69 70 72 72 74 78 84 92 85 85 85 86 90 86 72 79 85 84 83 79 83 81 73 70 85 81 72 70 61 58 55
48 46 50 51 48 46 52 55 49 51 52 53 59 64 58 62 70 76 77 87 82 83 86 93 92 87 82 77 85 84 87 84 84 69 70 76 85 85 70 72 73 63 56
47 46 49 49 47 43 47 48 49 50 52 52 52 55 61 72 64 79 84 90 90 93 95 98 97 91 94 93 92 85 82 89 88 78 79 78 78 76 68 70 76 59 55
50 52 55 53 49 46 48 46 49 51 55 53 54 54 55 58 70 72 86 91 85 86 94 96 94 96 98 92 88 88 92 92 89 73 67 66 60 59 64 69 66 64 62
47 48 47 49 51 54 54 50 49 54 58 60 58 59 62 60 68 77 79 82 91 91 91 90 90 90 86 86 88 87 87 87 88 80 64 61 60 61 54 64 66 66 73

GFSMW_sfc_rhum_087.txt.gz
RH
62 78 63 62 69 78 78 68 65 75 85 86 93 87 79 67 66 66 70 72 70 67 65 62 52 56 61 55 52 50 52 53 49 55 56 54 47 44 43 41 43 42 44
67 89 85 90 90 90 92 80 74 81 86 85 85 86 80 84 82 81 74 69 66 64 67 67 59 62 64 60 61 57 57 56 56 68 63 70 61 47 45 44 44 43 45
57 86 88 95 96 93 95 88 81 83 86 92 92 95 85 84 88 81 82 77 72 78 76 75 80 84 85 83 82 81 62 71 72 70 70 66 63 53 48 49 48 46 46
62 78 86 93 96 94 96 97 87 95 93 94 94 95 95 93 87 85 84 86 78 80 87 92 85 89 91 95 95 95 94 84 84 84 78 70 68 62 58 56 51 50 43
74 72 88 88 90 96 98 97 94 96 97 95 96 96 95 94 94 96 88 86 92 91 92 94 96 96 97 98 98 99 99 100 99 98 97 93 92 85 78 63 55 56 50
92 83 77 77 86 94 92 96 96 94 95 96 96 96 96 98 98 97 96 96 97 97 98 99 98 96 97 99 98 98 99 99 99 99 98 95 95 96 94 83 61 57 54
93 92 78 71 83 85 78 77 79 93 93 94 91 94 94 94 90 92 94 87 91 90 93 97 98 98 97 98 98 98 96 96 96 97 98 96 88 78 74 73 69 68 60
85 86 75 71 80 80 65 59 63 61 60 83 88 90 91 93 85 86 88 85 82 81 79 90 92 94 97 97 97 97 95 93 96 94 90 86 82 80 77 76 76 76 69
86 78 74 58 62 64 55 55 53 55 58 58 56 71 85 84 83 88 82 83 80 82 81 84 88 92 96 98 97 96 93 91 92 90 88 87 86 86 85 82 81 77 81
81 82 82 76 53 50 48 48 50 51 54 55 56 57 56 58 69 81 84 83 82 83 92 91 90 95 96 95 93 95 90 89 87 82 81 80 82 85 88 89 84 84 82
76 70 78 80 65 50 46 45 46 49 50 52 52 56 58 56 56 59 62 72 74 75 83 87 95 95 94 90 88 85 81 77 76 77 76 78 79 80 81 85 84 86 86
72 64 45 40 41 41 42 45 48 49 50 46 50 55 55 57 58 56 60 63 69 74 77 80 87 86 86 81 79 77 71 69 72 72 78 75 70 74 73 77 80 85 78
41 38 38 38 39 39 39 39 39 41 45 50 47 47 52 56 55 58 58 59 66 72 74 77 80 78 75 69 65 66 68 67 69 70 75 74 74 76 78 80 81 84 81
42 42 40 40 40 42 42 42 42 42 42 43 48 52 52 52 57 58 60 61 61 68 72 73 72 72 68 68 68 67 68 71 70 74 73 72 74 75 76 81 79 84 92
43 44 44 42 41 43 44 44 46 46 47 44 45 52 54 53 54 60 63 61 63 63 65 68 68 70 70 68 71 70 70 72 72 72 70 74 77 83 79 79 80 84 90
45 45 44 44 44 45 47 49 52 52 50 51 50 53 54 56 60 59 62 65 66 64 66 67 66 69 64 76 77 72 70 68 69 72 73 75 84 82 81 82 81 79 89
48 48 46 46 46 47 49 56 56 53 53 54 54 56 58 62 62 62 62 65 68 69 70 68 67 68 67 82 83 79 69 75 78 84 84 80 76 86 86 85 83 82 81
48 46 45 47 47 46 51 52 54 54 56 56 55 57 63 66 66 67 69 69 72 72 75 76 71 71 68 85 86 84 80 87 99 98 98 92 93 92 86 89 91 83 74
47 47 46 46 45 47 49 48 54 56 56 58 60 61 62 66 70 74 78 76 76 80 81 78 77 78 78 89 89 89 99 99 98 95 90 83 81 83 84 82 88 74 69
46 49 47 45 42 45 44 50 51 52 56 57 63 63 63 65 73 76 79 81 82 81 86 90 90 82 84 89 91 89 85 95 90 87 82 82 76 78 84 78 74 72 67
46 43 41 39 41 46 44 50 49 51 51 54 53 58 62 68 70 74 78 87 91 90 88 92 94 88 82 78 88 90 78 87 91 80 79 76 84 80 85 77 71 73 58
40 37 40 42 42 44 44 48 47 42 44 46 48 48 54 55 56 66 74 83 94 93 91 90 88 84 74 81 87 90 84 80 85 87 81 78 81 84 85 84 68 56 55
36 34 37 39 37 37 38 43 39 39 42 43 44 43 44 46 52 62 66 78 83 89 90 91 88 88 84 75 84 86 88 82 84 81 80 79 80 86 83 79 74 64 69
34 36 39 39 38 32 32 35 36 38 42 45 45 44 47 47 47 51 64 72 89 93 94 96 97 90 91 88 92 86 88 90 87 87 86 80 84 86 84 77 80 77 68
38 40 40 42 39 34 35 36 37 38 43 44 45 46 47 48 50 52 58 68 69 84 94 93 95 96 98 94 90 92 94 92 93 90 90 90 91 95 91 82 85 76 70
35 36 38 37 37 36 39 39 39 41 46 50 52 54 57 58 60 62 62 63 69 75 85 92 95 90 88 88 92 93 92 89 91 88 86 90 87 83 78 78 81 79 75

GFSMW_sfc_rhum_090.txt.gz
RH
84 88 86 80 90 92 94 90 87 78 91 90 90 90 87 90 82 83 78 79 83 76 81 77 70 69 74 70 64 65 66 70 69 72 71 72 63 61 63 62 60 56 58
87 89 92 96 94 93 95 94 90 87 92 87 86 88 88 87 92 92 84 83 85 81 84 84 77 69 77 76 69 70 74 71 69 79 83 88 80 71 60 60 58 60 60
73 88 88 96 95 91 90 94 94 91 88 88 93 95 97 97 92 90 94 91 82 84 81 82 86 87 92 90 90 92 93 84 84 82 88 91 87 80 63 68 64 62 63
76 87 89 96 96 96 94 96 97 97 93 95 96 93 90 97 96 98 96 93 87 88 88 88 90 93 97 97 97 98 98 98 98 96 93 94 92 77 80 76 67 65 58
81 83 87 88 93 96 95 97 97 97 99 98 98 98 98 99 99 99 97 95 95 94 92 94 95 97 98 98 98 99 99 99 99 99 100 98 96 94 87 81 72 70 65
88 90 82 88 93 94 96 97 96 97 98 98 99 99 99 99 100 99 100 99 98 98 96 96 98 98 98 99 98 98 98 99 99 99 99 99 98 98 97 98 96 82 66
91 90 93 92 91 92 91 87 92 94 97 98 98 97 98 99 97 96 97 98 97 98 98 97 99 99 98 97 98 99 99 99 99 98 98 99 98 97 95 92 86 76 71
93 95 93 91 92 90 86 75 88 90 85 93 96 98 97 96 97 96 96 97 93 91 88 96 97 97 97 98 99 99 98 98 98 98 98 97 97 95 89 84 83 84 81
92 94 93 89 87 87 76 73 76 78 72 75 77 80 96 95 95 93 88 88 92 90 90 94 96 96 96 96 98 98 98 98 98 97 96 97 96 91 90 86 83 84 86
93 92 91 89 77 70 56 53 57 61 62 63 66 67 71 78 83 94 95 93 91 93 91 96 93 95 93 94 98 98 98 98 98 98 96 92 91 92 93 94 92 92 90
85 87 90 86 65 55 56 56 57 59 59 59 64 67 69 68 69 70 76 84 90 88 96 96 98 97 94 97 98 98 98 97 97 94 91 90 91 95 97 96 95 95 95
86 81 70 68 58 46 46 49 52 56 61 60 58 63 67 68 71 72 72 73 80 85 90 89 97 98 98 98 98 96 94 94 92 91 91 89 86 94 94 96 96 96 95
69 47 46 48 48 50 51 52 53 54 53 55 62 63 64 65 71 74 74 72 76 83 89 89 91 94 96 96 95 92 89 89 87 86 88 88 89 92 93 94 96 96 91
50 51 51 51 52 53 54 56 58 59 60 57 58 66 69 69 69 71 75 76 75 80 87 89 86 85 81 81 85 82 83 82 85 87 88 87 88 89 91 92 94 93 96
54 55 56 57 55 57 58 61 64 64 63 65 65 69 69 69 72 74 74 78 78 79 81 86 82 76 77 75 80 80 82 84 86 87 85 87 87 85 86 92 94 92 94
56 54 54 56 57 60 62 64 68 67 65 67 68 69 71 73 76 77 79 79 84 83 82 84 86 86 74 79 80 80 80 78 79 84 84 87 88 84 82 84 84 89 91
56 56 57 58 60 62 62 69 69 68 69 70 67 69 73 79 82 80 82 86 88 89 88 88 86 87 84 79 83 83 80 84 86 89 88 88 83 89 93 86 83 82 81
56 57 59 60 59 58 65 61 65 70 71 72 72 73 75 78 82 87 90 92 92 92 92 91 89 88 84 83 84 84 88 91 92 92 93 92 95 94 94 94 97 94 90
61 60 61 60 60 57 60 60 67 66 66 70 72 76 78 80 82 79 77 79 85 89 88 92 92 91 90 86 88 89 96 100 100 99 95 95 95 90 84 92 96 93 83
58 61 58 57 55 57 57 60 64 66 67 69 71 70 74 80 83 79 82 82 83 89 91 93 96 92 92 90 91 92 99 99 98 96 90 92 92 85 85 93 93 92 82
55 52 53 52 51 58 57 62 66 67 64 63 64 65 68 73 81 86 84 83 86 90 97 96 95 95 92 90 91 92 94 96 97 97 97 93 83 79 84 83 84 84 73
50 47 51 54 54 55 59 61 64 58 54 58 61 61 64 63 60 77 86 86 77 82 93 91 94 90 88 87 90 92 89 88 94 95 90 91 86 80 82 84 74 70 68
44 43 49 51 50 50 51 55 52 49 50 56 58 60 58 59 61 69 75 87 74 71 80 94 94 93 90 83 88 90 91 86 90 86 85 84 86 87 84 87 82 65 75
46 48 52 54 52 49 46 46 46 48 52 57 59 60 63 62 65 64 70 84 89 82 76 85 92 93 93 95 92 91 93 92 90 89 91 85 85 86 90 91 90 80 74
50 51 53 54 54 49 46 46 46 51 54 57 60 62 63 68 73 73 76 78 83 83 72 74 87 94 97 94 91 92 95 96 94 94 96 97 97 98 98 94 92 83 78
50 52 53 52 52 51 51 49 48 52 60 63 65 71 74 78 81 84 81 70 66 65 67 67 73 77 87 90 90 92 94 93 94 98 97 98 97 98 98 94 93 86 80

GFSMW_sfc_rhum_093.txt.gz
RH
29 89 92 88 94 97 96 93 94 95 95 95 96 97 93 88 89 88 84 78 74 68 74 79 75 77 74 69 68 71 72 78 72 73 72 72 70 73 66 69 63 58 61
89 93 96 95 93 96 95 95 94 92 94 93 93 90 89 88 82 81 78 80 70 77 80 82 78 74 81 73 70 73 77 75 76 77 85 87 79 75 70 64 57 65 65
91 94 97 96 96 97 98 97 94 95 94 94 95 96 94 87 81 80 78 81 80 77 79 90 90 89 89 90 89 88 84 85 86 82 87 94 93 84 75 67 66 66 67
91 96 96 90 97 97 96 98 97 97 95 95 96 94 94 93 94 99 97 91 74 89 93 94 94 92 94 96 96 98 98 96 97 96 96 94 94 90 85 80 75 71 63
93 94 95 90 93 97 99 97 96 97 98 97 94 95 95 95 100 100 99 97 98 93 88 88 96 97 98 96 96 99 99 99 99 98 99 99 99 98 98 87 78 68 67
97 96 87 88 93 94 95 92 92 93 96 98 98 99 99 97 96 100 100 100 99 99 96 97 96 97 98 98 98 97 98 98 98 98 98 98 98 97 98 99 95 92 86
97 97 93 93 92 91 89 85 90 94 96 98 99 99 99 99 98 97 99 100 99 98 98 97 98 99 99 99 99 99 99 99 99 96 96 96 97 98 96 97 99 93 76
94 94 94 92 90 86 85 88 88 89 88 94 95 97 99 99 99 98 97 97 97 95 92 97 97 98 98 98 99 99 99 99 99 99 98 97 96 98 98 98 98 94 85
96 96 94 93 88 84 78 73 71 75 82 86 87 92 94 99 99 98 96 96 97 96 96 96 96 95 96 98 98 99 99 99 99 98 98 97 96 98 98 96 89 85 88
96 95 94 92 91 85 80 69 60 62 65 71 76 77 82 88 91 95 99 95 90 94 93 96 95 96 96 98 98 98 98 99 99 99 99 98 98 98 98 96 89 85 80
95 92 92 86 78 63 56 51 53 57 61 62 64 70 72 72 72 75 80 88 94 94 96 99 98 97 96 97 97 97 97 98 98 99 98 98 96 96 94 96 96 94 92
89 88 85 78 59 54 53 55 56 59 57 57 66 66 64 66 73 76 76 75 78 81 92 93 95 98 98 97 98 98 98 98 98 98 99 98 94 94 96 96 96 96 95
84 65 52 53 54 56 58 61 61 62 62 60 63 67 69 70 72 72 76 78 79 80 85 92 93 95 98 99 99 98 98 98 97 96 96 95 93 94 96 95 95 97 97
58 60 59 57 58 59 62 66 66 67 68 68 68 73 74 74 75 75 76 78 82 82 84 88 92 92 92 95 97 98 98 98 97 95 95 94 91 92 95 96 96 96 97
60 61 63 64 66 65 66 68 70 70 70 72 74 77 78 78 78 79 78 79 82 85 84 85 89 88 88 88 87 87 90 92 91 94 93 91 91 90 87 93 96 96 96
63 62 62 64 66 68 70 70 72 73 74 75 75 74 76 78 83 83 83 86 89 90 92 89 88 91 85 80 85 86 88 87 87 91 90 92 95 92 89 90 91 90 95
64 62 67 67 66 67 70 70 70 72 75 77 77 77 78 81 82 85 87 89 93 93 94 93 92 91 91 84 82 84 85 88 91 93 92 93 89 92 94 91 90 89 87
63 63 67 67 64 63 69 64 70 75 69 78 74 76 79 82 84 88 89 88 79 83 90 93 92 91 89 85 83 85 92 92 94 94 96 92 95 94 94 96 96 95 94
68 66 68 67 66 64 66 64 68 72 71 76 74 75 78 81 85 87 91 90 88 86 89 88 90 93 92 88 87 87 94 99 98 94 90 87 89 89 90 94 98 97 91
63 64 62 61 61 60 62 62 65 70 69 71 70 71 74 77 85 85 89 91 90 86 84 90 94 92 95 91 90 90 96 99 98 97 97 89 93 88 89 95 97 98 93
57 55 54 58 56 58 62 66 68 71 67 68 66 67 68 71 77 85 85 91 90 92 91 77 85 92 92 90 90 92 91 94 98 98 98 94 92 87 88 89 95 92 84
52 50 56 57 58 61 66 70 69 62 61 62 64 66 69 65 64 75 83 82 90 91 83 70 72 74 78 89 90 91 93 88 94 97 94 93 93 91 89 89 88 80 77
48 48 54 56 55 55 58 60 56 54 56 59 61 63 64 65 66 74 77 84 90 91 90 83 75 78 77 84 86 88 90 94 96 88 88 89 90 89 87 89 86 80 85
49 52 54 56 57 56 57 56 51 51 56 61 63 64 68 68 71 72 77 85 90 93 94 90 84 79 79 82 90 90 90 90 96 93 95 92 90 89 89 90 90 86 78
52 54 56 58 57 56 52 50 49 52 55 58 61 65 66 72 78 82 85 85 88 91 84 70 68 74 79 78 78 89 95 94 94 98 98 99 98 98 98 97 97 86 76
57 60 60 61 59 57 56 54 52 55 58 54 59 68 78 83 87 92 91 74 73 72 71 68 63 61 66 68 76 82 86 92 89 98 98 98 98 98 98 98 98 93 83

GFSMW_sfc_rhum_096.txt.gz
RH
32 45 55 84 91 96 96 97 98 97 97 98 95 96 97 94 91 91 83 85 72 74 76 70 69 71 67 66 65 72 71 76 72 78 78 76 69 73 75 69 70 67 73
45 78 91 92 97 96 93 95 96 97 97 98 98 96 94 94 89 89 78 77 80 75 76 74 67 69 71 74 72 71 82 77 82 83 86 84 78 80 74 78 66 63 66
51 90 96 97 98 98 97 97 96 96 97 97 97 98 97 94 96 94 95 84 82 83 77 78 78 83 82 83 84 82 82 83 88 83 87 96 90 86 80 78 74 69 70
94 98 98 99 97 99 98 92 95 95 97 97 98 97 97 96 94 93 95 93 85 81 87 86 85 83 84 89 86 84 83 90 93 98 97 93 90 90 87 83 79 72 67
99 95 96 95 96 98 98 96 97 96 96 98 97 98 98 95 98 99 96 99 98 90 89 93 97 98 99 96 96 98 97 95 93 96 99 99 99 96 96 96 87 79 72
98 98 91 88 92 95 94 91 90 90 93 97 97 98 98 98 98 98 99 99 99 99 93 94 96 94 98 98 98 98 99 98 98 94 93 93 95 97 99 98 97 89 92
94 96 95 93 91 91 90 87 94 93 92 94 96 98 98 98 99 95 96 99 99 99 99 98 96 98 97 98 98 99 99 99 98 98 97 96 91 95 89 91 96 98 96
95 97 94 90 89 87 88 87 87 88 88 92 94 93 95 99 99 99 98 99 99 99 99 99 99 99 98 97 98 98 98 99 99 98 98 97 96 97 95 90 92 99 98
95 97 94 95 90 86 83 72 76 78 84 90 91 92 92 96 99 99 98 98 99 99 98 99 98 97 96 97 98 99 99 99 98 98 98 97 97 98 97 94 86 86 98
95 94 95 93 90 84 82 81 71 68 76 80 87 91 93 92 92 93 97 98 98 98 98 98 97 97 97 96 98 99 98 99 99 99 99 98 98 98 99 98 98 95 92
97 96 93 93 91 84 85 74 72 64 60 68 70 72 81 84 85 83 82 83 86 90 96 98 99 99 98 97 98 98 97 98 98 99 98 98 99 98 99 99 97 94 87
92 92 92 88 88 84 74 64 60 61 61 60 65 67 67 67 70 71 75 78 78 78 85 91 95 97 99 99 98 97 96 98 98 97 98 98 99 98 98 98 97 95 96
85 80 76 63 59 62 63 65 65 68 67 68 71 76 74 74 76 77 76 76 82 83 82 85 92 95 96 98 99 98 98 97 96 95 98 96 98 98 98 97 98 98 97
58 61 62 64 67 66 69 70 69 70 72 72 75 79 82 80 80 79 79 79 82 86 88 86 88 92 93 95 96 98 99 99 98 98 97 96 98 96 97 98 97 97 97
66 68 70 73 74 73 75 71 72 74 78 77 80 81 81 81 82 83 84 86 88 89 89 91 91 90 90 88 92 90 96 99 99 99 98 98 97 98 96 97 97 96 96
68 68 67 69 71 73 77 70 71 76 76 78 79 76 75 76 80 84 89 91 92 92 92 92 92 94 87 86 86 87 89 90 94 96 97 97 99 97 95 94 92 88 94
70 68 73 71 70 71 75 70 73 78 71 79 75 74 76 78 82 83 86 88 92 92 93 94 94 94 94 88 88 86 94 93 94 95 96 97 97 96 95 94 95 94 92
68 69 71 72 71 70 72 68 69 71 71 71 76 72 76 78 80 86 86 90 93 93 92 92 92 91 87 88 90 89 93 96 95 96 96 95 96 96 96 97 99 98 96
72 71 73 71 71 67 70 65 66 69 71 68 75 71 73 76 76 77 85 87 91 91 93 91 94 94 90 89 91 93 97 98 95 94 95 91 92 91 92 95 98 98 95
66 66 64 62 62 58 68 67 67 69 68 66 69 72 72 74 76 79 82 88 89 85 87 92 90 82 87 87 89 93 98 99 98 98 96 90 88 88 91 94 96 98 96
55 58 60 61 60 64 69 71 74 76 70 72 72 71 72 74 75 80 86 85 88 87 92 87 87 84 75 76 83 87 94 98 97 98 98 94 89 88 92 89 91 91 88
53 52 56 58 59 60 64 66 67 63 58 57 62 69 72 66 63 78 82 83 86 91 92 91 89 86 86 74 75 82 84 88 98 97 94 93 92 94 93 93 89 86 84
51 50 55 58 58 59 60 63 59 57 55 59 61 56 53 57 69 76 79 85 88 92 91 93 94 89 77 81 74 74 79 83 93 95 91 92 94 94 95 93 92 88 92
52 54 58 60 60 58 59 63 60 54 57 61 60 57 60 59 68 78 78 88 92 94 86 93 84 82 80 72 82 78 77 82 89 92 97 94 94 94 94 94 95 95 88
56 59 63 64 63 61 58 55 53 55 58 58 57 58 58 61 66 75 86 86 91 91 93 90 85 70 68 65 65 69 71 77 82 92 99 99 99 99 99 98 97 96 90
63 64 64 64 65 63 61 60 59 62 65 60 58 60 59 62 71 82 90 79 74 70 71 70 72 70 69 66 67 69 72 73 76 91 99 98 98 98 98 98 98 97 91

GFSMW_sfc_rhum_099.txt.gz
RH
42 49 50 56 60 76 94 95 97 96 98 99 96 98 98 97 98 98 92 91 87 78 83 83 84 84 82 78 77 75 75 75 72 79 80 81 75 75 75 74 75 73 76
53 51 61 77 88 90 95 96 96 97 97 98 97 96 94 93 96 93 87 86 88 82 86 86 84 84 83 75 72 74 77 70 79 78 89 86 81 79 74 79 78 76 76
55 53 71 95 96 96 98 97 96 98 98 98 99 98 98 98 99 96 93 88 87 90 89 87 87 84 82 80 80 78 72 74 88 85 87 96 90 87 83 84 85 74 77
68 95 94 93 98 98 96 93 94 96 96 97 98 98 97 96 97 94 93 91 92 93 92 89 87 86 85 84 85 85 81 84 86 96 96 93 88 89 89 87 83 76 73
93 91 96 95 99 99 98 98 97 93 96 96 98 96 95 93 97 97 96 93 95 96 96 98 96 93 92 88 92 92 88 89 91 89 99 98 98 96 94 96 94 89 83
92 95 95 92 95 96 96 94 94 98 97 98 97 98 98 97 97 95 97 97 95 95 95 96 97 99 99 98 98 98 98 94 95 95 98 96 97 98 98 98 97 92 93
97 96 94 93 91 94 96 93 92 96 95 94 92 94 97 98 97 96 96 96 96 98 99 98 96 96 96 98 99 99 99 99 98 98 96 97 97 96 93 92 93 98 98
96 97 96 94 90 88 82 83 85 88 95 96 94 94 94 97 99 99 99 96 97 97 97 95 96 97 97 98 99 99 99 99 99 99 99 97 96 97 95 89 91 99 99
96 95 92 90 87 87 86 80 79 81 81 87 92 94 94 94 96 94 96 98 98 98 99 99 99 99 99 98 99 99 98 98 96 96 98 98 95 97 94 92 90 86 94
94 95 93 93 89 88 86 86 84 82 78 78 82 91 92 91 91 92 92 90 91 93 98 99 99 99 99 99 99 99 97 98 97 97 98 98 97 98 98 97 95 97 90
96 95 95 93 92 86 87 85 80 76 73 72 73 73 80 83 83 83 86 88 86 86 90 95 97 98 99 99 99 98 98 98 98 98 98 98 97 98 98 97 98 99 99
95 94 94 94 92 91 92 88 82 67 66 66 69 71 70 70 74 73 74 74 77 79 79 80 86 91 93 97 99 98 98 98 98 97 98 98 98 98 98 99 99 98 96
92 92 91 88 89 81 82 77 77 76 68 70 75 76 76 76 77 78 78 78 81 83 83 84 85 87 90 92 93 96 99 98 96 95 97 95 98 98 98 98 98 98 97
65 63 66 67 69 68 72 67 72 73 74 76 78 78 79 79 79 80 80 83 84 86 88 89 88 88 89 89 90 92 95 98 98 99 97 96 97 98 98 98 98 98 98
71 72 75 80 80 79 78 71 70 78 75 79 76 77 78 78 80 80 83 83 84 87 89 90 92 92 88 86 91 91 90 90 92 97 99 99 98 100 96 97 98 98 98
71 71 73 72 73 76 82 71 74 79 72 80 76 74 74 76 79 82 85 85 86 85 87 87 91 94 84 87 89 90 94 93 91 92 94 97 100 99 99 99 96 94 97
72 72 79 77 77 75 78 74 72 73 72 71 76 73 73 76 78 82 85 84 89 92 92 92 91 91 93 85 85 90 92 96 94 94 96 96 97 98 98 98 98 97 94
72 72 76 77 76 74 74 69 69 68 70 67 69 72 72 73 74 76 78 84 89 90 93 93 94 95 84 78 83 87 96 97 97 96 96 97 96 96 99 99 100 99 97
76 75 77 73 72 65 70 70 69 70 70 67 68 70 74 75 75 74 79 83 90 89 88 90 94 94 91 77 69 82 97 99 97 95 91 92 94 92 94 98 100 99 99
70 69 67 62 63 62 69 73 73 75 74 72 73 74 75 76 78 79 81 84 84 83 85 89 90 83 88 81 72 72 87 92 93 93 95 91 92 90 92 98 97 99 98
61 64 69 63 64 68 70 67 70 67 71 68 68 71 74 77 78 82 84 86 88 89 90 88 89 90 87 87 72 72 77 90 94 97 95 94 90 91 92 94 96 94 94
57 55 57 60 62 63 63 65 66 64 66 61 60 59 60 58 58 81 83 84 88 90 92 92 87 83 92 76 71 70 73 74 89 94 92 91 92 94 95 95 93 90 92
54 54 60 63 62 61 64 65 60 62 57 58 59 60 58 56 55 64 74 80 88 92 90 88 89 87 85 85 74 67 71 72 76 82 91 90 93 93 95 95 95 92 96
57 60 62 64 65 63 63 64 62 59 62 66 66 66 68 61 60 60 64 73 81 95 86 91 93 91 78 83 83 73 64 67 69 74 82 85 92 94 94 96 97 97 96
61 65 68 68 66 65 65 63 63 67 69 70 68 68 66 69 66 65 71 75 82 92 96 92 90 78 83 71 63 73 74 76 76 76 83 92 99 98 99 99 98 98 98
67 66 66 68 70 70 72 71 69 74 79 76 76 76 75 76 75 75 75 72 76 75 73 71 73 76 73 68 63 66 71 73 77 84 86 91 98 98 98 98 98 98 97

GFSMW_sfc_rhum_102.txt.gz
RH
45 51 53 57 61 64 64 86 97 98 98 98 94 96 97 98 99 99 96 97 95 91 95 94 95 95 87 78 86 89 91 93 82 85 83 80 83 81 74 74 76 76 76
58 54 60 63 68 64 73 86 96 97 97 98 98 97 97 97 97 97 96 96 96 93 91 91 95 89 91 85 85 83 85 83 82 83 85 85 78 80 71 75 74 76 77
63 61 59 68 85 96 95 96 98 98 97 97 99 99 98 99 99 99 98 95 94 94 88 89 91 95 93 84 90 89 85 82 84 74 86 94 93 89 87 81 78 80 81
78 74 90 91 90 84 87 97 98 98 98 97 97 94 98 95 98 96 97 97 93 90 95 92 92 92 94 94 92 87 86 81 87 95 91 93 89 91 91 88 86 83 78
93 97 94 92 92 96 99 99 97 98 97 95 94 96 97 92 95 96 97 97 97 96 92 94 94 94 94 91 91 92 91 88 83 89 97 97 97 95 93 94 92 89 87
97 95 93 90 94 94 97 98 97 95 97 94 94 96 98 96 94 95 96 94 96 96 96 94 94 95 96 94 92 92 92 90 90 95 96 91 84 91 97 97 96 95 94
96 97 96 94 91 92 91 91 96 97 94 96 93 94 96 98 98 96 97 97 96 95 94 93 93 93 93 97 96 97 97 96 96 96 97 96 94 97 94 97 97 97 97
95 95 92 93 92 91 90 84 84 88 89 92 94 94 94 95 95 96 98 98 97 97 94 94 94 94 95 98 98 99 98 99 99 98 97 94 95 97 97 96 97 98 98
95 94 91 91 91 92 90 86 82 81 80 84 90 92 93 93 95 94 93 93 91 89 93 97 98 99 98 97 97 97 98 99 99 99 99 98 97 98 97 96 95 94 94
93 94 93 91 88 88 88 84 80 81 80 80 78 83 87 89 89 88 90 90 90 90 90 91 93 96 97 99 99 99 97 98 97 97 98 97 95 96 97 96 95 95 93
95 96 95 92 91 89 90 85 78 80 84 79 72 73 78 80 83 80 80 80 80 83 86 88 91 91 94 95 97 99 99 99 98 97 97 96 94 97 98 98 97 98 98
94 93 93 92 90 91 87 88 85 76 71 70 69 69 68 68 73 79 76 74 79 76 79 80 81 81 83 85 90 94 95 99 98 98 98 97 97 98 97 98 98 98 97
90 90 88 87 87 86 82 84 88 87 81 77 70 65 67 69 73 75 76 76 77 77 80 81 84 83 84 86 84 85 89 92 96 98 98 95 97 98 98 98 98 98 99
82 76 70 69 69 74 70 65 71 70 72 71 67 67 73 73 73 72 73 74 77 80 81 79 84 84 84 86 87 88 89 88 87 91 95 97 98 98 97 98 98 98 99
77 78 79 82 80 84 76 66 73 73 70 72 70 74 70 71 70 71 78 75 77 78 81 85 86 84 82 80 92 92 93 92 90 88 89 94 97 100 99 99 97 98 98
74 75 77 81 77 81 83 73 72 75 71 70 74 70 69 70 75 73 75 73 76 82 79 77 83 90 78 76 71 82 92 93 95 94 91 91 95 95 97 99 99 99 98
75 73 80 79 81 80 80 75 73 70 69 67 68 72 73 74 75 76 77 78 84 90 88 86 87 92 92 71 70 68 80 92 95 97 96 94 90 94 95 94 97 99 99
73 75 78 79 78 77 75 72 72 71 70 68 68 68 72 74 74 75 74 78 83 88 88 88 91 93 76 72 70 73 79 86 91 98 96 96 94 93 95 96 98 98 98
75 77 80 74 69 65 71 72 69 72 71 70 69 70 74 77 78 78 80 80 86 87 87 86 91 91 89 73 71 72 86 85 76 70 94 96 94 88 90 97 99 98 98
74 70 70 64 63 66 70 70 69 74 74 73 72 72 75 78 80 82 84 85 89 86 88 87 90 86 88 78 73 69 76 88 85 80 71 79 86 90 91 97 98 98 98
60 64 69 63 64 68 68 70 73 79 72 74 71 69 70 72 75 78 80 82 77 79 87 89 91 90 89 92 76 67 73 84 83 77 83 83 84 87 89 93 98 97 95
57 58 60 64 67 68 68 65 66 67 68 66 64 64 67 62 56 73 85 88 90 90 88 91 90 90 90 82 77 69 66 67 63 70 70 80 83 86 88 91 93 95 94
56 59 63 64 64 66 68 69 67 65 65 67 69 69 66 63 63 72 70 70 74 89 87 85 92 91 86 88 77 69 66 63 66 64 68 71 75 76 84 88 93 95 99
58 63 65 67 70 73 70 70 68 70 72 77 78 75 76 74 75 70 68 74 79 85 80 86 94 96 92 86 80 80 75 78 70 68 74 72 73 76 80 94 95 97 98
64 64 66 65 68 69 70 71 70 75 79 83 82 83 80 88 84 78 80 74 79 88 83 90 92 88 91 88 76 70 70 77 76 76 83 85 72 85 93 97 98 98 99
61 64 66 67 70 72 76 77 78 82 89 85 84 85 81 87 84 84 83 75 74 73 73 72 73 71 69 75 71 70 68 73 69 83 95 91 88 96 93 98 98 98 98

GFSMW_sfc_rhum_105.txt.gz
RH
49 51 47 49 53 56 55 53 60 67 92 97 97 94 92 90 91 89 84 80 82 79 82 89 88 91 88 83 82 87 90 96 93 93 88 82 70 62 57 54 53 53 54
59 53 55 58 61 57 58 59 60 87 92 92 90 87 88 87 85 86 83 85 82 82 83 87 90 88 88 80 74 76 76 89 93 92 90 81 61 67 62 58 59 56 56
79 75 63 61 67 68 71 67 61 80 94 91 92 93 92 91 91 92 89 86 83 86 86 81 84 86 90 86 85 82 75 74 85 85 85 90 70 63 62 60 58 57 61
79 86 89 82 85 84 85 86 84 87 92 93 92 91 93 91 89 89 89 88 84 84 87 87 84 84 88 89 91 89 89 87 86 95 88 80 84 70 65 76 77 68 63
86 88 95 93 92 91 86 88 94 94 92 94 90 94 93 90 89 88 87 86 86 85 86 88 87 88 88 88 89 96 95 91 90 88 84 86 81 82 82 76 80 78 72
91 92 92 90 89 91 92 94 91 95 93 91 92 94 94 94 93 92 92 89 89 87 87 87 89 89 90 89 90 91 92 92 92 89 86 82 81 79 83 89 83 84 77
92 94 95 95 93 92 90 88 90 95 92 93 93 93 94 94 95 96 95 94 90 89 90 91 90 91 88 88 90 93 92 92 93 91 90 86 83 73 74 76 76 86 85
92 94 94 94 93 92 88 84 86 86 88 90 92 90 88 92 92 92 93 94 94 94 89 91 94 96 94 92 92 94 93 94 96 94 92 90 91 93 92 78 84 85 94
92 93 90 90 91 90 88 83 80 80 79 78 81 84 86 87 87 88 88 92 90 88 89 89 88 91 91 93 97 98 98 97 97 97 96 94 92 94 94 92 92 88 88
92 93 93 93 90 88 86 84 78 78 78 77 74 78 81 84 88 87 84 83 83 82 84 84 88 89 90 89 92 95 98 99 98 97 98 98 97 96 96 97 94 94 96
93 94 92 90 90 86 90 84 81 80 80 74 74 66 71 73 79 83 82 76 77 77 77 78 80 81 82 86 88 88 91 93 96 98 99 95 95 96 96 95 92 94 96
91 91 90 89 89 87 85 87 86 78 77 69 58 62 56 56 62 66 64 64 63 58 59 59 62 66 71 78 83 81 84 89 92 96 96 98 99 98 96 96 95 96 93
83 81 78 75 78 79 73 78 75 74 64 54 55 57 54 52 54 55 54 54 56 56 58 60 62 62 68 75 79 81 82 80 82 88 90 93 96 98 98 98 97 96 95
82 72 62 62 63 67 58 59 60 56 60 58 53 56 56 54 52 53 53 53 57 56 56 58 60 66 66 65 73 72 78 79 81 79 83 84 89 92 96 97 96 96 98
66 67 68 66 66 69 62 58 57 58 58 61 59 60 57 55 58 57 56 55 60 60 58 58 59 65 64 62 66 66 71 76 82 80 78 79 87 93 91 94 96 98 99
68 68 67 66 66 66 70 64 60 59 56 55 59 60 60 58 60 59 60 58 58 64 63 62 64 66 57 69 66 65 67 67 77 85 87 82 88 85 90 91 92 96 98
70 69 67 67 67 65 69 63 62 60 58 56 55 56 58 60 63 61 58 58 62 66 65 64 65 68 67 66 65 65 66 73 71 78 83 83 79 89 85 86 90 91 94
72 69 68 70 66 64 65 64 64 60 60 57 54 55 58 58 59 60 59 59 61 63 66 67 67 71 64 69 67 66 71 77 78 80 76 74 75 80 85 85 91 87 87
69 68 69 66 61 56 61 62 59 61 61 61 59 58 60 61 61 61 65 64 68 68 70 67 70 74 73 75 71 68 73 74 73 69 65 67 68 68 72 81 96 94 88
71 71 65 59 55 58 57 54 58 61 61 62 62 61 62 62 63 64 68 66 68 68 71 70 71 75 73 75 73 66 64 68 67 64 63 69 72 76 75 83 88 97 96
63 60 57 55 58 57 57 56 61 63 60 63 61 60 59 61 63 66 67 72 72 71 74 70 70 70 70 69 76 72 65 66 68 61 58 56 67 70 73 78 82 89 88
56 54 55 58 61 60 58 57 60 58 60 60 59 60 62 60 57 67 70 69 69 68 69 71 70 65 69 76 73 70 65 62 58 61 60 60 68 70 70 70 75 79 88
54 56 57 57 57 59 61 59 57 60 62 65 65 65 64 62 64 66 67 66 65 70 71 70 74 74 70 72 77 75 70 69 64 61 61 63 64 67 67 70 73 75 90
55 57 55 54 56 62 60 62 63 65 69 71 72 70 70 68 71 70 67 70 73 76 74 76 77 76 80 77 71 71 75 75 74 72 79 78 71 62 63 68 77 87 97
61 58 58 59 63 64 66 66 68 73 74 75 76 76 72 78 77 72 74 73 71 75 76 80 77 80 84 76 72 71 69 72 72 77 78 84 82 74 76 82 82 90 98
59 60 62 65 69 71 70 72 75 78 82 78 74 76 73 76 76 76 71 68 67 66 66 65 68 72 74 72 71 73 71 70 68 77 88 77 76 79 80 80 84 90 97

GFSMW_sfc_rhum_108.txt.gz
RH
45 50 49 41 40 38 38 34 34 33 32 52 81 91 88 88 93 91 77 80 90 78 68 65 66 78 84 78 83 86 86 92 83 97 93 87 76 67 60 46 40 41 42
56 56 59 57 44 41 41 38 36 38 45 58 82 82 82 88 78 72 72 73 71 66 67 68 68 72 89 83 81 80 82 78 74 78 68 72 62 70 61 56 56 50 51
65 59 58 62 62 58 48 42 39 40 47 53 83 86 77 78 77 74 70 71 67 70 69 68 69 75 79 88 81 71 72 67 65 75 69 83 70 50 52 65 57 48 50
64 64 62 76 80 74 67 60 51 51 50 59 79 88 79 80 78 75 73 72 68 70 73 78 72 72 77 79 78 76 72 76 73 80 82 71 71 77 58 41 45 39 39
82 83 78 88 84 88 79 70 60 61 76 76 91 87 90 85 85 84 84 75 70 69 69 72 76 79 77 77 77 80 81 83 86 84 88 88 84 77 85 84 81 68 56
83 82 80 84 90 89 88 87 87 90 90 95 96 96 95 91 90 90 89 84 85 76 74 77 78 77 77 76 77 83 86 86 90 88 88 82 82 84 80 78 65 71 55
85 90 86 91 91 89 89 86 87 90 88 90 92 91 91 91 92 93 92 91 93 92 89 86 90 92 88 79 82 88 90 89 91 89 91 88 82 72 74 75 72 72 57
85 89 90 91 91 87 80 80 80 83 82 84 84 79 77 80 83 84 88 90 90 89 84 84 87 88 88 89 90 93 91 89 96 95 94 90 88 83 78 79 84 85 72
87 91 89 87 87 85 87 76 69 70 68 69 76 78 78 83 84 80 81 85 82 75 78 79 83 84 84 85 83 91 93 96 96 94 94 94 90 88 86 87 90 92 93
85 87 90 90 84 82 83 82 70 70 68 66 62 64 71 72 77 79 78 75 73 72 75 76 74 77 76 81 84 87 87 90 92 93 97 96 93 96 96 95 92 92 92
90 90 89 87 86 81 83 83 80 71 64 60 57 49 59 62 56 53 66 69 62 60 58 61 63 65 71 77 81 83 83 86 87 87 92 92 93 97 94 94 93 96 96
89 89 88 88 88 87 83 85 77 64 62 60 48 63 51 43 43 44 44 41 42 42 39 37 38 38 44 49 64 70 71 77 80 83 88 91 88 94 94 98 96 96 97
71 66 69 71 74 70 71 66 62 58 46 37 36 37 37 37 39 40 36 34 37 36 34 34 35 39 40 42 44 45 49 56 60 67 75 78 86 91 93 94 96 96 94
57 51 46 44 46 48 42 40 40 37 40 41 42 42 45 46 43 40 37 36 36 37 35 35 35 38 40 41 46 46 48 48 56 63 66 68 74 77 81 86 91 92 97
51 47 48 43 42 44 43 39 38 38 38 41 43 46 41 39 38 39 39 36 35 35 37 36 34 36 36 35 54 50 46 48 48 46 51 64 78 89 85 83 83 84 93
47 47 48 47 45 44 45 44 40 38 37 35 37 36 33 33 36 37 37 35 38 37 36 36 38 43 35 55 62 59 49 45 46 47 49 51 66 65 75 79 86 88 91
45 47 48 47 45 42 46 43 42 40 39 36 34 33 33 34 36 34 32 34 36 37 38 37 37 38 38 54 63 64 50 51 53 58 57 53 47 66 58 68 74 78 82
46 47 46 47 45 41 43 46 46 39 39 37 33 34 36 36 38 39 40 40 41 43 44 45 43 44 43 58 66 67 55 55 57 56 53 51 49 51 60 58 63 67 69
42 44 44 44 42 38 41 43 42 41 39 38 37 39 40 42 43 45 47 46 49 50 51 49 50 52 52 60 67 67 58 56 53 48 45 47 49 56 69 64 78 68 68
47 50 48 42 38 39 39 38 38 38 37 42 44 42 44 45 47 49 52 54 52 54 55 55 54 56 57 60 66 64 51 50 46 44 43 52 52 64 67 63 60 71 68
52 49 43 40 38 39 38 38 37 38 44 45 46 46 46 46 46 50 54 56 54 55 57 52 49 46 47 50 66 69 57 51 50 46 46 45 59 63 66 67 64 69 64
50 43 41 44 45 44 39 38 39 42 46 48 50 46 45 45 44 50 49 49 47 46 45 45 45 45 44 56 61 69 67 63 57 53 48 51 62 63 63 62 64 64 64
43 40 41 44 42 42 42 40 39 45 48 47 44 44 45 44 46 47 46 47 48 52 52 51 52 50 47 47 58 62 63 65 64 55 61 68 68 69 64 61 60 62 67
43 42 40 38 38 43 45 45 49 50 52 49 48 47 46 51 46 48 50 54 55 57 58 58 59 58 57 53 51 53 53 60 58 59 64 70 75 66 63 59 61 64 73
45 44 40 40 41 46 49 52 53 55 55 52 52 51 52 52 52 52 54 57 54 58 63 63 62 70 72 61 70 68 67 68 63 72 67 71 69 66 64 63 64 68 74
46 45 46 44 48 53 54 52 57 57 59 58 52 54 56 54 57 57 55 56 62 66 68 68 65 60 66 70 70 73 76 69 69 73 76 83 70 66 65 67 72 71 70

GFSMW_sfc_rhum_111.txt.gz
RH
39 44 46 44 46 44 36 34 34 30 31 33 35 51 85 92 90 67 57 60 62 60 69 74 71 74 71 70 69 77 84 90 86 92 92 85 76 68 63 62 49 43 38
47 49 49 49 52 55 51 42 35 33 32 37 39 58 79 89 91 91 80 64 63 68 69 69 77 70 82 75 74 84 85 84 91 93 91 90 81 79 65 64 60 56 48
65 60 63 67 65 66 62 58 49 36 35 37 51 69 80 88 92 86 79 76 70 72 72 67 74 79 80 83 83 86 89 92 79 84 79 84 76 58 53 61 57 57 55
63 63 70 78 79 80 76 73 58 49 42 45 51 70 89 89 82 82 79 78 73 72 79 75 73 76 81 87 85 82 86 84 87 82 76 71 73 66 66 49 53 50 48
70 75 76 82 80 84 88 88 73 62 53 53 60 77 81 86 88 87 85 83 79 77 81 82 78 81 84 84 84 86 86 86 87 84 80 82 79 81 87 78 62 65 57
77 75 72 76 84 85 88 87 88 89 81 74 84 95 94 97 98 97 95 93 94 93 87 86 90 86 87 90 86 84 84 86 87 87 84 82 88 89 88 86 71 64 56
81 82 85 83 87 88 86 85 88 90 87 89 92 94 95 95 96 96 92 90 90 90 89 89 90 88 88 90 91 93 90 88 92 90 91 87 83 80 80 82 78 73 58
80 84 86 83 88 87 85 76 82 83 86 91 95 92 91 92 91 83 81 81 84 85 79 81 81 81 80 85 88 93 92 91 96 93 89 90 90 90 88 89 93 91 79
80 84 86 86 83 85 87 69 60 62 57 64 75 82 80 78 75 69 72 78 77 66 73 75 74 72 78 82 85 91 90 90 92 93 94 94 94 92 93 94 92 93 95
85 84 86 87 84 79 78 83 71 53 53 48 43 47 53 56 59 58 63 65 66 63 63 62 63 64 67 74 80 83 83 86 90 90 87 86 91 92 92 96 92 92 95
86 86 84 84 83 81 81 77 76 71 55 51 51 44 49 55 51 48 47 50 53 53 53 50 52 51 55 58 64 66 68 73 77 82 86 84 85 90 93 94 93 96 97
84 85 84 82 80 83 81 77 70 68 57 56 46 47 43 41 37 35 35 32 33 31 32 33 33 36 37 46 52 57 53 58 62 66 73 78 79 89 90 92 93 94 96
72 70 69 68 67 61 59 58 48 46 40 33 33 36 37 38 37 38 38 36 33 32 29 29 30 32 33 34 37 40 42 45 48 53 61 65 69 79 84 87 92 94 92
52 48 44 38 38 41 36 34 33 33 35 36 37 36 34 36 38 38 36 31 28 29 30 30 30 30 30 29 40 41 42 43 44 47 50 51 64 72 80 80 84 84 89
47 47 44 40 37 37 38 34 33 32 31 33 34 36 34 32 31 31 32 31 32 30 31 30 30 32 34 28 50 50 46 43 42 45 41 48 64 74 77 74 82 83 87
46 41 40 42 41 38 37 38 36 33 32 30 30 30 28 29 31 30 29 30 32 32 32 34 34 36 29 46 53 57 55 47 47 51 53 52 60 56 61 65 71 72 80
43 40 40 42 42 38 37 38 38 35 33 33 30 30 28 31 32 32 32 34 35 37 39 39 40 41 39 47 55 61 56 54 54 60 61 55 42 62 51 58 64 64 66
40 38 39 42 41 38 37 40 42 34 34 34 31 30 33 34 36 38 39 39 39 41 43 46 45 47 44 52 56 63 64 60 59 61 57 54 52 55 62 65 66 64 60
35 36 37 39 41 38 35 39 39 38 37 34 34 36 38 40 41 43 45 45 48 50 52 49 51 54 53 55 58 64 65 62 55 46 43 44 47 51 63 63 71 64 64
38 40 42 42 39 34 34 35 34 36 35 37 41 40 41 43 44 46 50 52 50 54 54 54 55 52 52 50 54 60 55 54 47 44 42 51 48 55 61 62 59 65 62
45 44 45 42 37 35 35 38 36 37 40 42 43 45 44 43 43 48 51 56 55 55 57 51 47 42 42 44 53 60 59 58 58 53 50 45 51 57 61 61 63 66 59
50 47 44 42 41 41 40 39 37 38 40 44 46 42 40 40 38 46 48 47 44 43 44 44 45 44 41 49 52 56 59 59 59 59 53 53 61 65 66 66 64 63 63
47 42 41 42 40 39 37 35 32 39 42 42 41 40 40 41 40 43 44 46 46 51 51 53 54 52 49 50 57 57 58 60 61 58 63 67 64 64 66 67 62 60 68
44 40 39 40 38 35 36 36 40 44 45 44 43 42 45 45 46 45 46 50 55 56 54 57 62 61 60 59 58 59 64 65 64 67 71 66 68 64 63 64 62 64 70
44 42 40 37 33 35 37 39 42 43 45 44 44 45 46 46 47 47 50 52 51 54 63 68 68 72 71 63 62 64 64 66 73 72 74 78 75 79 78 70 68 70 73
44 44 42 38 38 40 43 42 42 48 49 50 49 49 52 52 51 53 55 54 57 60 64 66 65 60 65 65 68 73 72 72 69 71 78 81 79 79 74 74 74 74 73

GFSMW_sfc_rhum_114.txt.gz
RH
55 58 58 64 67 65 66 65 65 53 50 54 56 55 62 93 96 96 84 79 82 82 92 96 84 85 89 84 87 89 93 94 95 97 97 94 88 91 90 72 59 51 43
68 62 65 69 74 78 78 79 73 70 62 56 58 59 78 93 94 92 91 85 80 76 83 86 87 91 93 91 85 87 95 93 94 97 97 97 92 91 84 77 70 65 66
75 72 70 74 80 82 84 80 80 84 76 54 62 70 81 92 93 92 89 88 83 87 84 88 90 93 94 97 94 94 95 96 95 96 90 98 91 82 87 81 73 68 66
76 67 75 76 78 80 79 80 82 86 77 70 65 72 85 90 91 88 90 90 80 80 93 91 86 93 95 95 95 94 94 96 95 96 91 84 88 85 85 75 81 72 70
78 74 80 78 80 81 86 85 86 85 87 89 81 89 95 97 91 90 94 96 98 96 94 94 94 94 95 96 95 95 97 96 97 98 97 97 96 96 96 89 78 78 68
80 78 78 77 82 84 88 84 84 85 88 91 90 96 97 96 95 95 96 97 96 95 94 92 94 93 93 94 96 96 96 97 96 97 98 95 96 95 94 95 86 82 65
81 84 85 86 86 86 89 77 79 80 89 91 91 91 95 95 96 96 96 95 96 95 94 89 88 88 88 90 90 94 94 95 97 97 96 95 92 88 86 88 86 84 72
80 85 86 88 89 86 86 81 69 65 71 88 91 94 92 94 90 91 92 94 94 90 81 76 76 78 81 83 88 92 90 90 94 94 95 93 93 95 92 91 91 93 90
82 84 86 87 87 85 86 82 75 57 56 51 62 67 75 79 80 77 79 79 75 62 65 66 67 69 74 76 84 88 86 89 93 94 92 91 90 90 92 95 95 98 97
84 84 86 86 83 82 82 85 75 72 58 55 46 48 56 56 59 60 62 63 65 64 60 58 59 59 63 67 77 77 77 77 85 85 86 87 87 89 92 94 92 93 97
86 86 85 84 83 82 82 78 75 67 65 56 54 46 49 51 47 46 47 50 49 47 47 48 52 52 54 61 66 66 64 66 68 72 76 76 80 88 91 90 89 91 94
85 86 86 84 82 79 79 74 71 64 58 55 46 49 46 42 40 41 41 37 35 35 35 37 39 37 41 46 52 54 56 60 66 67 71 70 67 82 82 86 90 91 92
86 89 91 91 85 82 75 71 58 54 45 41 42 41 42 48 47 45 39 33 33 34 35 37 37 38 39 37 44 47 51 53 52 56 60 63 70 79 77 87 86 88 85
74 74 72 69 62 56 48 45 44 43 44 45 46 47 44 42 42 40 40 40 40 38 39 39 38 40 38 38 51 54 56 54 52 56 60 58 64 67 72 81 83 82 87
65 63 64 61 54 53 52 45 44 43 41 42 45 45 41 40 42 43 41 38 39 38 39 39 41 42 39 32 52 58 62 62 55 55 54 59 67 71 63 61 80 83 86
58 57 57 54 55 51 51 46 45 44 43 42 42 41 39 41 46 46 45 46 48 47 48 50 51 54 39 50 51 55 65 64 61 63 66 65 68 63 55 60 68 69 78
55 57 53 54 57 54 47 52 50 45 45 44 42 40 41 46 50 49 50 54 55 56 59 59 60 60 58 54 55 58 69 74 74 73 74 68 50 70 69 68 66 66 63
53 55 53 55 57 52 51 54 54 46 46 46 43 44 48 50 53 55 58 60 61 63 66 69 67 68 58 57 57 59 77 79 78 76 73 72 69 65 61 72 77 75 71
54 53 54 58 59 52 50 51 54 49 47 46 46 49 52 55 58 62 65 66 71 72 73 67 70 74 72 59 56 59 81 81 76 60 57 58 60 55 54 71 82 71 66
53 56 59 58 56 50 50 51 50 50 49 52 52 51 54 56 58 61 65 68 68 69 70 66 70 66 65 59 51 54 70 76 69 64 59 59 54 52 54 66 78 82 79
59 60 61 59 54 49 48 51 50 52 56 53 55 58 58 56 56 59 62 67 69 69 72 70 65 57 54 56 53 56 60 68 68 71 67 61 59 57 60 64 71 80 68
64 63 62 59 55 53 52 56 53 54 51 55 58 57 55 50 47 58 63 62 60 60 61 61 61 60 57 56 57 59 60 60 65 70 68 70 67 66 65 64 65 64 66
66 62 60 59 56 57 51 49 46 49 52 55 55 55 54 54 53 62 63 66 67 70 70 68 72 69 64 67 62 62 61 63 65 65 67 70 74 73 70 70 64 63 80
64 57 56 58 56 51 46 46 53 54 57 60 60 59 63 61 61 60 61 67 74 77 68 70 77 81 74 72 72 65 69 67 69 70 79 82 74 69 68 70 76 81 85
62 56 56 57 52 47 47 50 53 54 59 60 60 62 62 63 65 61 63 65 68 70 74 78 77 74 80 74 68 66 64 66 65 66 75 85 88 86 84 85 86 85 87
61 60 60 54 50 50 51 54 54 60 63 66 64 66 68 71 70 70 71 61 60 59 60 62 64 62 64 64 67 68 67 65 64 69 81 85 89 86 86 88 89 89 84

GFSMW_sfc_rhum_117.txt.gz
RH
70 69 68 73 78 79 81 81 83 80 81 82 77 64 62 74 82 95 92 94 96 95 96 96 98 97 96 95 95 95 93 96 94 97 98 99 96 93 83 75 67 60 54
80 72 74 78 84 84 84 84 82 83 86 87 84 71 71 84 95 95 91 86 85 88 91 93 94 94 92 95 86 92 97 96 97 95 97 97 92 97 83 78 76 73 69
89 81 76 85 87 86 86 84 84 85 85 87 90 81 81 88 94 93 90 81 80 78 84 88 89 92 97 94 95 94 94 97 97 96 92 100 98 93 91 87 82 78 76
88 78 81 87 87 86 84 85 83 79 80 89 94 94 86 90 96 97 98 96 93 93 92 87 91 94 96 98 98 98 98 98 99 99 97 94 89 92 90 85 89 80 77
90 88 89 85 82 88 90 86 84 80 88 89 87 94 93 98 98 96 95 94 92 89 87 92 95 97 99 99 99 98 98 98 98 98 97 99 99 97 98 94 90 79 81
89 85 85 84 84 86 86 87 82 74 83 89 91 91 96 95 94 95 96 95 93 94 89 88 96 97 96 96 97 98 96 96 97 98 99 99 98 99 99 99 89 85 75
90 85 87 89 88 86 86 80 73 66 64 77 87 91 92 94 93 92 95 92 92 91 92 91 95 96 96 94 93 92 92 94 95 95 96 94 96 95 95 95 90 89 75
89 90 87 91 89 86 86 82 76 64 62 66 72 78 82 88 88 88 84 85 87 86 85 89 89 88 85 84 86 86 88 90 94 92 90 90 91 91 93 97 98 97 91
75 79 90 91 87 91 86 83 73 68 59 56 55 58 60 67 79 75 71 74 73 57 71 66 65 66 67 72 76 82 80 85 90 91 89 87 86 88 90 93 93 97 98
88 81 90 88 88 83 84 82 74 64 61 54 48 46 52 52 54 50 52 55 52 52 53 53 53 53 58 64 69 79 77 78 83 80 78 82 85 87 91 88 87 91 95
88 90 87 86 87 82 81 75 72 66 60 54 50 45 48 50 47 44 44 48 49 45 44 45 47 48 46 59 59 59 58 66 70 75 76 73 73 88 84 84 90 89 92
86 90 92 90 89 87 81 78 72 68 57 57 54 52 51 45 43 40 36 34 34 34 34 35 40 41 46 56 61 64 62 64 66 61 70 69 62 80 78 84 86 86 88
89 90 93 94 93 91 83 79 77 68 53 50 51 51 48 49 47 46 45 43 44 43 42 40 42 46 47 54 60 64 64 67 64 61 64 67 70 72 76 84 86 87 78
84 88 90 92 92 83 80 63 51 47 48 49 51 49 48 46 47 46 46 45 46 47 47 48 50 52 49 50 60 63 69 70 67 64 66 65 69 70 80 72 80 82 89
85 82 83 84 84 78 57 49 49 48 46 48 49 46 43 44 47 48 49 50 52 51 53 54 55 56 48 42 58 62 66 66 64 65 65 66 72 71 59 64 84 83 88
74 72 69 71 65 60 59 51 49 48 46 44 44 42 41 45 50 52 54 57 58 59 60 62 63 64 47 54 56 59 72 74 73 74 71 70 71 64 56 63 64 66 77
67 66 65 65 64 56 54 55 54 50 49 48 45 42 44 48 53 53 56 59 63 66 70 71 71 70 69 58 59 60 75 81 84 83 80 72 55 71 70 64 61 64 59
59 63 66 63 64 61 58 60 57 50 51 49 47 49 52 55 59 61 64 65 64 65 68 72 72 74 63 60 58 58 76 83 84 84 79 75 74 71 67 74 78 78 77
58 62 65 64 67 58 60 60 62 55 55 53 50 53 56 60 63 66 69 69 73 75 74 71 72 72 70 64 58 56 78 83 83 73 66 66 65 63 59 68 80 79 77
58 62 67 68 61 61 60 60 62 60 56 56 56 56 60 62 65 68 70 71 74 73 78 75 76 69 70 60 55 56 65 74 71 65 65 66 63 61 60 67 77 88 86
64 66 67 64 61 58 58 60 59 60 58 59 59 61 63 62 62 66 68 75 76 74 77 72 71 66 64 68 59 60 63 68 70 72 72 68 66 66 65 66 76 82 79
70 69 68 65 60 58 56 61 59 58 58 59 61 62 61 54 52 65 70 70 71 75 76 77 74 72 70 65 65 64 62 62 67 71 70 75 69 66 70 71 71 68 66
71 71 68 62 61 59 57 60 55 54 55 59 60 59 58 58 59 68 72 71 75 79 78 73 78 81 77 80 68 67 67 67 67 63 66 67 68 72 74 71 66 63 84
75 70 66 64 64 62 53 51 55 56 60 64 64 63 64 66 68 65 65 72 77 80 71 73 80 89 82 81 82 78 85 77 75 78 86 82 70 70 71 73 77 83 92
75 68 66 67 62 57 52 52 57 60 62 63 62 64 66 72 73 70 72 67 76 78 80 79 74 82 81 74 67 68 71 70 66 70 82 88 92 89 88 86 84 86 92
72 68 68 66 62 56 55 57 59 61 64 64 65 69 72 77 76 77 78 67 64 63 64 65 65 63 65 64 64 66 64 64 64 72 89 86 90 89 95 94 94 94 88